GFSNGP_sfc_thetae_003.txt.gz
Theta_e
290 291 290 290 290 290 289 290 286 289 290 294 296 296 297 299 300 299 300 300 299 298 298 298 298 298 297 297 296 297 296 295 294 295 295 293 292 292 294 294 294 294 293 291
286 289 288 286 289 290 290 291 290 291 290 297 297 297 298 298 298 298 299 297 296 296 295 296 298 296 295 294 295 295 292 290 290 291 292 292 292 292 291 290 288 287 287 286
283 286 286 283 287 289 290 292 291 287 292 294 294 296 297 298 298 295 294 294 294 295 295 296 297 294 293 293 293 292 289 290 291 292 290 288 288 287 287 286 286 285 285 285
284 285 279 290 293 293 291 292 292 291 293 294 296 298 298 297 295 293 293 292 294 295 296 298 296 294 292 291 290 289 289 291 292 289 287 287 287 286 285 285 284 284 284 284
282 283 285 290 292 290 289 289 293 293 295 296 298 298 295 295 295 293 292 294 295 297 298 297 294 293 289 288 288 288 289 290 288 287 286 285 284 284 284 283 283 283 283 282
284 281 279 288 291 294 294 286 295 296 296 296 296 288 294 292 294 294 295 295 296 298 297 294 294 292 288 288 289 288 288 287 287 286 285 284 284 283 283 283 282 282 281 281
284 282 285 291 292 294 285 287 294 296 296 295 292 291 292 294 293 295 295 294 296 297 294 293 294 293 289 286 286 289 288 287 286 285 284 284 283 283 282 282 281 281 280 280
281 280 279 292 292 290 294 295 296 296 295 293 292 292 292 293 293 293 293 293 294 294 292 293 293 289 287 288 291 292 288 286 285 285 284 283 283 283 282 282 281 280 279 279
287 287 293 294 296 298 297 295 294 293 293 292 290 289 292 292 292 293 292 292 294 292 291 292 293 289 290 291 291 288 286 286 285 285 284 283 282 282 281 281 280 279 278 277
289 294 294 297 298 298 296 296 294 295 293 292 291 291 291 291 291 291 291 291 292 291 291 291 292 290 290 290 287 286 285 285 285 284 283 284 282 282 280 280 279 278 277 276
290 295 296 296 298 299 295 296 294 295 294 293 292 291 291 291 290 290 290 290 291 290 290 291 291 289 288 286 286 285 284 284 284 283 282 282 282 281 280 281 279 278 277 277
290 296 296 296 298 298 294 293 293 291 291 292 291 290 290 289 289 289 289 290 289 289 290 290 289 286 286 285 284 284 283 283 283 282 282 281 280 280 280 278 278 278 277 277
296 297 295 295 295 294 292 291 291 291 290 289 290 290 289 288 289 288 288 288 288 287 286 286 285 284 284 283 282 281 282 282 282 279 281 280 279 279 277 278 277 276 276 276
297 295 290 291 290 292 292 291 291 290 289 289 289 289 288 287 288 288 287 287 287 285 285 284 284 283 284 284 283 280 280 276 281 281 280 279 279 278 277 276 274 274 275 274
292 294 293 291 290 290 290 290 288 287 287 287 288 288 288 287 287 287 287 287 286 285 284 284 283 283 284 284 283 282 282 282 281 280 280 277 278 277 277 276 275 274 274 274
290 288 289 289 289 289 289 288 287 286 286 286 287 287 287 286 285 285 286 285 281 282 282 281 280 282 283 283 283 283 282 279 276 280 280 279 278 277 276 276 275 274 273 272
287 286 287 287 287 287 287 288 287 286 286 286 285 284 283 283 283 283 283 281 278 278 281 281 281 283 281 283 283 282 281 281 275 280 279 278 277 276 276 275 274 274 272 272
289 289 288 287 286 286 286 287 286 285 284 285 282 282 283 282 282 282 283 280 278 280 281 282 280 281 280 283 282 281 280 279 280 279 279 278 277 276 275 274 274 273 272 272
287 286 286 285 286 285 285 285 284 284 282 281 279 281 284 284 283 283 281 278 279 280 282 281 281 282 281 281 281 280 279 280 279 279 277 274 277 276 275 275 274 274 272 271
286 286 286 285 285 282 282 283 282 282 283 282 279 280 282 285 285 284 280 280 282 283 283 283 282 281 281 281 280 280 280 280 279 279 277 276 276 276 275 272 273 274 273 272
283 284 282 281 281 281 279 279 279 280 282 280 277 279 283 285 285 283 279 281 283 281 283 283 283 282 282 282 281 281 280 280 280 279 278 276 275 276 275 274 274 274 274 273
284 283 280 280 279 281 282 281 282 279 279 279 279 282 284 283 285 281 280 281 284 280 283 284 283 282 282 281 281 281 281 281 281 280 278 276 276 275 276 275 274 274 274 273
283 282 282 280 279 282 282 281 280 279 279 280 281 283 282 284 285 282 281 283 283 281 283 283 279 282 282 282 281 281 281 281 280 280 279 278 277 276 275 275 275 274 274 273
283 283 282 282 279 279 280 283 283 282 281 282 283 283 283 284 285 283 284 280 279 278 283 282 281 279 276 282 282 281 281 281 281 281 279 273 276 275 275 274 273 275 273 270
282 281 281 279 280 282 282 283 282 284 284 284 285 286 285 285 282 285 282 282 277 277 282 276 278 277 281 282 281 281 280 280 280 281 279 278 277 277 277 276 274 274 274 272
283 283 283 281 281 282 283 283 283 284 283 283 285 286 285 282 283 282 281 281 280 278 283 283 282 282 282 281 280 280 279 279 279 279 278 279 278 277 277 277 276 275 274 274
281 277 280 282 283 284 283 283 283 283 284 284 283 286 284 283 284 283 282 282 281 282 282 282 282 282 282 281 280 279 278 279 277 277 278 277 277 277 277 277 277 277 275 273

GFSNGP_sfc_thetae_006.txt.gz
Theta_e
295 295 295 294 293 294 292 294 289 292 293 296 299 299 301 303 304 303 303 303 303 303 301 301 301 302 302 301 300 301 300 298 296 296 296 296 295 294 294 293 292 291 291 291
290 294 294 292 294 294 294 295 294 294 293 299 300 302 301 301 301 301 301 301 300 297 297 298 299 301 300 298 299 300 298 295 295 295 295 293 293 292 291 291 290 290 289 289
288 291 291 287 292 293 294 296 295 291 296 299 299 300 301 301 301 299 298 298 295 296 298 299 300 301 298 298 298 298 296 294 294 295 292 291 291 290 289 289 290 289 289 288
287 288 283 292 298 297 295 296 297 297 297 299 300 301 303 301 298 295 294 295 296 297 298 299 302 300 299 298 297 296 295 294 294 292 290 290 289 289 289 289 288 288 288 287
285 285 290 292 295 294 292 293 298 297 299 300 301 301 299 296 295 297 297 298 298 298 299 300 301 299 298 297 296 294 293 293 292 291 290 288 288 288 289 288 288 287 287 286
287 283 282 292 296 298 298 289 299 299 298 297 299 292 292 298 296 296 298 298 297 297 299 300 300 298 298 296 295 293 293 293 292 291 289 288 288 288 289 288 287 286 285 286
287 285 289 297 297 298 287 291 300 296 296 296 293 294 296 296 296 297 297 297 297 296 296 298 299 299 296 295 292 293 293 293 292 291 288 289 289 289 288 287 286 284 284 284
287 283 282 297 297 291 298 299 297 297 298 297 297 296 296 295 295 295 295 295 295 294 295 296 298 297 296 292 293 294 294 293 291 290 288 288 288 288 288 287 284 283 283 283
291 293 300 302 299 301 299 297 299 297 298 297 295 294 293 293 294 294 295 294 294 294 294 295 296 297 294 293 293 293 292 291 290 289 288 289 288 287 286 285 282 281 281 280
294 297 299 302 303 303 301 298 297 297 297 295 293 293 293 293 293 293 293 292 293 292 292 292 295 296 294 294 293 291 290 289 289 289 288 288 288 286 285 283 281 280 280 279
295 299 300 300 301 300 299 297 296 297 295 293 292 292 292 291 292 291 292 292 292 291 291 291 293 293 293 291 290 289 288 288 288 288 288 287 286 285 284 283 281 279 279 279
291 298 299 297 298 300 298 296 295 293 292 293 293 292 291 290 291 291 291 292 291 291 291 291 291 291 290 289 288 287 285 287 288 287 287 286 285 284 280 279 278 278 277 277
298 298 298 298 297 298 295 294 294 293 293 293 293 292 291 290 291 290 292 291 291 291 291 290 289 288 288 287 286 285 285 286 287 285 286 285 284 283 281 282 278 277 276 276
299 297 294 296 295 295 293 293 294 294 294 293 292 292 291 291 291 291 291 292 292 291 290 288 287 287 288 287 286 285 285 282 286 286 286 284 283 282 281 280 279 279 278 276
296 298 297 296 294 293 294 294 292 291 291 291 292 291 292 290 290 290 291 291 290 289 289 288 287 286 287 286 285 284 284 285 285 285 284 282 282 281 281 280 279 278 278 277
295 295 294 292 292 292 291 290 289 289 290 290 290 289 290 290 290 289 288 287 285 285 286 285 284 285 285 286 285 285 283 281 282 284 283 282 281 281 280 279 279 278 277 275
291 289 290 289 288 288 289 289 289 289 289 289 288 289 288 287 285 286 287 285 286 283 284 284 284 286 284 285 285 285 284 283 280 283 282 282 281 280 280 279 278 278 277 275
292 290 290 289 288 288 289 289 289 288 288 288 286 285 284 284 285 286 286 286 285 284 285 285 285 284 284 284 284 283 284 284 283 282 282 281 281 280 279 279 278 277 277 276
289 289 289 289 290 289 289 288 288 288 286 286 285 284 284 284 285 287 286 285 283 283 286 285 283 283 283 283 283 283 283 283 282 281 282 280 280 280 279 279 279 278 277 277
289 290 290 290 290 288 287 287 286 287 287 286 285 284 284 285 285 286 286 285 286 287 287 286 284 284 284 284 282 283 283 283 282 282 281 280 280 280 280 278 278 278 278 277
288 289 289 287 287 287 285 285 284 284 286 285 283 283 283 285 286 286 285 285 288 286 286 284 285 286 285 284 283 284 283 283 283 282 281 280 280 280 279 279 279 278 278 278
288 288 286 286 286 286 287 287 287 285 284 284 284 284 284 285 286 286 286 286 289 284 287 287 287 285 285 282 284 284 283 283 283 283 282 281 280 279 279 279 278 279 278 278
287 287 287 286 285 287 287 286 285 285 284 284 284 284 284 285 286 285 285 288 288 287 287 288 285 283 283 284 284 284 283 283 283 283 282 281 281 280 279 279 279 279 278 278
287 288 287 288 287 285 285 287 287 288 285 286 286 286 285 285 286 290 290 286 284 285 286 286 284 283 283 284 284 284 284 283 283 283 283 280 281 280 280 279 279 279 279 277
287 287 287 285 286 288 287 287 285 286 286 287 286 287 288 288 285 286 286 286 284 285 286 284 282 283 284 284 283 283 282 282 282 282 283 283 282 281 280 280 280 279 279 279
288 288 289 288 288 288 287 287 284 285 287 285 285 286 287 287 287 285 286 285 287 285 286 286 285 284 285 284 283 283 282 282 281 281 281 281 282 281 281 280 280 280 280 279
288 286 287 288 290 289 289 287 285 285 285 285 284 286 286 286 285 285 285 286 285 285 285 285 285 285 285 284 283 283 282 282 280 281 280 280 280 280 280 280 281 281 280 280

GFSNGP_sfc_thetae_009.txt.gz
Theta_e
297 297 296 295 295 295 294 294 291 294 294 298 300 301 302 304 304 303 303 303 303 303 303 302 301 301 302 303 303 302 301 300 298 298 298 296 295 295 294 293 292 292 291 291
292 296 295 293 295 296 296 296 296 296 295 302 303 303 303 302 302 302 302 302 301 301 300 299 300 300 301 302 301 301 300 298 298 297 296 295 294 293 292 291 291 291 290 290
289 295 293 289 295 295 295 297 297 292 297 301 301 301 299 300 302 301 300 299 300 299 299 300 300 301 301 301 301 300 299 298 297 296 295 293 292 291 290 290 291 290 289 289
289 289 284 296 300 299 296 298 299 299 299 301 300 301 301 302 301 299 298 299 299 299 299 299 300 300 301 301 300 299 298 296 296 295 294 292 291 290 290 290 290 289 289 288
287 287 292 295 297 296 294 294 300 299 301 301 302 302 299 301 301 299 299 300 300 299 298 298 298 299 299 299 298 297 296 295 294 294 292 291 290 290 290 289 289 288 288 287
290 284 283 294 299 301 300 290 301 301 300 298 299 293 296 300 300 299 300 299 298 298 298 297 297 298 297 296 296 296 295 294 294 293 292 290 290 289 290 289 288 288 287 286
288 286 291 298 299 302 288 292 302 301 299 299 295 297 299 299 299 298 297 297 298 297 296 296 296 296 295 295 294 295 295 294 294 294 292 291 290 290 289 289 288 287 286 286
289 285 283 300 299 293 300 303 302 299 299 298 299 298 298 296 296 296 296 296 296 294 294 295 295 294 293 292 295 295 295 294 293 293 291 290 290 289 289 288 287 286 285 285
294 294 302 303 302 305 304 301 300 298 298 299 297 296 295 295 295 295 295 294 294 293 293 294 294 293 291 294 296 295 293 293 292 291 290 290 289 288 287 287 285 283 282 282
296 299 300 301 304 304 303 301 299 298 300 298 295 295 294 294 294 293 293 292 293 292 292 292 293 293 293 294 293 293 291 290 290 289 288 289 289 288 286 285 283 282 281 279
298 301 301 303 302 302 301 301 300 300 298 296 295 294 294 293 292 292 292 292 293 292 292 292 293 292 293 293 291 289 289 288 288 289 288 288 287 287 286 285 282 280 279 279
295 301 300 300 302 302 301 299 298 296 295 296 295 294 293 292 292 292 292 292 292 292 292 292 292 291 291 291 290 288 287 287 288 288 288 287 286 285 281 280 279 278 277 277
302 304 302 301 300 301 299 297 297 295 296 294 294 293 293 292 292 291 292 292 292 292 292 292 290 288 289 290 289 287 286 286 287 286 286 285 284 283 282 283 280 279 277 277
303 301 295 297 297 298 297 296 296 296 295 294 293 293 292 291 291 291 291 292 292 292 291 290 289 288 289 289 288 287 286 285 286 286 286 285 283 282 282 281 280 281 280 277
298 299 298 299 298 296 296 295 292 291 292 291 292 291 291 290 290 291 292 292 291 289 290 289 288 288 289 288 286 286 285 284 285 285 284 283 283 283 283 282 281 280 280 280
298 298 298 295 294 293 292 291 290 290 290 290 290 290 291 291 291 291 291 292 287 285 287 285 284 287 288 288 287 287 287 283 283 283 283 283 283 282 281 281 280 280 279 279
295 293 293 291 290 290 290 291 291 290 290 290 289 290 289 288 287 288 289 289 287 286 286 285 285 288 287 287 286 287 285 284 283 283 283 282 282 282 281 281 280 280 280 278
296 294 291 290 290 290 290 291 290 290 289 290 288 286 285 285 285 286 286 287 286 286 286 285 286 287 286 286 286 285 283 283 283 283 282 283 282 281 281 280 280 279 280 279
292 290 291 291 291 291 291 290 290 290 288 287 286 285 286 285 286 287 287 285 285 285 287 288 284 283 285 284 283 284 284 283 283 283 283 282 282 282 281 281 280 280 280 279
290 291 291 291 291 290 289 290 288 289 290 289 286 285 285 285 286 286 286 285 286 287 289 288 286 285 285 285 282 284 284 283 282 283 283 282 282 282 281 281 281 280 280 280
289 290 290 290 290 290 287 287 286 287 288 287 285 285 284 285 285 285 285 286 289 288 289 287 286 287 287 286 284 286 285 284 283 283 283 283 282 281 281 281 282 281 280 280
290 289 288 288 288 289 290 290 289 287 286 286 285 285 284 285 285 286 287 286 290 286 288 288 288 286 287 283 286 286 284 283 284 284 283 283 283 281 280 281 281 281 281 280
289 289 289 288 287 289 290 288 287 286 285 286 285 285 286 287 287 285 285 290 289 287 289 288 287 284 283 285 285 285 285 284 283 284 284 284 283 282 281 280 281 280 280 280
289 289 289 290 289 288 286 290 290 289 287 287 286 286 287 285 286 290 289 288 286 285 286 287 286 284 283 284 285 284 285 285 285 285 284 284 284 283 282 281 280 281 281 280
290 289 289 288 288 289 290 290 290 290 289 289 288 289 288 288 286 286 286 286 285 285 286 285 284 284 284 284 284 285 284 284 284 284 283 284 284 284 283 282 281 281 281 281
289 290 290 290 291 291 291 290 290 290 288 287 289 288 288 288 288 286 287 286 286 286 285 285 285 284 284 285 285 285 284 284 283 282 282 282 282 282 282 282 282 281 281 281
290 288 290 291 291 291 292 291 289 287 286 286 285 287 288 287 286 286 286 286 286 286 286 286 286 285 285 285 285 285 284 284 283 282 281 281 281 281 280 281 281 281 281 281

GFSNGP_sfc_thetae_012.txt.gz
Theta_e
296 296 296 295 294 295 293 294 289 292 293 297 300 301 301 302 303 303 303 303 302 302 302 301 300 301 301 301 303 303 300 299 298 298 297 296 295 294 293 292 291 291 290 289
293 296 295 292 294 294 295 295 295 295 294 301 303 303 301 301 301 301 301 300 300 301 300 299 300 300 300 300 301 302 299 298 299 298 296 295 295 294 292 291 290 289 288 288
290 293 293 290 295 295 296 297 296 292 297 301 300 300 300 301 301 299 299 299 299 299 299 299 298 297 297 298 301 300 299 299 298 296 295 295 294 292 290 289 289 288 288 287
288 289 284 295 300 299 296 297 298 298 300 301 300 301 302 301 299 298 298 298 298 299 298 298 297 297 297 296 296 296 297 297 297 295 295 294 292 291 289 288 288 287 287 286
287 286 291 294 297 295 294 293 299 299 300 300 300 300 298 300 300 298 298 299 297 297 297 297 296 296 295 294 294 294 294 296 295 294 293 293 291 289 288 287 287 286 287 285
287 284 282 295 299 301 300 289 302 301 299 298 298 291 294 299 299 298 297 297 296 296 296 295 295 294 293 292 292 292 294 295 294 294 293 291 290 289 288 287 287 286 285 284
288 285 290 298 300 302 288 291 302 301 299 298 295 296 298 299 297 296 296 296 296 295 293 294 294 293 292 291 291 293 295 294 293 292 292 291 290 288 287 286 285 284 283 283
289 285 283 301 299 293 300 304 302 301 299 297 297 299 297 296 295 295 294 294 294 292 292 293 293 292 291 290 292 294 293 293 293 292 292 291 288 287 287 284 283 282 279 280
294 293 302 305 301 304 304 301 300 300 299 298 298 296 295 294 294 294 293 292 293 292 292 293 293 293 291 292 293 292 291 291 290 291 290 289 286 285 284 283 281 280 280 278
298 299 300 302 304 305 304 302 301 300 300 300 295 295 294 294 293 292 292 291 292 291 291 291 293 293 292 292 292 290 289 289 289 287 287 287 287 285 283 282 280 280 278 277
298 301 302 303 303 302 301 302 301 301 299 296 295 294 293 292 292 292 292 292 292 291 291 291 292 292 292 290 290 288 288 287 286 286 286 286 285 283 282 281 279 278 277 276
295 302 302 301 302 302 300 300 300 296 295 296 295 292 292 291 292 291 291 291 291 291 291 291 291 291 291 290 289 287 285 285 285 285 285 284 284 283 282 281 280 280 278 275
301 305 304 303 301 301 300 299 297 296 295 292 293 292 291 290 291 290 291 291 291 291 291 291 290 289 290 288 287 286 284 284 284 283 284 283 282 282 280 282 282 281 279 279
305 303 298 299 297 299 298 297 296 295 293 293 292 291 290 290 290 290 290 291 291 291 290 289 289 288 290 289 286 284 285 283 284 285 283 282 282 281 281 280 278 280 280 279
301 301 300 300 299 298 297 295 291 291 291 291 291 290 290 289 288 289 290 291 291 290 290 288 287 286 288 287 285 285 285 283 282 284 283 282 282 282 281 281 280 279 278 278
299 299 299 298 296 294 292 291 290 290 290 289 289 289 290 289 289 288 289 289 285 285 287 286 284 285 287 287 286 285 285 282 280 282 283 282 282 281 280 280 279 279 277 275
297 295 295 293 291 290 290 291 290 289 289 289 288 288 288 286 285 286 286 286 285 285 286 286 285 286 287 287 285 285 284 283 282 282 282 282 281 281 281 280 279 279 278 274
299 298 294 292 290 290 291 291 289 289 288 289 285 282 281 281 283 284 284 285 285 285 286 286 285 285 285 286 284 283 282 282 282 282 282 282 281 281 280 280 279 279 278 276
294 292 291 291 291 291 291 290 289 288 285 285 284 284 284 284 284 285 285 284 284 284 286 286 285 284 285 284 282 282 283 282 282 282 282 282 281 281 281 281 280 279 278 278
291 291 291 290 290 289 287 288 286 287 288 286 282 283 284 283 283 285 284 283 284 286 287 287 286 284 283 283 281 282 283 283 282 282 282 282 282 281 281 280 280 280 280 279
289 290 288 289 288 287 286 285 284 285 287 283 284 284 283 284 285 285 284 283 285 287 287 287 286 285 285 285 283 283 283 283 282 282 282 282 282 282 281 281 281 281 280 280
290 288 285 285 286 287 288 288 288 285 285 284 282 284 285 284 285 285 285 285 287 287 287 286 287 286 286 281 284 284 283 282 281 283 282 283 282 282 281 281 280 281 280 280
289 288 287 285 284 288 289 287 286 285 285 285 285 285 285 285 285 284 283 287 286 287 286 286 287 286 285 284 284 283 283 282 282 282 282 283 282 282 281 281 280 280 279 279
289 288 288 288 287 287 286 288 288 288 285 285 284 286 286 285 286 287 287 287 286 286 286 286 286 285 284 284 283 282 282 282 283 283 283 283 283 282 281 281 280 281 280 280
287 288 288 286 287 288 288 289 289 288 287 288 287 287 287 288 286 286 286 286 286 285 285 286 285 285 285 284 283 283 283 283 282 282 283 282 282 282 282 283 282 281 281 281
288 289 289 289 289 289 290 290 289 290 289 287 287 286 287 287 287 287 286 286 286 286 285 286 285 285 285 284 283 283 284 283 282 282 282 281 281 281 281 281 282 281 281 281
289 287 290 290 291 291 290 290 289 288 288 286 285 286 286 286 286 286 286 286 285 285 285 286 286 285 285 284 284 284 284 284 283 283 282 281 281 280 280 280 280 280 280 280

GFSNGP_sfc_thetae_015.txt.gz
Theta_e
293 293 293 292 291 291 289 289 283 286 290 295 295 296 297 299 299 299 298 298 297 296 295 295 295 296 296 295 296 298 298 296 296 296 295 293 295 294 293 291 288 288 287 287
286 294 292 289 292 292 291 292 291 291 290 298 298 298 297 298 298 296 296 296 296 297 296 296 295 293 293 293 295 297 296 296 296 295 295 295 294 294 292 288 287 287 286 286
282 289 287 281 289 292 293 294 292 285 292 297 295 296 295 295 296 295 295 295 295 295 296 294 292 293 291 291 292 291 291 295 295 295 294 293 295 294 289 285 285 286 284 284
278 280 273 291 297 296 293 294 295 296 296 296 295 295 296 296 294 294 294 295 295 295 292 292 291 290 290 290 290 290 291 293 293 293 292 293 293 291 286 286 285 283 283 283
279 278 284 292 295 292 290 289 298 296 296 296 297 296 293 296 294 293 294 295 293 291 291 289 289 289 289 289 288 289 291 291 291 292 291 291 291 287 287 286 283 283 283 283
278 273 271 287 296 299 297 282 298 297 295 294 294 283 289 294 295 294 292 291 290 290 289 288 288 289 288 287 287 289 291 292 292 291 290 289 288 288 286 284 284 283 283 282
283 272 281 294 298 299 282 284 297 297 295 294 290 291 294 295 292 292 291 290 290 289 287 287 288 289 287 287 287 290 291 291 290 291 290 290 289 287 284 281 282 279 279 280
284 280 276 298 296 287 292 298 298 296 295 295 295 296 297 292 292 291 289 288 289 287 287 288 289 288 287 287 289 290 289 289 288 288 288 289 285 283 281 280 279 277 270 273
286 284 294 298 296 299 299 297 296 296 298 296 295 296 293 291 291 290 287 287 288 287 287 288 288 289 287 288 289 288 287 286 286 287 287 286 282 280 280 279 276 276 277 271
289 295 297 297 301 301 300 298 298 300 300 299 296 292 291 289 288 288 287 286 287 287 287 287 288 289 288 288 288 287 285 285 284 284 284 283 282 281 279 275 274 277 275 273
289 296 297 299 299 298 298 300 300 299 300 294 292 290 289 288 287 287 286 287 287 286 287 287 288 288 288 287 287 285 285 284 282 282 281 282 281 279 279 277 276 274 272 272
286 296 296 296 298 300 300 299 300 299 294 293 291 288 288 287 287 286 286 287 287 288 288 288 288 288 289 289 286 284 282 281 280 279 278 280 280 279 282 281 281 280 279 271
295 301 300 299 299 301 299 299 299 294 293 289 289 288 287 286 287 287 287 287 287 287 288 287 286 286 287 285 284 282 282 282 279 279 279 277 276 276 273 279 283 283 281 280
301 298 295 297 296 299 297 296 295 293 290 289 287 287 287 286 287 286 286 287 288 287 287 286 286 286 287 286 284 280 281 280 278 276 275 275 279 280 279 277 271 276 280 281
298 299 298 298 298 297 296 291 288 287 287 287 287 287 286 285 285 285 286 287 286 285 285 285 286 287 287 284 285 283 282 279 276 273 273 280 279 279 279 278 278 274 273 275
297 298 298 297 297 292 289 288 287 286 286 286 286 285 287 286 285 285 285 285 282 283 283 280 284 285 286 285 285 283 280 278 276 274 275 280 279 278 278 278 277 276 272 269
295 294 296 291 288 287 287 288 287 286 286 286 284 284 285 284 281 282 282 282 280 281 283 283 285 288 285 286 285 283 278 277 275 276 277 279 279 278 278 277 277 275 271 268
296 293 291 289 287 287 287 286 285 284 284 284 280 275 274 273 279 280 279 282 284 284 284 284 285 286 285 285 284 279 275 275 274 274 279 279 279 279 278 276 277 276 273 270
292 290 290 290 289 286 285 284 285 284 280 278 276 278 277 277 280 281 283 283 283 282 283 285 285 285 285 282 280 275 273 271 276 279 280 277 278 278 278 276 276 277 276 269
289 289 288 288 287 284 283 284 280 284 284 280 274 274 277 275 280 283 283 283 283 284 285 284 286 285 284 282 278 277 272 270 274 278 272 272 277 279 278 279 276 271 273 275
285 286 284 284 283 282 280 280 277 281 283 277 278 279 281 279 278 282 282 282 282 280 282 286 285 285 285 282 277 275 273 271 271 272 271 274 273 276 280 279 278 270 269 271
285 284 281 280 281 283 283 283 283 279 282 284 278 277 275 278 278 278 284 282 283 285 283 285 284 285 285 282 283 281 276 275 275 278 271 274 273 276 276 278 278 278 272 271
285 285 284 281 279 284 283 282 281 282 281 280 280 283 280 281 281 281 281 282 283 285 285 285 285 285 285 285 283 282 280 275 273 275 279 280 280 278 279 279 279 279 278 278
285 285 284 284 281 281 282 285 284 284 281 281 285 283 278 279 282 282 285 285 285 285 285 285 285 285 284 285 283 282 280 277 280 275 275 280 280 280 277 277 280 279 279 279
282 284 284 280 283 283 284 285 284 283 282 283 282 281 280 279 280 284 286 286 285 284 285 285 285 285 285 285 283 282 281 280 280 280 279 278 281 281 279 276 279 280 280 279
284 283 283 285 284 284 284 283 283 283 280 276 276 275 275 276 282 281 284 285 286 285 285 285 285 285 285 285 284 283 282 282 282 282 282 280 280 280 280 279 280 280 280 280
284 281 282 283 283 283 282 280 278 279 279 276 279 277 278 284 280 280 284 285 285 285 285 285 285 285 285 285 285 284 283 283 283 283 282 280 279 278 279 279 279 279 278 278

GFSNGP_sfc_thetae_021.txt.gz
Theta_e
288 289 289 287 287 288 287 286 282 284 286 289 292 292 293 294 294 293 293 293 294 293 294 293 291 289 289 289 289 290 290 291 291 292 292 291 291 291 290 292 293 290 288 286
285 289 289 285 287 287 287 287 288 287 287 293 294 294 293 293 293 292 293 294 294 293 292 291 288 287 288 288 288 288 290 291 292 292 292 291 291 290 290 291 289 287 286 284
278 284 284 278 285 289 289 289 289 284 289 293 292 293 293 292 293 292 293 292 292 292 291 288 287 287 286 287 288 287 290 290 291 290 289 289 290 289 288 288 288 283 283 283
275 277 271 285 291 292 290 290 292 291 292 293 292 292 293 293 292 292 292 292 291 289 288 287 286 286 286 286 286 287 289 289 289 289 288 288 288 287 285 285 283 281 281 281
274 275 281 286 291 289 288 287 293 292 292 292 292 291 289 293 292 291 292 290 288 287 287 286 285 286 285 285 285 288 288 288 288 288 288 288 286 286 284 284 281 281 281 280
277 271 270 282 291 295 292 282 294 293 292 291 290 283 288 292 293 293 290 287 286 286 286 285 285 285 285 285 286 286 287 288 287 287 286 286 286 285 285 282 282 281 280 279
269 271 279 287 294 294 282 282 294 295 294 292 289 290 292 293 292 290 287 287 286 285 285 285 285 286 285 285 285 287 287 287 286 285 284 284 284 283 281 281 280 278 277 277
278 272 276 292 292 287 290 291 296 295 294 294 293 294 295 292 289 287 286 285 285 285 284 285 286 286 285 284 286 287 286 285 284 284 283 283 280 280 280 279 278 276 266 271
284 284 291 293 292 294 295 295 295 294 295 295 295 294 295 288 287 286 284 284 285 284 284 285 285 286 284 285 286 285 285 284 283 283 282 281 279 278 278 277 274 274 275 270
286 291 292 293 295 296 296 295 295 296 296 296 294 295 289 286 285 284 283 283 284 284 284 284 285 286 285 286 286 284 284 283 282 282 281 281 280 280 278 274 272 276 273 272
286 291 293 296 296 297 297 296 297 298 298 297 296 287 287 285 284 284 283 284 284 284 284 284 285 285 285 285 285 283 284 284 282 281 280 279 279 279 279 278 276 274 273 271
286 292 293 293 296 297 296 295 297 297 294 291 288 286 285 283 284 284 283 284 283 284 284 284 284 283 284 285 284 284 283 283 282 280 279 279 279 279 282 281 281 283 282 271
293 295 295 295 295 297 297 298 298 292 289 287 286 285 284 284 284 285 284 283 283 283 284 283 282 282 284 283 283 283 283 284 283 281 280 278 276 277 276 277 281 282 282 282
298 296 292 294 294 298 299 295 291 289 288 287 286 286 284 284 284 284 283 283 284 284 283 282 282 283 284 283 283 284 283 282 282 280 281 278 275 274 272 272 269 270 277 280
297 296 296 296 297 295 290 288 287 286 286 285 286 285 285 283 283 283 283 283 283 282 282 283 283 283 283 284 285 284 284 282 280 279 273 274 274 271 272 270 270 270 268 272
295 295 295 294 289 289 289 288 286 285 285 285 284 284 284 284 283 283 283 283 280 280 281 283 282 282 284 285 285 285 284 283 279 278 275 277 278 275 275 276 270 271 267 267
292 291 289 288 288 289 289 289 287 286 285 284 284 283 283 281 279 282 282 280 275 276 279 282 280 284 284 285 285 285 284 283 280 279 279 279 276 276 277 274 276 271 268 266
293 291 291 289 287 286 285 286 285 284 284 284 279 274 273 273 277 278 277 276 275 276 280 281 282 284 284 285 285 284 283 281 280 280 280 273 272 275 273 273 274 270 269 267
289 288 288 287 287 285 284 283 283 283 279 277 276 276 274 274 277 278 276 273 274 277 281 280 281 282 284 282 283 283 283 281 279 275 273 270 267 269 269 272 276 272 272 270
289 289 288 286 285 284 283 284 281 283 283 279 272 276 280 280 273 274 273 275 279 282 281 281 281 283 282 281 283 283 283 280 276 273 268 268 266 267 267 271 273 274 272 267
286 285 284 283 283 281 281 280 279 281 282 274 274 280 282 281 275 274 276 277 281 278 280 279 283 284 284 284 284 284 283 279 275 273 271 271 270 269 269 270 277 276 271 273
283 283 280 279 280 281 282 281 281 276 276 275 275 282 283 281 279 275 275 278 281 277 279 280 282 282 284 283 284 284 283 280 279 279 277 275 275 274 274 274 274 275 276 274
284 284 283 279 278 282 281 280 276 275 276 277 277 278 278 280 280 277 281 280 278 277 278 279 279 279 282 284 284 284 283 283 282 280 279 279 278 277 277 277 276 277 277 276
283 283 283 283 278 278 280 283 283 282 277 278 278 278 278 281 283 277 280 279 276 274 275 278 280 283 282 284 284 284 283 282 282 282 282 280 281 280 279 278 277 278 279 276
282 283 283 278 281 282 283 283 282 281 280 281 280 280 278 283 282 276 279 277 273 280 278 278 280 282 282 282 283 284 282 283 283 283 282 281 280 280 280 280 280 280 279 279
283 281 281 283 282 281 282 281 280 280 284 282 280 276 278 280 282 283 281 275 277 279 278 281 281 281 281 281 281 281 282 283 283 284 283 282 282 281 281 281 281 280 279 278
281 278 280 280 281 281 281 280 281 282 284 280 281 281 280 280 283 282 280 279 273 275 275 276 273 271 272 271 271 272 274 278 281 283 284 284 282 282 282 282 281 280 278 277

GFSNGP_sfc_thetae_027.txt.gz
Theta_e
289 290 290 289 290 290 289 290 288 289 288 292 295 298 298 298 298 297 296 296 297 297 297 297 297 296 293 294 294 294 294 293 295 296 296 295 295 294 295 295 295 293 290 289
288 289 289 288 289 289 290 290 290 289 289 295 296 297 296 296 297 296 296 296 296 297 297 297 296 293 292 293 293 293 293 292 295 295 294 294 294 294 294 293 293 293 289 289
283 285 285 283 288 290 290 291 292 288 294 296 295 295 297 297 297 296 296 296 296 296 296 297 294 292 292 292 292 291 291 292 293 293 293 293 292 292 291 292 292 290 288 287
283 281 280 289 293 292 291 292 292 292 294 296 296 297 297 298 297 297 297 296 296 296 295 293 292 292 291 291 290 290 291 292 292 292 291 291 291 290 290 292 291 290 287 286
283 281 284 288 288 290 290 291 295 293 294 295 295 296 297 298 299 299 298 298 297 296 293 292 291 290 290 289 289 291 291 291 292 291 290 290 289 289 290 290 290 288 287 285
280 281 279 288 290 296 295 288 295 296 295 294 295 293 297 298 298 298 298 296 292 290 290 290 290 289 289 289 289 289 290 290 291 291 290 289 289 288 288 289 288 287 285 284
277 283 284 290 293 296 287 289 294 297 297 294 295 300 298 298 297 297 294 290 289 289 290 289 289 289 289 289 288 289 290 290 290 290 289 289 288 287 287 287 286 284 283 283
279 280 282 292 295 292 296 296 296 297 297 297 299 296 296 295 294 291 288 288 289 288 288 289 289 289 288 288 289 289 290 289 289 289 288 287 287 287 286 286 284 283 281 282
287 289 294 294 297 298 297 296 297 298 299 298 296 296 294 292 289 288 288 287 288 288 288 288 289 289 287 288 289 288 288 288 288 288 288 288 286 286 285 284 283 283 282 282
290 293 292 294 296 296 298 298 299 300 300 299 297 297 290 288 288 285 286 287 287 288 287 287 288 288 288 288 287 287 287 288 288 287 287 288 287 285 284 284 283 282 282 282
289 293 293 295 296 299 299 298 299 300 300 299 298 294 289 287 286 286 287 287 288 287 286 286 287 288 288 287 287 286 286 287 287 287 287 286 286 285 284 285 284 284 283 282
290 295 296 296 297 299 299 299 300 299 295 295 293 289 288 287 287 287 287 286 286 286 286 286 287 287 286 286 286 285 285 286 287 287 286 286 285 285 283 283 282 283 283 281
295 297 297 298 298 300 299 299 298 295 293 289 290 291 290 287 286 286 286 286 286 286 286 286 286 285 286 286 285 285 285 285 286 285 286 285 284 284 283 285 282 283 284 284
299 298 297 297 296 296 292 290 290 290 291 290 289 288 286 286 286 286 286 286 286 286 286 286 285 285 286 286 285 285 285 285 286 287 287 286 285 285 284 283 282 283 282 282
296 298 296 291 290 289 291 291 289 288 288 286 286 286 286 286 285 286 287 286 286 286 286 285 284 285 286 286 285 285 285 286 285 286 285 285 285 284 283 282 282 281 282 279
290 289 290 289 290 290 289 287 285 285 285 285 286 286 286 286 286 286 286 286 284 284 285 283 281 284 286 286 286 286 286 285 285 285 284 284 284 282 282 282 282 282 281 281
290 287 287 286 286 287 287 288 287 287 287 288 286 285 286 285 283 284 285 284 283 282 282 281 282 286 285 286 286 286 286 285 284 284 284 284 283 283 283 282 282 282 282 283
289 288 288 288 287 286 287 287 288 287 286 286 283 282 282 281 282 282 282 282 279 280 282 283 284 284 284 285 286 286 285 285 284 284 284 284 283 283 283 282 282 281 281 282
289 288 289 289 289 289 287 285 285 284 283 282 282 283 282 281 281 281 280 278 279 281 284 285 283 283 284 285 284 286 285 285 284 283 284 284 283 283 282 282 281 281 281 281
288 288 287 286 286 285 284 285 284 284 285 283 281 280 281 282 280 282 282 280 282 284 286 285 284 283 284 284 282 285 285 284 284 283 284 283 282 282 281 279 280 281 281 281
284 285 283 283 283 282 280 280 279 283 283 277 279 281 280 281 284 283 282 281 285 284 284 282 283 283 284 283 283 283 283 283 283 284 284 284 282 281 280 281 281 281 280 281
285 284 280 280 281 282 283 283 283 280 280 279 278 276 276 280 281 281 282 282 286 280 282 284 284 283 282 282 283 283 282 283 283 283 284 284 282 282 282 282 282 282 282 282
285 284 283 281 280 282 282 282 280 280 279 280 280 281 281 282 282 280 282 285 283 283 283 284 283 279 281 283 284 283 282 282 282 283 283 283 283 283 283 283 283 283 283 283
284 284 283 282 281 281 280 281 280 281 279 280 281 279 281 281 282 283 284 283 283 283 283 284 283 281 278 283 282 282 281 279 279 279 279 280 282 284 284 284 283 283 283 283
281 281 281 279 278 278 278 278 278 279 279 279 280 281 282 283 281 282 283 283 283 283 284 283 280 277 278 276 275 274 274 274 274 274 275 276 277 279 281 283 284 283 284 284
280 279 279 278 277 277 275 275 274 275 275 275 276 277 278 279 281 282 283 283 284 284 284 281 276 274 273 272 272 271 272 271 270 270 270 270 271 271 272 273 275 281 284 284
277 276 276 276 275 274 272 271 271 271 272 272 272 274 275 275 276 278 279 280 281 281 277 274 272 271 270 270 270 270 269 269 267 267 267 267 267 269 269 270 272 277 282 284

GFSNGP_sfc_thetae_030.txt.gz
Theta_e
295 295 295 295 296 297 295 296 292 293 294 297 299 301 304 307 308 307 306 306 306 306 305 304 303 303 302 299 300 299 297 297 297 299 299 299 298 297 297 297 297 297 295 295
293 294 294 293 296 296 297 297 296 296 295 302 303 303 303 304 305 305 305 305 305 305 304 302 302 302 298 299 298 297 296 297 297 298 298 297 297 296 296 295 296 295 294 293
289 291 291 289 294 296 296 298 297 294 299 301 300 301 303 304 305 305 305 305 304 304 303 302 302 298 299 297 297 296 296 295 296 297 296 295 295 294 294 294 295 294 293 293
291 287 285 294 297 297 297 298 300 299 300 300 301 304 304 306 306 305 306 305 305 304 302 302 300 298 297 296 295 295 294 294 295 295 294 294 294 293 294 294 294 293 293 292
290 288 291 293 293 293 294 294 300 299 300 300 302 303 304 306 307 307 307 307 306 304 301 299 297 297 295 295 295 294 293 294 294 294 293 293 293 293 293 292 293 292 292 291
288 289 287 293 296 299 299 291 299 300 301 301 302 298 299 306 306 306 307 307 303 300 296 296 296 295 294 294 293 292 293 293 294 294 293 293 293 292 293 292 291 291 291 291
289 290 292 296 296 300 289 292 302 302 303 303 301 303 305 306 306 307 306 302 299 297 295 294 294 294 293 293 292 292 293 294 293 293 293 293 293 293 292 291 291 290 288 289
289 288 287 298 299 294 300 303 302 303 305 305 305 304 303 304 304 303 300 295 294 293 293 295 294 294 291 290 291 292 293 293 292 292 292 291 292 292 292 291 289 288 286 287
295 296 299 301 303 304 304 303 303 304 305 305 304 303 302 301 300 297 294 292 295 294 292 293 293 292 289 291 292 291 291 291 291 292 291 292 291 291 290 289 288 288 286 286
294 298 299 301 303 303 303 303 305 305 305 305 304 305 301 298 296 294 293 290 291 291 291 291 291 290 291 291 291 291 290 290 291 290 290 291 290 288 288 288 288 286 286 284
296 299 300 301 302 303 304 306 306 306 305 305 305 303 299 295 293 292 289 288 290 291 290 289 290 290 291 290 291 289 289 289 290 290 290 290 289 288 288 289 288 286 285 285
296 299 299 301 304 304 304 304 305 305 303 302 303 299 296 293 290 289 288 288 289 289 289 289 289 289 290 291 289 288 288 288 289 289 289 288 288 287 286 284 284 284 284 284
300 303 303 304 304 304 302 300 300 299 298 295 295 293 290 287 287 287 289 288 288 288 289 289 289 289 289 290 289 287 287 288 289 287 288 287 287 286 285 286 284 284 284 284
302 303 301 298 296 297 297 297 296 294 292 290 289 289 288 288 288 288 289 289 289 289 289 289 288 289 290 289 288 288 288 285 288 287 287 287 287 287 287 285 284 285 284 284
296 299 297 296 295 293 293 292 289 288 287 287 288 288 288 287 288 289 289 289 288 288 288 289 289 288 289 290 288 288 288 288 288 287 288 287 287 286 286 285 284 284 285 283
295 296 293 291 290 290 289 288 288 287 289 289 289 289 289 289 289 289 289 289 286 287 290 288 287 288 290 290 290 290 289 286 286 287 287 285 285 285 285 285 285 285 284 284
290 287 287 286 287 287 288 289 290 291 291 290 290 288 288 288 287 288 289 288 287 286 287 287 286 290 290 290 290 290 289 288 286 287 286 286 286 285 285 285 284 285 284 286
291 289 290 290 289 287 290 291 291 290 288 288 287 286 285 285 286 286 287 287 285 285 286 288 289 290 289 290 290 288 288 288 287 287 287 286 285 286 286 285 284 284 285 286
293 292 292 292 292 291 289 287 287 287 286 286 285 286 285 285 286 286 286 283 283 285 289 291 286 286 288 288 286 287 288 286 285 286 286 285 284 285 285 285 285 285 285 285
290 290 289 288 288 288 287 288 287 288 288 286 285 285 285 286 286 285 285 284 286 288 289 288 288 288 288 288 285 287 287 285 284 284 285 286 286 285 285 284 284 285 285 285
288 288 287 287 286 286 285 285 286 286 286 284 284 284 283 284 285 284 285 285 288 289 288 286 288 289 289 288 287 286 285 284 284 284 284 285 285 285 285 284 284 284 284 284
289 286 285 285 286 286 286 286 284 283 282 282 282 282 283 283 283 283 284 284 287 285 286 285 286 286 287 284 286 285 285 284 285 285 284 284 284 284 284 284 284 284 285 285
288 287 286 285 285 286 285 283 282 282 281 281 281 281 281 283 283 281 280 285 285 284 284 284 284 284 284 284 285 285 284 284 284 283 283 282 282 283 284 284 285 285 285 285
287 286 285 284 283 282 280 280 281 281 280 280 281 280 280 280 281 282 284 284 283 283 284 285 284 284 283 284 285 283 282 280 280 279 279 278 279 279 279 281 282 283 284 285
282 282 282 281 281 280 279 279 279 279 278 278 278 279 279 280 279 280 281 282 281 282 283 283 282 281 282 281 280 279 278 278 276 276 275 275 275 275 276 276 276 277 279 282
282 282 281 280 279 278 278 277 276 277 276 276 277 277 277 278 278 278 279 278 279 278 278 278 276 276 276 275 275 274 275 274 273 272 272 272 272 272 273 273 273 274 276 278
279 278 279 279 277 276 275 274 274 274 275 274 273 275 275 276 276 275 274 274 274 274 274 274 273 271 271 271 271 271 271 271 269 268 269 269 269 269 270 270 271 272 274 276

GFSNGP_sfc_thetae_033.txt.gz
Theta_e
300 299 299 298 298 299 297 297 294 296 296 299 301 302 304 306 308 309 311 312 313 313 313 312 310 309 307 306 305 302 302 300 300 300 300 300 299 299 299 298 297 297 297 296
297 300 298 296 299 298 298 298 298 298 297 304 305 305 304 305 306 307 309 310 311 312 312 310 309 307 305 303 302 302 300 299 299 299 298 298 298 298 297 296 296 296 296 295
291 295 295 291 296 298 299 300 299 296 300 304 303 303 304 305 306 306 308 310 311 311 311 310 308 307 303 302 302 300 298 298 298 297 297 297 296 296 295 295 296 295 295 294
292 289 284 295 300 299 298 300 301 301 301 303 302 305 306 307 307 307 308 309 310 311 310 309 308 305 303 302 299 297 297 297 296 296 295 296 295 295 295 295 295 294 294 294
291 289 293 295 297 296 295 295 301 299 301 302 304 305 305 308 307 307 308 310 311 311 310 309 305 302 300 298 297 297 296 295 295 295 294 294 293 294 295 294 294 293 293 293
291 288 285 296 299 301 301 292 301 301 301 301 303 298 302 307 307 307 309 310 310 310 308 305 302 300 297 296 296 295 294 294 294 295 294 293 294 294 294 294 293 292 292 292
292 291 294 300 300 302 291 295 303 303 303 303 302 304 308 309 308 309 310 310 310 307 304 301 300 298 297 296 294 294 294 294 294 294 294 294 294 293 293 292 292 292 290 291
295 289 287 301 301 295 302 304 304 305 305 305 307 307 308 307 307 308 307 306 304 301 299 298 298 296 294 294 293 293 293 293 293 293 293 293 292 292 293 292 291 290 289 289
298 298 302 303 302 305 305 304 305 305 306 306 306 306 307 306 306 305 304 300 298 297 295 295 294 294 291 292 292 292 292 291 292 293 293 292 291 292 291 291 290 289 288 287
297 300 301 302 304 305 306 306 307 307 307 307 306 307 307 305 303 300 298 296 296 295 292 292 293 292 292 292 292 291 290 291 292 291 291 292 291 291 290 289 289 288 287 287
299 301 302 303 305 306 306 308 308 309 309 307 307 307 306 301 298 296 293 291 291 291 290 290 291 291 292 292 291 290 290 290 290 290 291 290 290 291 290 290 289 288 288 288
298 302 302 303 306 307 306 304 305 305 304 303 304 301 298 294 292 290 289 289 290 291 290 290 290 290 291 292 291 289 288 289 290 290 290 290 289 289 288 286 286 285 285 285
302 306 305 305 302 302 300 301 300 299 298 295 295 293 291 289 289 289 290 290 290 290 290 290 290 290 291 291 290 289 288 288 289 288 289 288 288 288 286 289 286 285 285 284
303 305 301 300 298 300 297 295 294 292 291 290 290 290 289 288 289 289 290 291 291 290 290 291 290 290 292 292 291 289 289 286 289 290 290 288 287 287 288 287 286 287 286 285
300 301 300 299 298 295 294 292 290 289 289 288 289 289 289 289 290 291 292 291 291 290 290 291 291 291 292 292 290 290 290 290 291 291 290 288 288 286 287 286 286 286 288 285
296 296 295 293 291 290 290 289 289 289 291 292 291 291 292 292 291 291 291 292 289 289 290 287 288 291 293 292 291 292 292 288 287 290 289 288 288 286 286 286 286 286 286 286
289 287 288 289 291 292 293 294 293 292 293 292 290 290 290 289 289 290 290 290 289 286 288 288 288 292 292 293 292 292 292 291 287 289 289 288 287 287 286 286 286 286 286 287
293 294 294 294 291 291 292 292 292 290 289 289 287 286 285 284 286 288 289 289 286 286 289 291 292 292 291 292 292 292 291 290 289 289 289 288 287 287 287 286 286 285 286 287
295 293 294 293 293 291 290 289 289 289 287 286 284 284 285 285 288 287 287 285 285 286 290 291 287 288 290 290 288 290 288 287 287 287 287 286 287 287 286 286 286 286 286 286
292 292 291 290 290 290 288 289 291 289 289 286 285 285 285 285 285 285 285 283 286 288 289 287 286 287 288 289 287 289 288 287 286 285 285 285 285 285 286 285 286 286 285 285
290 289 288 288 287 287 286 286 286 286 286 284 283 282 282 283 285 284 283 282 285 287 285 284 285 285 286 286 287 287 286 286 285 285 285 285 285 285 285 285 285 285 285 285
291 288 287 288 288 288 287 286 284 283 282 282 282 282 281 282 282 283 284 283 285 283 285 285 286 285 286 284 286 285 285 286 286 285 285 285 284 283 283 284 284 284 285 285
290 288 287 286 287 287 285 283 284 282 281 280 280 280 279 280 281 280 279 282 282 282 283 284 283 282 282 284 285 285 284 284 285 284 282 281 281 281 281 280 280 281 282 283
290 289 287 286 284 283 282 282 282 282 282 281 281 280 279 279 280 281 281 280 280 279 280 281 279 277 279 282 281 281 281 281 281 280 279 278 278 278 278 278 277 277 278 279
286 285 284 283 283 283 281 281 281 280 280 279 279 280 279 280 278 278 279 278 277 277 277 277 275 273 276 277 277 276 277 276 275 275 275 275 275 274 275 275 274 275 275 277
286 285 284 282 281 281 280 279 278 279 278 278 278 278 279 279 278 277 276 276 275 275 275 275 274 273 272 272 272 272 272 272 271 270 271 271 271 272 271 271 271 272 273 275
281 281 282 282 280 278 278 277 277 276 277 276 275 277 277 277 276 275 274 275 274 273 273 273 273 271 270 270 270 270 270 269 269 268 268 268 269 269 269 268 269 270 271 273

GFSNGP_sfc_thetae_036.txt.gz
Theta_e
298 300 299 299 298 298 296 297 293 296 295 299 301 303 304 306 308 307 308 312 312 314 314 314 313 312 311 307 306 305 304 300 300 301 300 300 299 298 298 297 296 296 296 295
297 300 300 296 298 299 298 298 297 297 296 303 305 305 304 304 304 305 306 309 312 313 314 314 313 310 309 306 305 302 302 300 300 300 298 298 297 297 297 296 296 295 294 294
293 296 294 289 296 298 298 300 299 294 300 304 302 302 303 305 305 306 306 307 310 311 312 313 312 309 307 304 302 302 300 299 298 298 297 297 296 296 295 294 294 293 293 293
294 289 284 295 301 299 297 298 300 300 300 301 302 304 305 306 306 306 308 308 308 310 312 312 312 308 305 302 302 299 297 297 298 297 296 295 295 294 294 294 293 292 291 292
290 289 293 295 297 296 295 295 300 298 300 301 302 304 304 308 307 306 306 307 308 310 311 311 308 304 302 301 297 296 296 296 296 295 294 294 294 293 293 293 292 291 291 291
293 289 285 297 299 302 301 292 301 301 301 301 302 297 301 307 308 308 308 308 308 310 310 307 303 302 298 296 295 294 293 293 294 294 293 292 293 293 293 292 292 291 290 290
291 291 294 300 301 302 291 295 303 303 303 303 301 304 308 308 307 308 308 308 308 306 303 300 299 298 295 295 293 294 294 294 293 294 293 293 293 292 291 290 290 288 287 287
295 287 285 302 300 294 303 306 304 304 305 305 306 307 307 308 307 307 305 304 302 297 296 296 296 295 293 291 293 293 293 292 292 292 292 292 291 290 290 290 288 287 285 285
297 297 304 304 303 305 306 304 305 306 306 306 306 305 306 306 305 304 300 297 297 295 294 294 293 292 290 291 292 293 292 291 291 291 292 291 290 289 288 288 286 285 285 285
300 300 301 303 304 306 306 306 307 307 307 308 305 306 306 303 299 296 296 294 294 293 291 291 292 291 292 292 292 291 290 290 290 290 289 290 290 289 288 286 285 284 285 285
299 301 303 305 306 306 306 307 306 307 303 302 304 300 295 293 291 291 291 291 291 290 290 290 292 291 292 292 292 290 290 289 289 289 289 289 289 289 286 286 286 284 285 285
300 303 303 302 303 304 302 301 301 300 296 296 295 292 291 289 289 289 289 291 290 291 291 291 291 291 291 292 291 289 288 288 287 287 287 288 288 288 288 286 286 286 286 283
303 305 305 302 301 299 297 297 297 295 295 292 292 291 290 289 289 289 290 290 290 290 291 291 290 290 291 292 290 288 287 287 286 286 286 286 285 284 283 286 287 286 286 286
303 304 299 301 295 296 294 293 293 293 292 291 291 291 290 289 290 290 291 291 291 290 290 290 290 290 292 292 291 288 288 286 286 287 287 287 286 286 285 284 283 284 286 285
300 301 299 298 296 294 294 293 291 290 290 290 291 290 291 290 290 291 292 291 291 290 290 290 288 288 291 292 290 289 288 288 288 288 287 286 285 285 284 284 283 283 284 283
297 297 297 294 292 292 292 292 290 290 291 291 291 290 290 290 290 290 291 290 287 286 287 284 285 288 291 292 291 290 290 287 286 288 287 287 286 285 284 284 284 283 283 283
291 289 290 290 291 291 292 292 292 290 290 289 287 287 288 287 287 288 289 288 286 284 285 286 287 291 290 291 290 289 289 289 287 287 286 286 286 286 285 285 284 283 284 284
294 294 294 293 291 291 290 291 289 289 287 287 284 284 283 283 285 285 285 285 285 285 286 288 285 286 287 288 288 287 287 287 286 286 286 286 285 285 284 284 284 283 283 283
294 293 293 293 292 291 289 289 288 287 285 284 283 283 284 284 283 283 283 281 281 282 285 286 284 284 284 285 284 284 284 285 285 285 285 285 284 283 283 283 283 284 284 283
292 292 291 290 290 289 287 288 287 288 286 283 280 279 280 279 279 279 281 281 283 282 282 283 283 283 283 284 283 283 283 282 283 283 284 284 283 283 283 281 282 284 285 284
290 289 288 287 286 285 284 284 283 283 283 279 279 278 277 279 280 279 280 280 281 280 281 280 281 281 280 278 279 281 281 282 282 283 283 284 284 282 282 282 282 283 283 284
289 287 285 286 286 286 285 284 283 280 280 277 276 275 275 278 278 279 278 279 280 278 278 279 279 275 274 274 279 280 280 280 282 282 282 283 282 280 279 279 278 278 279 279
288 287 287 286 285 285 283 282 280 279 277 276 276 277 278 278 279 277 276 278 278 276 277 277 275 271 271 275 275 276 275 276 275 276 277 277 278 277 276 276 276 275 275 275
289 288 287 286 284 283 282 281 282 282 278 279 277 276 278 277 278 279 278 276 274 274 275 275 273 271 270 272 272 272 272 272 270 271 272 273 273 273 273 273 272 272 273 273
286 286 285 284 284 282 281 280 281 280 279 279 279 279 278 279 277 276 276 276 275 274 274 274 273 270 271 270 270 270 269 270 269 268 269 269 269 269 269 269 269 269 270 270
286 285 282 281 280 280 279 278 278 278 277 277 277 277 278 278 277 276 275 274 274 273 273 272 272 271 270 269 269 268 268 267 267 267 267 266 267 267 267 267 267 268 268 268
281 282 282 281 279 278 277 277 276 275 276 275 274 275 277 276 275 274 272 273 272 272 271 271 271 270 269 268 268 267 267 266 266 266 265 264 265 264 265 265 266 267 267 268

GFSNGP_sfc_thetae_039.txt.gz
Theta_e
294 296 298 297 296 296 292 293 287 290 292 296 295 296 297 299 301 301 303 306 307 307 307 309 309 309 309 307 304 302 301 299 299 299 299 298 298 297 296 295 294 294 293 293
291 297 295 292 295 295 294 295 293 293 292 296 297 298 298 298 299 300 301 302 307 309 309 309 309 308 307 304 302 300 299 298 300 299 299 296 295 295 295 294 293 293 293 293
285 290 290 282 290 293 295 296 294 288 292 297 296 297 297 298 300 300 301 302 304 306 308 308 308 307 302 301 301 301 299 299 299 297 295 295 295 293 293 292 292 292 292 292
282 283 275 290 297 296 294 294 294 294 294 296 296 298 299 299 298 299 300 301 302 302 306 305 304 301 300 300 300 297 296 296 297 295 294 293 293 292 292 292 291 291 290 290
280 281 288 291 294 294 291 290 296 294 295 297 298 297 299 302 301 300 301 301 301 303 300 299 298 299 296 296 295 295 294 293 293 293 292 292 292 292 291 291 290 290 290 289
283 279 275 289 295 299 297 285 297 298 296 297 297 288 294 301 303 302 298 297 296 295 294 294 294 294 293 292 292 291 292 292 293 293 292 292 292 291 291 290 290 290 289 288
278 277 285 297 298 299 284 286 298 298 298 297 294 297 301 302 302 299 296 295 294 293 292 293 293 292 292 291 290 292 293 293 293 293 292 292 291 290 289 288 287 286 285 285
285 281 280 298 297 290 296 298 298 298 299 298 300 302 302 300 294 294 293 292 292 291 290 292 292 291 289 289 292 292 292 292 292 292 291 291 289 288 288 287 285 285 283 283
290 287 298 298 298 301 301 299 299 300 302 302 301 301 296 293 293 292 291 291 291 290 290 290 290 291 289 291 291 291 290 289 289 290 290 289 287 286 286 285 283 283 282 280
292 296 297 301 302 303 303 301 298 297 299 298 293 292 291 290 289 289 289 290 291 290 289 289 290 290 290 291 290 289 288 288 287 287 287 287 287 286 285 281 280 282 281 281
293 298 300 299 301 301 300 298 295 295 294 293 291 290 289 288 288 289 289 290 290 290 289 289 290 289 289 289 289 288 287 287 286 286 285 286 286 285 284 283 282 281 280 281
288 298 297 295 298 298 296 295 294 292 291 291 290 288 288 288 289 289 289 290 289 288 289 288 288 288 288 289 288 286 285 284 282 282 282 284 284 285 286 285 286 286 286 282
298 299 296 295 295 296 293 293 293 292 291 289 289 289 288 286 288 288 288 288 288 287 287 287 286 287 288 288 287 285 283 283 282 283 282 283 283 282 284 283 286 286 287 286
301 297 293 295 291 293 292 291 291 290 289 288 288 288 286 286 287 288 287 288 288 287 287 286 286 285 287 288 287 285 284 284 284 283 283 283 283 284 284 282 281 281 283 285
296 297 294 293 292 291 291 290 288 287 287 287 287 287 287 287 286 287 287 287 286 285 286 285 284 284 287 287 287 286 286 283 283 284 284 284 285 285 285 284 281 281 281 279
295 293 292 291 291 290 289 288 286 285 287 286 286 286 286 287 286 287 286 285 282 281 283 282 284 286 287 288 287 286 285 282 282 284 284 284 283 286 285 283 283 282 282 280
289 286 288 288 289 290 288 289 288 287 287 284 282 282 283 283 283 282 282 282 281 279 280 283 282 284 283 284 283 282 281 282 280 282 283 283 283 283 284 284 283 283 283 281
292 292 292 291 289 288 288 288 286 284 282 282 283 282 281 279 279 280 279 279 275 277 280 281 280 281 281 282 281 280 280 280 280 279 280 281 282 283 283 282 280 278 279 278
294 292 292 292 290 288 287 285 283 282 281 282 279 277 277 275 280 280 279 274 274 276 278 279 279 279 278 278 276 275 276 276 277 278 279 279 281 283 282 279 276 277 277 280
290 289 289 287 287 286 285 285 283 281 281 278 274 272 273 271 270 271 273 274 277 276 277 277 277 275 274 274 272 275 276 277 276 276 278 279 280 280 281 279 279 278 278 278
287 286 284 284 283 283 281 280 280 280 280 274 272 267 267 271 271 268 273 274 276 275 275 275 274 272 272 271 274 273 272 272 272 272 274 274 276 276 277 277 276 275 274 274
287 284 283 283 282 281 281 281 279 276 275 269 265 265 266 274 271 272 269 273 275 268 272 274 273 267 270 268 271 270 269 270 268 268 269 270 271 272 273 272 272 272 271 270
285 285 284 282 281 280 280 279 275 274 270 268 267 269 271 274 274 270 270 275 274 270 273 271 266 265 264 267 267 267 266 267 265 265 266 267 268 269 269 268 268 269 269 269
285 284 283 283 280 279 278 279 279 277 270 274 270 267 273 268 266 274 273 269 266 264 265 268 267 265 261 260 263 265 264 265 265 264 265 265 266 266 266 266 266 267 267 267
284 283 282 280 279 278 278 278 278 277 276 277 275 276 275 274 267 268 265 266 267 266 263 264 264 264 259 257 258 260 260 262 263 263 263 263 264 263 264 264 264 265 266 266
282 279 278 278 277 276 276 276 274 274 273 269 269 265 267 269 269 267 265 264 265 265 263 260 260 259 261 258 258 257 260 262 261 263 260 260 262 261 262 262 263 264 264 265
280 278 277 276 276 275 274 273 270 269 268 263 264 264 270 267 263 265 261 259 259 261 259 260 258 259 261 261 257 259 257 257 258 261 255 257 258 258 260 261 262 262 263 263

GFSNGP_sfc_thetae_042.txt.gz
Theta_e
292 294 295 294 294 294 291 290 285 289 289 293 293 293 295 297 298 301 303 305 305 304 304 306 308 310 308 306 303 302 301 300 301 300 297 297 296 295 295 293 293 292 292 293
288 293 292 290 292 292 293 292 292 291 290 294 295 295 296 296 298 298 299 303 306 305 306 307 307 308 307 304 302 301 299 298 299 300 297 296 294 295 295 294 293 292 292 293
284 288 288 282 289 291 292 293 293 287 291 294 294 295 294 295 297 297 298 299 303 306 306 307 308 307 303 300 300 299 299 299 297 295 294 294 294 293 292 291 291 291 291 291
281 281 275 290 295 294 291 291 292 292 293 294 295 296 297 296 296 297 298 299 299 300 300 299 298 299 299 299 296 296 296 296 293 292 292 293 293 292 292 292 291 290 290 290
280 280 286 290 292 290 290 289 293 292 294 294 297 297 297 299 297 296 295 294 294 294 293 294 295 296 293 292 292 292 291 292 292 292 292 293 293 293 292 290 289 288 289 289
281 277 275 287 293 296 295 284 295 295 295 296 295 288 293 297 294 293 292 293 292 292 292 292 291 292 291 290 290 290 291 293 294 294 294 293 291 289 289 288 288 288 287 287
276 276 282 292 296 297 283 284 296 296 296 295 293 295 294 293 292 292 291 291 292 290 289 290 291 291 289 290 290 292 293 293 293 292 291 290 289 288 287 286 285 284 284 284
282 277 279 297 295 289 292 295 297 297 297 297 295 293 292 292 291 290 290 290 290 290 290 291 291 291 290 290 292 293 293 291 290 289 289 289 286 285 285 284 283 283 279 282
287 286 295 297 296 298 299 298 298 299 300 299 292 291 291 290 290 290 289 288 290 289 289 290 290 290 288 289 289 289 288 287 287 287 287 287 284 284 283 282 280 281 281 280
291 295 297 298 300 300 298 295 295 296 295 294 291 290 289 288 288 288 290 289 290 289 288 288 289 289 288 289 288 287 286 286 286 285 285 284 284 284 283 279 280 282 281 281
292 295 297 297 297 294 294 294 293 293 292 291 290 288 288 288 288 289 289 289 289 289 287 287 287 287 287 287 287 286 285 285 284 284 283 283 284 284 283 283 282 282 280 280
287 297 294 293 294 296 293 292 292 290 289 290 289 287 287 287 287 288 288 288 287 286 286 285 286 286 286 287 286 285 284 283 282 282 281 282 283 283 286 285 285 286 286 282
295 297 294 293 293 293 291 291 291 289 289 287 288 288 287 285 285 286 286 285 285 285 285 285 284 284 286 285 285 284 283 283 283 282 282 282 283 282 282 285 286 286 286 286
295 294 291 292 289 291 290 289 290 288 288 288 287 286 285 285 285 284 284 285 285 284 284 284 283 284 286 286 285 283 283 282 281 281 282 282 284 284 284 283 282 284 286 285
294 295 292 291 290 288 289 289 287 286 285 284 285 285 285 284 284 284 284 284 283 282 283 284 284 282 283 283 282 281 281 281 281 280 280 280 281 282 283 284 284 284 284 281
291 291 290 288 287 287 287 286 284 283 284 284 284 284 285 285 283 282 282 281 280 280 283 281 279 280 281 282 280 280 280 279 278 279 279 278 279 279 279 281 282 283 283 280
287 285 287 286 287 287 287 287 286 284 283 281 281 283 282 281 280 280 280 280 277 279 279 278 277 279 280 278 276 275 275 276 275 277 277 278 277 277 278 279 280 282 283 280
290 290 290 289 288 287 286 285 284 282 282 283 281 277 276 277 279 279 278 276 274 275 277 277 277 276 275 275 275 275 274 275 275 276 276 275 276 278 279 279 281 281 281 276
291 291 291 290 289 287 285 283 282 282 281 279 278 277 276 275 278 277 276 272 272 273 274 277 276 273 273 273 273 274 273 272 271 272 272 272 273 275 275 274 277 279 279 278
290 290 289 288 287 284 282 281 281 281 279 276 274 274 275 271 269 271 274 273 273 274 276 275 273 272 272 271 270 271 269 269 268 267 268 268 269 270 271 271 271 272 272 272
286 286 284 284 283 283 282 280 279 279 277 273 273 271 270 272 271 269 272 273 274 273 274 273 272 270 270 268 269 267 265 266 264 264 265 265 266 267 267 267 268 268 269 270
285 283 282 282 282 281 281 280 279 277 274 271 268 268 269 274 270 271 268 272 274 266 271 272 271 263 266 263 268 263 265 265 263 263 263 263 263 264 264 265 265 266 267 267
284 283 282 281 280 280 279 278 275 274 272 270 269 269 272 274 273 268 268 273 273 267 271 267 263 260 260 258 258 256 257 258 260 259 261 261 261 262 262 262 263 264 265 265
284 283 282 281 280 279 277 277 278 276 272 273 269 266 273 269 265 272 272 266 262 260 260 261 260 260 258 254 254 254 255 254 254 258 258 257 260 259 259 260 261 263 263 263
283 283 281 280 279 278 279 278 277 277 276 275 274 274 274 273 266 267 263 262 264 262 260 259 259 258 255 253 252 252 253 252 252 257 252 254 257 257 257 259 259 261 261 262
281 279 279 278 277 277 276 276 273 274 272 268 268 261 264 268 267 266 261 260 262 261 258 255 254 254 253 256 253 252 253 255 252 256 251 252 254 255 255 257 257 259 259 260
277 276 276 275 276 275 274 272 270 268 266 262 263 261 267 264 260 262 256 255 255 255 254 254 253 254 254 254 257 255 252 251 251 252 248 248 250 251 254 256 257 258 258 259

GFSNGP_sfc_thetae_045.txt.gz
Theta_e
290 291 292 292 292 292 289 289 285 288 288 291 293 292 293 295 296 301 303 305 305 304 304 306 307 307 306 304 303 302 301 302 299 298 298 297 296 293 294 294 293 293 293 293
287 291 291 289 292 291 291 291 290 289 289 292 293 293 294 295 296 296 299 303 303 305 304 305 306 306 304 301 302 302 301 298 299 299 297 295 295 294 293 293 293 293 293 292
283 286 286 282 288 290 291 292 292 287 290 292 292 293 292 293 295 295 296 297 299 302 304 304 304 303 299 298 299 298 298 298 296 295 293 293 294 293 293 293 294 293 291 291
280 281 275 289 293 292 290 289 290 291 291 292 293 294 295 295 294 295 295 294 293 294 295 296 297 297 297 296 296 295 294 293 293 292 292 293 293 293 293 293 291 288 288 287
280 280 285 289 290 290 288 286 291 290 292 294 295 295 294 293 293 291 291 291 290 291 291 291 292 293 292 291 291 292 292 292 293 294 293 294 293 293 292 290 287 286 287 286
279 278 276 288 292 294 293 283 293 293 293 294 293 287 291 292 291 290 290 290 290 290 290 289 289 290 290 289 290 290 292 293 294 294 294 293 292 290 288 287 286 286 285 285
276 277 283 290 294 295 283 284 294 295 294 293 291 292 291 291 289 290 290 289 289 289 288 289 290 291 290 291 291 293 295 296 295 293 291 290 287 286 285 284 283 282 283 283
278 275 279 294 293 287 290 293 295 295 295 292 291 291 290 290 289 288 288 288 289 289 288 290 291 291 290 289 293 293 292 290 288 287 287 287 285 284 284 282 281 281 279 281
287 285 293 295 293 295 296 296 296 297 295 292 290 289 289 288 288 288 286 286 288 288 289 289 290 290 287 287 288 287 287 286 286 286 286 285 283 283 282 281 280 281 281 281
290 293 294 296 295 296 297 296 297 298 293 292 289 289 288 288 287 287 287 288 289 288 288 287 288 288 286 287 287 286 285 284 284 284 284 283 283 282 281 280 280 282 282 282
289 293 295 294 292 292 292 293 292 292 292 290 289 288 288 287 287 287 287 288 289 288 287 286 286 285 285 285 285 284 284 283 283 283 282 283 283 282 283 283 283 283 283 282
286 295 294 293 292 293 292 290 290 289 288 289 289 287 287 286 287 287 287 287 286 285 284 283 284 284 285 285 284 283 283 282 281 281 281 282 282 282 285 285 286 286 286 284
294 298 293 292 292 292 290 290 289 288 288 287 288 288 287 285 284 285 285 284 283 283 283 282 282 281 283 283 283 281 280 281 280 280 280 280 280 280 278 281 285 285 286 286
294 293 289 290 288 290 289 289 289 288 288 287 286 286 284 283 283 282 282 283 283 283 283 283 280 279 280 281 280 280 279 279 278 278 278 278 277 277 277 277 277 279 283 285
292 293 292 289 288 287 288 287 286 285 285 284 285 284 283 282 281 281 281 282 282 282 281 279 277 278 280 279 278 277 277 276 276 275 276 276 276 276 276 276 277 277 279 281
289 288 288 287 286 286 286 285 283 282 283 284 283 284 283 281 280 280 281 281 280 277 276 272 277 278 278 276 275 275 275 274 274 275 275 275 276 275 275 275 276 277 277 278
286 284 285 284 285 285 285 286 285 284 284 283 282 281 280 280 280 279 279 278 276 275 276 276 274 275 275 274 274 274 273 274 272 273 273 272 272 272 273 274 272 272 273 277
290 290 289 288 286 286 286 285 283 283 282 281 279 277 276 277 278 277 275 275 273 273 276 275 274 274 273 273 273 273 271 271 270 269 270 269 268 270 270 270 270 270 271 272
292 290 290 289 288 286 284 283 282 282 279 278 278 277 277 276 278 276 274 270 269 272 274 274 274 272 271 272 271 270 268 267 266 267 266 265 266 266 267 266 266 267 268 269
290 290 289 287 286 284 282 282 281 280 280 278 276 275 274 271 273 271 271 271 272 273 275 273 272 271 270 270 266 268 265 264 264 263 263 263 262 262 264 263 264 264 265 267
287 285 284 283 281 282 282 281 279 278 277 276 275 273 273 273 272 269 269 272 273 273 274 271 270 269 269 266 267 262 259 258 257 260 259 259 259 261 260 261 261 261 263 264
285 283 282 281 281 280 280 280 278 276 274 272 270 271 271 272 270 270 267 272 273 267 271 270 269 262 265 261 265 257 261 260 259 257 257 257 257 259 258 259 259 260 261 262
284 283 283 281 280 279 279 278 275 274 273 272 271 271 273 274 272 269 269 273 272 266 269 265 261 259 257 255 254 252 253 252 252 255 252 252 254 257 256 257 258 258 259 260
283 282 281 281 279 278 276 277 277 275 273 273 271 270 273 270 266 272 271 264 261 258 259 258 257 258 255 252 251 250 251 249 249 252 252 251 251 252 254 254 256 256 258 258
282 281 280 279 278 278 278 278 276 276 275 275 274 274 273 272 266 267 263 262 263 261 258 256 256 255 252 250 250 249 249 249 248 250 247 246 250 250 251 252 254 255 256 257
281 280 279 278 278 278 276 276 274 273 271 267 268 263 265 266 266 265 261 259 260 259 257 252 251 251 250 252 252 252 250 252 249 249 247 247 248 249 249 251 253 254 254 256
277 277 276 275 275 274 273 273 271 270 268 265 264 263 265 263 261 262 255 253 253 252 252 251 250 252 252 250 251 253 251 249 248 248 245 244 246 246 247 249 251 252 253 255

GFSNGP_sfc_thetae_048.txt.gz
Theta_e
288 290 291 291 291 290 288 288 285 288 287 291 291 291 292 293 296 298 301 304 305 305 305 306 307 306 305 303 303 303 301 300 299 300 298 296 295 295 295 294 293 293 294 295
286 289 289 288 290 290 289 288 288 288 288 292 291 291 292 294 296 297 298 299 300 302 303 304 305 304 303 300 300 301 299 297 297 297 296 294 293 293 293 293 294 295 294 294
283 286 286 282 288 289 289 290 291 286 290 291 290 292 291 292 294 295 294 294 295 295 297 299 300 299 297 297 298 297 296 296 294 294 293 293 294 294 294 294 295 294 294 292
280 281 276 288 291 291 290 290 290 289 289 291 291 291 291 291 293 291 291 290 290 291 292 293 294 294 294 294 293 292 292 293 293 294 293 294 294 294 294 294 293 292 289 288
280 280 284 287 289 289 288 287 290 289 291 292 293 293 290 291 290 289 289 289 288 289 289 289 290 291 291 291 291 291 292 293 294 294 294 294 294 294 294 292 289 287 286 286
279 277 276 286 291 293 292 283 292 292 292 292 292 285 289 289 289 288 288 288 287 288 288 289 289 290 290 289 291 291 292 293 294 295 295 294 292 290 288 286 286 285 284 284
275 276 283 291 292 293 283 285 292 294 294 292 290 289 288 288 288 288 287 287 288 288 287 287 289 291 290 291 291 294 295 294 293 292 290 289 287 286 285 284 283 282 283 282
278 276 281 292 291 287 290 291 293 293 293 292 288 288 288 288 287 287 286 287 287 287 287 288 289 290 288 289 290 290 290 289 287 287 286 286 284 283 283 282 281 281 279 281
287 287 293 293 291 293 293 293 293 294 293 292 289 288 288 286 286 285 285 285 287 287 287 287 287 288 287 287 287 286 285 284 284 284 284 283 282 282 282 281 280 280 281 281
289 292 293 295 295 295 295 295 296 294 293 292 288 288 287 286 285 285 285 285 286 286 285 285 286 286 286 286 285 284 283 283 282 282 282 282 282 282 280 279 279 281 282 282
289 292 292 294 292 293 292 293 292 292 291 290 289 287 286 285 285 285 285 286 286 285 284 284 285 284 284 283 283 282 282 282 281 281 280 280 280 280 281 280 280 281 281 281
289 294 293 293 292 292 292 290 291 289 288 288 288 286 286 285 285 285 284 285 284 284 284 283 281 280 281 281 281 280 280 280 279 278 277 278 278 278 281 281 282 282 283 281
295 297 292 291 290 291 289 289 289 288 288 286 286 287 286 284 282 284 283 284 283 282 281 280 278 279 279 280 280 279 278 278 277 277 277 276 276 276 274 277 279 280 280 281
294 293 289 290 288 289 288 288 288 287 287 286 285 285 283 282 282 282 283 283 283 282 280 278 278 278 278 277 278 276 276 275 274 274 274 274 273 275 274 274 274 274 277 279
291 292 292 289 288 287 287 287 285 284 284 284 284 283 282 281 281 280 281 282 280 277 277 277 277 276 276 276 275 275 275 273 274 272 273 273 273 272 272 272 273 272 272 273
288 288 288 287 285 285 286 285 284 283 283 283 283 283 282 281 280 280 281 281 277 275 276 272 274 274 275 275 274 274 274 273 272 272 271 270 270 269 271 270 270 270 269 270
285 284 285 285 285 284 284 285 285 285 284 284 282 281 281 280 279 278 276 276 275 275 275 274 273 274 274 274 273 272 271 271 269 269 269 268 267 268 267 268 266 267 267 268
290 289 288 287 285 284 284 285 285 285 284 282 280 279 278 277 277 276 275 274 274 273 274 273 273 273 272 272 272 270 268 268 267 267 267 265 265 266 265 264 264 264 264 266
290 288 288 287 287 286 284 283 283 282 280 279 279 277 277 276 277 275 274 271 271 273 273 273 273 271 270 271 269 268 266 263 263 264 263 261 260 261 262 261 262 261 262 263
289 289 289 287 285 284 282 282 281 280 280 278 276 276 276 274 274 272 272 271 272 273 274 272 271 270 269 269 266 266 263 258 262 259 257 259 254 254 256 258 260 259 259 260
286 285 284 283 282 282 282 281 280 279 278 277 276 275 275 274 272 271 271 271 272 273 273 271 270 269 268 266 266 259 256 254 254 256 254 252 250 253 252 252 255 257 257 259
284 282 281 281 281 280 280 280 279 277 276 274 274 273 273 272 271 270 270 272 273 269 271 270 269 263 264 261 264 256 260 257 255 253 251 250 249 249 251 250 253 255 256 257
282 282 281 280 279 278 278 277 276 275 274 273 273 273 273 273 272 270 269 272 272 267 269 266 263 259 257 254 253 251 252 251 250 251 248 246 246 246 248 251 253 253 254 255
282 282 280 280 279 277 275 276 276 275 274 274 272 272 273 270 267 272 271 266 263 261 260 259 258 259 255 252 250 249 249 248 247 247 249 248 244 244 247 247 250 252 253 253
281 280 280 279 278 277 277 276 275 275 275 275 274 274 273 272 267 268 265 265 264 262 259 257 256 255 251 249 248 249 248 247 246 246 245 244 245 245 246 247 248 249 252 252
280 279 278 279 278 277 277 276 274 273 272 270 270 268 267 267 267 265 263 261 261 260 258 253 252 250 249 250 249 249 251 252 247 247 245 244 243 246 245 247 247 249 250 251
276 276 275 274 274 274 274 274 273 271 270 269 268 267 266 265 263 262 257 255 254 253 252 252 250 251 250 248 249 250 251 249 246 247 243 242 242 242 244 245 247 248 250 251

GFSNGP_sfc_thetae_051.txt.gz
Theta_e
292 292 294 294 294 293 293 294 291 293 291 297 299 299 298 298 301 303 305 306 308 311 312 314 315 315 313 311 310 309 306 305 304 304 302 300 300 297 298 297 299 296 297 296
290 292 293 292 293 294 293 293 292 293 292 298 298 297 297 299 301 301 302 302 303 305 307 310 310 309 307 306 305 306 304 301 299 298 297 295 295 296 297 295 298 297 296 297
287 289 290 287 291 293 294 295 296 291 297 297 296 296 297 298 299 298 298 298 299 300 301 302 303 303 302 301 302 300 299 298 296 295 294 295 296 296 298 297 297 296 295 295
286 285 282 294 295 295 295 295 295 294 295 296 296 295 295 297 297 295 295 295 295 296 297 298 299 298 298 298 297 297 296 295 296 296 295 297 297 296 295 295 295 295 296 297
286 286 289 291 293 294 293 294 296 296 295 295 295 296 293 293 294 293 293 292 293 294 294 295 296 296 296 296 296 296 295 296 296 296 296 295 294 295 295 296 296 295 294 293
284 284 283 293 295 296 296 289 296 296 295 295 296 294 296 292 292 292 292 292 292 293 294 294 295 296 295 295 296 295 296 296 297 297 295 293 293 294 294 293 291 291 290 291
283 287 289 294 295 297 289 293 297 297 297 297 296 296 295 292 291 291 291 291 292 293 293 294 295 296 295 296 295 296 295 293 292 291 291 291 291 291 290 290 289 289 288 290
285 286 286 296 293 292 299 297 298 298 298 298 293 291 291 291 290 290 290 291 292 292 292 294 295 294 292 291 292 292 291 289 289 289 289 289 289 289 289 289 288 287 287 287
292 293 299 297 300 299 298 299 298 299 298 295 291 291 290 289 289 289 290 291 291 290 289 290 291 291 289 289 289 289 289 288 287 287 286 286 285 285 284 284 284 283 283 283
295 297 296 297 299 300 299 299 299 300 297 295 292 291 289 288 288 289 289 289 289 288 287 287 288 288 287 287 288 287 286 285 284 283 283 283 283 283 282 282 282 281 281 281
293 295 297 298 299 299 298 298 296 297 296 294 292 289 289 288 288 289 288 288 288 287 286 285 285 283 284 285 286 284 283 282 281 281 281 281 281 281 281 282 281 280 280 280
293 299 300 300 301 297 296 296 295 293 292 293 292 289 289 288 288 288 287 287 287 286 283 282 281 281 282 283 282 282 280 280 279 280 280 280 279 279 280 279 279 280 279 279
298 299 294 293 294 295 294 293 293 293 291 289 290 289 289 287 287 286 286 286 285 282 281 281 281 279 280 281 280 279 278 278 278 278 278 278 277 277 276 278 278 278 278 277
295 296 293 293 292 292 291 291 291 290 290 289 288 288 287 285 285 285 285 284 282 280 280 281 279 277 278 279 278 278 277 275 277 277 277 276 276 275 275 274 274 275 276 275
294 294 295 291 290 289 289 289 287 286 286 286 287 286 286 284 284 283 283 282 281 280 280 279 277 276 277 278 277 276 276 276 275 275 275 274 274 273 274 273 272 272 273 273
291 291 290 289 288 287 288 287 286 285 285 285 285 285 285 283 283 282 280 280 279 278 277 274 274 276 276 276 276 275 275 273 273 273 273 272 272 271 271 271 270 270 270 269
288 286 286 286 287 287 287 287 287 285 285 285 284 283 282 281 280 279 278 277 276 275 275 275 274 275 275 275 274 273 273 272 270 272 271 270 269 269 269 269 268 268 268 268
291 290 290 289 287 286 286 286 286 286 284 282 282 281 280 280 278 276 276 276 275 274 274 274 274 274 273 273 272 271 271 270 270 269 269 268 267 267 267 267 266 266 266 267
291 289 289 288 288 287 286 286 285 283 281 281 280 280 279 278 277 276 276 275 274 273 273 274 273 272 271 271 270 269 269 267 267 267 266 265 265 265 265 265 264 265 265 264
288 288 288 286 287 286 283 283 282 281 281 280 279 278 277 276 275 274 275 274 275 275 274 273 272 271 270 269 268 268 267 266 266 265 264 264 263 262 263 262 262 263 263 263
285 285 284 283 282 282 282 282 281 279 279 280 278 277 276 275 274 274 273 273 274 274 273 272 271 270 270 269 268 267 266 265 264 264 263 262 261 261 261 261 261 261 261 262
284 283 282 281 281 281 281 281 279 278 277 277 276 276 274 274 273 274 274 274 274 273 273 272 271 267 268 267 268 266 266 264 264 263 263 261 261 260 259 259 259 260 260 260
282 282 281 280 279 279 279 278 278 277 276 276 275 275 275 275 274 273 272 273 273 271 272 271 267 264 263 267 266 265 264 263 262 262 261 260 260 259 258 258 258 258 258 259
281 280 280 279 279 278 276 277 277 276 275 275 275 275 275 273 273 274 274 271 269 270 270 268 266 264 262 265 264 264 263 263 262 261 261 255 259 258 258 257 256 257 257 257
281 281 280 279 278 277 276 276 276 276 276 275 275 275 274 274 274 272 271 270 268 269 268 264 263 261 265 264 263 263 262 262 262 261 260 259 258 257 257 256 255 256 256 256
277 277 277 278 278 277 277 276 274 274 274 273 272 272 272 272 271 270 269 268 268 266 267 265 264 263 263 263 263 262 261 262 261 260 258 258 257 257 256 255 254 255 255 255
275 275 275 274 274 274 275 275 273 272 272 272 271 271 270 269 268 268 266 267 266 265 264 264 263 262 263 262 262 262 261 261 259 259 259 257 256 256 254 254 254 254 254 254

GFSNGP_sfc_thetae_054.txt.gz
Theta_e
298 298 298 297 297 298 296 298 294 296 297 301 304 306 307 306 305 306 308 313 317 320 322 323 323 322 322 320 316 313 310 308 306 307 306 305 306 307 304 302 301 302 300 299
295 298 297 295 297 298 298 298 299 299 298 306 308 306 305 304 307 308 309 310 313 315 318 318 317 316 315 315 314 311 307 304 303 303 302 302 303 303 300 300 300 298 296 296
291 296 296 290 296 298 299 301 301 296 301 306 305 304 305 306 308 308 307 308 309 310 312 312 312 312 311 310 310 308 304 301 302 301 299 301 300 300 299 299 298 297 297 297
292 290 286 297 302 302 300 302 303 303 303 305 305 305 304 307 307 305 305 305 306 307 308 309 309 308 308 307 306 303 301 300 300 300 301 302 301 299 299 298 298 298 298 300
292 291 295 295 297 299 298 299 304 303 304 305 303 302 300 302 306 305 304 304 304 306 306 306 306 306 305 304 303 301 300 300 301 301 300 299 300 300 300 300 300 299 297 296
291 289 288 297 303 305 303 295 305 304 303 303 302 298 303 301 301 300 301 302 302 303 304 304 304 305 304 302 302 300 300 300 301 301 298 297 298 297 297 298 295 295 294 294
293 292 296 302 302 303 293 297 306 306 305 304 301 304 304 301 300 301 301 301 302 302 302 302 304 304 301 301 299 300 299 298 296 294 295 295 295 295 295 295 294 294 293 293
294 291 289 302 300 298 305 307 307 307 307 305 305 302 300 300 298 298 298 299 300 300 300 302 303 302 299 298 298 297 296 295 294 294 292 293 293 293 292 291 289 288 289 288
297 298 306 304 306 307 309 308 306 307 307 307 301 299 299 298 298 298 298 299 300 299 298 298 299 298 295 295 295 294 293 292 291 290 290 289 288 288 288 287 286 286 285 285
298 303 303 305 307 306 306 307 306 308 307 305 301 299 298 297 297 297 298 297 297 296 294 293 294 294 294 293 293 292 290 289 288 286 286 286 287 286 286 285 284 283 283 282
300 303 304 304 307 308 306 305 305 306 306 304 302 299 298 297 296 296 296 296 296 294 292 290 290 290 290 291 291 288 287 285 285 285 285 285 284 284 283 283 281 281 282 281
298 304 305 307 309 309 306 304 304 304 303 303 301 298 298 296 296 295 294 294 293 292 289 288 286 285 286 288 288 286 284 284 283 284 284 284 284 284 279 279 278 279 278 278
304 304 305 302 302 307 306 305 304 303 303 300 300 298 297 295 295 292 293 293 291 288 286 285 283 283 284 284 284 283 282 282 282 282 283 282 282 281 280 281 278 278 277 276
304 301 300 299 301 300 302 302 301 302 301 300 297 297 296 294 292 292 291 291 288 286 284 283 283 281 283 283 282 281 280 278 281 282 281 282 281 280 280 279 278 278 278 276
302 301 300 299 297 297 298 297 296 295 295 294 294 293 293 290 290 290 289 286 286 285 283 282 281 280 281 282 281 280 280 279 280 280 279 278 279 279 278 277 277 276 277 276
302 299 297 297 296 294 295 294 294 292 292 292 291 291 291 291 289 287 286 285 284 282 282 278 278 279 281 280 280 279 278 275 276 279 278 278 277 277 276 276 275 275 275 274
296 295 295 293 294 294 294 295 294 292 292 291 290 291 289 287 285 284 283 282 279 278 278 278 277 278 279 278 278 279 279 277 273 277 277 276 275 275 274 274 273 273 273 273
300 298 298 298 295 293 292 292 290 289 289 290 287 285 283 282 279 278 277 277 277 277 277 277 277 277 276 276 276 276 276 275 275 275 275 274 272 273 273 272 272 271 272 272
296 295 295 294 294 292 291 290 290 288 284 283 283 281 280 279 279 278 277 276 275 275 275 276 275 275 274 273 274 275 274 274 273 273 273 269 272 271 271 271 270 270 270 270
290 290 290 291 291 290 285 284 283 283 283 281 280 279 278 278 277 277 277 277 278 277 276 275 274 274 273 272 271 273 272 272 272 272 271 270 270 269 270 268 268 268 269 269
285 285 284 283 283 283 283 283 282 281 282 282 280 278 277 277 277 277 276 275 275 275 275 274 274 273 273 272 272 273 272 272 271 271 270 269 268 268 268 268 268 267 268 268
283 282 282 282 281 281 282 282 281 281 280 279 278 278 277 276 276 276 277 276 276 275 275 274 274 271 271 269 273 272 271 270 270 269 269 268 267 267 266 266 266 266 266 266
283 282 282 281 280 280 281 280 280 280 279 278 278 278 277 277 277 276 274 275 276 274 275 274 270 269 268 272 272 271 270 268 268 268 268 267 266 266 265 265 264 264 265 265
282 282 281 282 282 280 278 279 279 279 278 278 277 278 277 276 276 277 276 275 273 274 274 271 270 268 266 271 270 270 268 269 268 268 267 263 266 265 265 264 263 263 263 263
282 281 281 280 279 278 278 278 278 277 277 277 276 276 277 278 278 276 276 274 272 273 273 268 267 265 270 270 269 268 268 268 267 267 266 266 265 264 264 264 262 262 261 261
279 278 279 279 279 279 279 278 277 277 277 276 276 277 277 276 275 275 274 272 272 270 272 271 270 269 269 268 268 267 267 267 266 266 265 264 264 264 263 262 261 261 261 261
276 276 276 275 276 275 276 276 276 275 276 276 275 275 275 275 274 273 272 272 271 270 270 270 270 268 268 267 267 267 266 266 265 264 264 264 264 263 262 261 260 260 260 259

GFSNGP_sfc_thetae_057.txt.gz
Theta_e
299 300 300 299 298 299 298 299 295 297 298 302 304 306 307 309 310 310 310 314 316 318 321 324 325 327 323 319 318 316 312 310 309 308 308 308 307 305 304 303 301 301 301 300
296 299 299 296 298 299 299 299 299 299 298 306 307 308 308 308 308 309 309 312 317 320 323 324 323 323 320 316 313 312 309 307 307 308 309 309 308 306 305 303 302 301 299 298
293 298 298 294 297 298 299 301 300 296 302 306 305 306 307 308 309 310 311 313 315 319 321 320 319 319 317 314 313 310 308 308 308 308 306 305 305 304 303 302 302 301 298 299
294 293 287 297 304 303 300 301 303 303 304 306 306 307 309 310 311 311 311 313 314 316 316 316 316 315 314 312 310 308 307 305 305 305 304 304 303 303 303 303 302 302 301 301
293 292 295 298 301 301 299 299 304 304 305 306 307 307 306 309 312 312 311 312 313 314 313 312 312 312 310 308 307 306 305 305 305 304 302 303 302 301 302 300 300 300 299 298
295 290 287 297 303 307 306 297 306 306 305 305 306 301 304 308 311 310 310 310 309 310 310 310 310 309 307 306 305 304 304 303 303 303 303 302 301 300 299 298 296 296 295 295
295 292 296 302 304 307 295 298 307 307 307 306 305 306 309 308 307 308 307 307 308 309 308 308 309 308 306 305 302 303 303 303 301 300 300 299 298 297 296 295 295 295 293 293
296 293 290 305 304 300 306 311 309 310 309 309 309 308 307 306 305 305 305 305 307 306 306 307 308 306 304 302 303 302 300 299 298 297 295 296 295 294 293 292 291 290 289 289
298 299 307 307 307 310 311 310 311 311 311 311 309 306 305 304 304 304 304 305 305 305 304 305 306 305 301 300 300 299 297 295 294 293 292 292 291 290 290 289 288 287 286 286
300 304 306 308 310 310 311 311 312 312 312 311 308 306 304 303 303 303 304 304 304 303 302 301 302 301 299 298 298 296 293 292 291 290 289 289 289 288 287 287 285 285 284 284
300 302 305 307 308 309 311 311 310 310 311 310 308 305 304 302 303 303 303 303 302 301 299 298 298 297 297 296 295 292 290 289 288 287 288 287 286 286 285 283 282 282 283 282
297 302 305 306 310 311 312 311 310 309 309 310 308 305 304 303 303 302 301 301 300 298 296 295 294 293 294 294 292 289 287 287 287 287 286 286 285 284 280 280 279 279 278 278
304 307 308 310 308 308 310 312 311 309 309 307 307 305 303 302 302 298 300 300 298 296 293 291 290 288 289 289 289 288 286 285 284 285 285 284 284 283 283 280 279 279 278 276
308 307 304 306 305 306 307 311 308 309 308 308 306 305 303 301 299 298 297 297 295 291 289 288 286 285 285 286 285 285 283 281 284 284 284 283 283 282 282 281 280 281 279 277
308 309 307 305 303 304 304 305 304 304 305 304 304 302 301 298 296 296 295 292 290 289 287 286 283 282 285 285 284 284 283 283 283 283 282 280 281 281 281 280 279 279 279 279
308 308 306 303 304 302 301 300 301 301 302 302 300 300 299 297 295 293 290 290 287 285 283 281 280 282 284 283 283 281 279 277 279 281 280 280 280 279 279 278 278 278 277 277
302 302 302 301 302 301 300 300 300 299 299 298 298 297 295 293 289 288 285 282 280 279 280 280 279 281 281 281 281 282 281 278 275 279 279 278 278 277 277 276 276 276 276 276
304 303 303 303 303 300 299 299 299 297 296 296 294 289 286 285 282 279 279 278 278 277 278 278 278 278 278 278 278 278 278 277 277 277 277 276 275 275 275 275 275 274 274 274
300 300 299 299 300 299 298 295 294 291 286 285 284 282 280 279 279 278 277 276 275 274 275 276 276 276 275 275 276 276 276 275 275 275 275 271 274 274 274 274 273 273 273 273
290 291 290 288 289 288 285 285 285 284 284 282 280 279 278 277 277 277 278 277 278 276 276 275 275 274 274 273 274 275 275 275 274 274 274 272 273 272 273 271 271 271 272 272
283 283 283 282 282 283 282 282 282 281 281 280 279 277 277 278 278 278 276 274 275 276 275 275 275 275 274 273 274 275 274 274 273 272 272 272 271 272 271 271 271 271 271 270
283 283 282 282 282 282 283 283 282 280 279 278 278 278 278 277 277 278 278 275 275 276 276 275 275 273 272 271 274 274 273 272 271 272 271 271 270 270 270 270 269 269 269 269
283 282 282 281 280 280 281 281 280 280 279 279 278 278 278 278 278 276 274 276 276 276 276 275 271 270 270 274 274 273 272 271 271 270 270 270 270 269 269 268 268 267 267 267
282 282 282 282 281 280 278 279 279 279 278 278 279 279 278 277 277 278 277 277 275 276 275 272 271 270 267 273 273 272 271 271 270 270 270 268 268 269 268 267 266 267 266 266
282 281 281 280 279 279 279 279 279 279 278 278 278 278 278 280 278 277 277 275 274 275 274 270 270 268 271 272 271 270 270 270 270 269 268 268 268 267 267 267 266 266 265 264
278 278 278 279 280 280 280 279 278 279 279 277 277 278 278 278 277 277 276 275 274 272 274 272 272 271 271 271 270 269 269 269 269 268 268 267 267 267 266 266 265 264 264 264
276 277 277 276 277 277 277 277 276 275 277 278 275 276 276 276 275 275 274 274 273 272 272 272 272 271 270 269 269 269 269 268 268 267 266 266 266 266 265 265 264 263 263 262

GFSNGP_sfc_thetae_060.txt.gz
Theta_e
298 298 299 298 298 298 296 299 294 298 297 301 304 305 307 309 309 309 310 312 314 317 320 322 324 324 322 319 317 316 313 310 308 307 308 306 304 304 303 302 301 300 299 299
294 298 298 296 299 299 298 299 298 299 298 305 306 307 306 309 309 308 309 310 314 317 320 322 324 320 317 314 312 311 309 308 308 308 307 306 304 302 301 301 301 300 298 297
290 297 296 291 297 298 299 301 300 296 301 305 304 305 307 307 309 308 310 311 314 317 321 323 321 317 313 311 311 308 307 307 308 309 306 305 305 303 302 300 300 298 296 297
291 291 285 297 304 302 299 301 302 301 303 304 305 307 309 310 310 310 312 313 315 320 320 319 319 315 313 312 310 309 308 307 306 305 304 303 302 301 301 301 299 299 298 298
290 289 294 297 300 300 298 298 303 302 303 305 306 309 308 311 313 313 313 314 317 318 317 317 315 314 311 309 308 306 304 304 304 304 302 302 301 301 300 300 299 299 299 297
292 286 285 297 303 305 305 293 305 305 305 305 306 300 304 309 312 313 313 313 314 314 313 311 311 310 307 305 305 304 304 304 303 303 303 300 300 300 300 299 296 294 294 294
291 288 294 302 304 305 292 295 308 308 307 307 306 307 310 310 311 312 312 311 312 311 309 309 309 308 305 304 303 304 304 303 303 302 301 300 298 296 295 293 294 290 288 288
292 288 287 305 303 297 303 308 312 309 310 313 310 309 308 309 309 309 308 308 309 308 307 308 308 306 304 302 303 303 302 300 299 298 297 296 294 293 292 290 288 286 284 284
295 295 307 307 306 309 310 310 311 310 312 313 309 307 307 306 306 306 306 306 307 306 306 306 307 305 302 302 301 299 298 296 295 294 294 293 290 289 287 287 285 283 282 282
298 301 304 307 309 310 311 311 311 312 312 313 309 308 306 306 305 305 305 305 305 305 304 304 305 304 302 300 299 297 294 293 292 289 288 288 287 287 286 284 282 282 282 281
300 303 303 304 307 308 310 312 312 311 312 310 311 308 306 305 304 304 304 304 304 303 303 302 302 300 299 298 297 294 292 290 288 287 287 286 283 283 282 279 280 280 280 279
296 303 302 303 305 308 308 308 311 311 310 310 311 308 307 305 304 304 304 304 303 302 301 299 297 296 296 296 294 291 288 287 286 285 284 285 282 280 281 280 280 279 279 277
298 302 306 308 309 310 308 309 309 312 311 308 310 309 307 304 304 301 303 302 300 298 297 295 294 292 293 292 290 288 285 285 284 284 284 282 282 282 277 278 280 280 279 277
304 304 304 306 305 307 306 307 309 310 310 309 309 308 305 304 302 302 300 300 298 295 292 290 288 286 287 288 286 284 283 284 284 283 282 282 281 281 280 280 278 277 279 278
303 308 309 309 306 305 305 305 305 305 306 306 307 305 304 301 300 299 298 295 292 290 288 287 284 284 285 285 283 282 283 283 283 281 280 279 280 280 280 278 278 278 278 277
305 307 307 307 306 304 303 302 301 301 303 304 303 302 301 300 297 293 291 290 287 285 284 281 281 283 284 284 281 279 279 279 281 280 279 279 279 278 278 278 277 277 276 275
300 301 301 302 303 304 303 302 301 301 301 300 299 297 297 291 287 281 280 281 280 280 280 280 279 280 281 282 281 279 277 276 276 278 278 277 277 277 277 276 275 275 274 270
301 301 301 300 301 302 301 301 300 298 296 290 288 287 284 280 278 277 277 277 276 276 277 277 278 278 278 278 278 278 277 277 277 277 276 276 275 275 275 274 274 273 273 273
293 293 293 293 295 293 290 287 286 286 285 283 281 279 278 278 277 276 277 276 275 274 275 276 276 275 275 276 277 277 276 275 275 275 275 271 273 274 273 273 273 272 271 271
284 285 285 285 285 285 283 282 282 281 280 279 278 277 276 276 277 277 277 275 276 275 276 276 275 274 273 274 275 275 275 274 274 274 274 271 272 273 272 271 271 270 270 270
282 282 282 281 281 282 281 281 280 278 279 279 277 277 277 277 277 276 274 272 274 276 275 275 274 274 273 273 274 274 274 274 273 273 272 272 271 271 271 270 270 270 269 269
282 281 281 281 280 280 280 280 279 278 278 278 278 277 277 276 276 275 275 274 275 275 275 274 273 273 272 273 274 274 273 272 272 272 271 271 270 269 269 269 268 268 268 267
281 281 280 279 278 278 279 279 279 279 278 278 277 277 277 277 276 274 272 276 276 276 275 272 271 271 271 273 273 273 272 272 271 271 270 270 270 269 268 268 267 267 266 266
280 280 280 280 280 278 277 278 278 278 278 278 278 279 278 275 275 277 277 276 276 274 273 272 271 270 268 273 273 272 271 270 270 270 270 269 269 268 268 267 266 266 264 263
280 280 280 279 279 278 279 279 278 278 278 277 278 278 278 279 277 276 275 274 275 274 271 269 269 268 271 271 271 270 270 269 269 267 266 266 266 266 266 266 265 264 262 260
277 277 276 277 278 278 278 278 277 278 277 276 276 277 277 277 276 276 275 274 274 273 272 272 270 270 270 270 269 269 269 269 268 268 266 266 265 265 265 265 264 263 262 262
274 275 275 275 275 275 275 275 274 273 275 275 274 275 275 275 274 274 274 273 273 272 272 271 271 269 269 267 267 268 267 267 266 266 265 265 264 264 264 263 263 262 261 260

GFSNGP_sfc_thetae_063.txt.gz
Theta_e
294 296 298 297 296 296 295 296 293 295 295 299 301 302 301 303 304 303 305 309 312 312 313 317 316 314 314 313 313 313 311 309 306 306 306 305 303 303 302 301 301 300 300 299
291 296 297 295 297 296 296 296 298 297 296 302 302 301 302 304 304 303 304 307 311 315 317 318 314 311 310 309 308 309 308 306 305 304 303 303 302 301 300 300 300 299 298 297
287 294 294 287 293 295 297 299 296 293 298 300 300 300 301 301 304 303 303 304 309 314 319 317 313 311 307 307 307 307 307 307 306 305 303 302 301 300 300 299 298 295 293 294
285 289 282 293 299 299 298 299 299 298 298 299 300 300 301 302 303 303 305 306 314 316 317 314 311 309 308 307 307 307 307 307 306 305 303 302 301 298 296 295 294 293 293 294
285 286 290 294 297 297 296 295 299 297 298 299 299 300 299 305 305 306 306 308 313 314 314 311 309 308 307 306 307 306 304 303 303 302 299 299 298 298 299 298 296 295 296 291
285 282 281 291 299 304 302 290 300 301 300 300 299 293 296 304 307 307 308 312 312 312 311 310 309 308 306 305 303 302 302 301 301 301 300 300 299 299 298 296 295 292 290 287
286 285 288 298 302 304 290 290 302 302 301 301 298 299 301 306 306 307 307 308 308 308 308 308 307 306 302 301 300 302 301 301 301 300 300 300 297 294 292 290 288 285 285 285
287 283 282 302 301 294 298 302 303 302 302 301 303 303 305 306 305 306 305 306 307 305 304 305 305 304 301 300 301 302 301 300 298 299 298 295 291 289 289 287 284 282 282 281
290 289 300 304 302 305 306 305 305 304 305 306 304 303 305 304 303 304 303 303 304 303 302 302 303 303 299 299 300 299 297 296 294 293 292 290 287 286 285 284 282 281 281 280
293 297 299 301 306 306 306 306 307 307 306 307 306 305 302 302 302 301 301 301 301 301 300 299 301 301 300 299 298 296 293 291 289 287 286 285 286 285 283 281 279 280 280 278
294 298 301 301 303 305 304 306 307 307 306 306 305 303 303 302 300 301 301 301 301 300 299 299 299 298 297 297 295 292 290 287 286 285 283 281 282 281 279 278 280 279 277 278
290 299 299 300 303 307 306 306 307 305 306 305 305 303 302 300 300 300 300 299 299 299 298 295 295 294 294 294 292 289 285 284 283 283 282 281 280 278 280 280 281 281 280 277
294 298 298 300 304 306 305 305 305 304 305 305 306 304 302 300 300 297 299 298 298 296 293 292 290 289 289 289 287 285 283 284 282 281 281 280 279 277 276 279 280 280 279 278
301 302 297 297 300 303 303 302 303 304 304 304 304 303 300 299 298 297 297 295 292 289 286 284 283 282 284 285 284 282 282 283 282 281 281 281 280 280 278 277 276 276 279 278
301 303 302 303 302 302 301 300 299 299 300 301 302 300 299 297 294 292 290 289 287 284 283 282 282 281 283 283 282 282 282 280 279 279 279 279 279 279 279 278 278 277 277 277
299 301 301 300 300 301 299 298 296 296 297 298 297 293 290 289 287 286 286 286 281 280 280 280 280 280 281 280 280 280 280 280 279 278 279 278 278 278 278 277 277 276 275 274
294 293 295 296 297 298 297 296 296 294 291 289 285 283 282 280 278 277 277 278 277 277 277 277 277 280 281 279 278 277 277 278 278 278 277 277 276 276 276 275 275 274 272 270
293 291 291 290 291 290 288 288 287 286 283 281 280 279 278 277 276 276 276 276 275 275 276 276 277 278 278 278 278 278 277 277 277 276 276 275 274 274 274 273 273 273 272 271
287 287 287 287 286 285 284 282 281 281 280 278 277 276 275 275 276 276 277 276 274 273 274 275 276 275 276 277 277 276 275 275 275 274 274 272 272 273 272 271 271 270 270 270
282 283 282 281 281 281 280 280 279 279 279 278 277 276 276 276 276 274 274 272 274 274 275 274 274 274 274 275 275 275 274 273 273 273 272 271 270 270 270 270 270 268 267 267
280 280 279 279 278 278 278 279 278 277 277 277 275 275 274 275 275 274 272 271 273 275 275 275 274 273 273 274 274 273 273 272 271 271 270 270 269 269 268 267 266 266 265 265
278 278 278 278 277 277 278 278 277 277 276 276 276 275 274 273 273 273 273 272 275 275 273 272 272 271 272 273 274 272 272 271 270 270 269 267 266 264 264 264 264 264 263 261
278 278 278 277 276 276 277 277 277 277 276 276 275 275 275 275 274 272 271 275 274 272 271 270 270 270 270 272 271 270 269 268 268 268 267 265 265 265 263 262 262 261 258 258
279 278 278 278 278 277 275 276 277 277 276 277 276 276 275 273 273 275 274 272 272 271 270 269 268 268 268 270 269 267 265 263 262 263 264 262 260 262 264 262 261 260 259 257
275 276 277 277 276 276 277 277 276 276 275 275 275 275 275 275 272 273 273 273 271 269 267 266 266 266 268 268 267 264 262 263 263 259 261 261 261 258 256 259 261 260 257 256
274 273 273 273 273 274 274 274 274 274 273 272 273 273 273 274 273 272 271 270 270 270 268 264 265 263 262 262 260 260 261 262 263 263 261 260 256 255 256 260 259 258 256 254
272 272 272 271 272 271 271 271 270 270 271 270 269 270 270 270 270 270 268 269 267 267 266 266 266 266 265 264 262 258 257 255 255 258 257 254 252 251 255 257 256 254 251 249

GFSNGP_sfc_thetae_066.txt.gz
Theta_e
293 294 295 294 294 294 292 292 289 291 293 297 299 301 302 303 301 302 303 306 308 308 314 312 313 315 319 321 321 318 316 317 311 310 311 310 308 307 306 305 304 303 301 300
290 294 295 293 295 295 294 293 293 295 294 301 302 302 301 301 303 301 303 306 309 311 315 313 311 313 314 317 315 314 310 308 307 307 306 306 305 303 302 301 301 300 299 298
286 291 292 287 292 294 294 295 296 292 297 302 301 301 301 302 302 301 302 304 308 313 315 313 311 310 310 311 311 310 308 307 306 305 303 303 302 302 300 299 299 297 297 297
284 285 281 292 298 297 295 296 298 298 299 302 302 303 302 302 302 302 302 302 308 314 316 312 309 308 307 309 309 308 306 306 305 303 303 302 301 299 298 297 296 296 294 294
283 283 289 292 295 295 294 292 298 298 298 299 299 298 298 303 303 304 302 304 309 315 313 309 308 307 307 306 306 307 305 304 304 303 301 300 299 297 296 295 293 293 292 289
284 282 280 289 296 301 301 288 298 300 300 300 299 291 295 302 305 306 308 311 311 310 308 307 307 306 305 304 304 304 304 304 303 301 299 298 298 296 295 295 294 293 288 287
285 284 286 295 300 302 289 289 300 302 301 301 296 298 300 304 305 307 310 310 309 310 308 307 306 306 303 302 301 302 302 301 299 299 298 298 297 296 293 290 289 285 283 283
285 283 280 300 300 294 296 300 303 303 302 300 300 301 302 305 305 306 307 306 308 307 305 305 305 304 300 300 300 300 300 299 298 299 299 299 293 290 288 286 284 282 281 279
289 288 298 301 302 304 304 302 303 302 303 303 301 300 303 303 304 305 306 305 305 303 301 302 302 302 299 298 300 299 298 296 295 293 292 291 289 287 285 284 282 281 280 278
291 295 297 299 304 304 305 303 305 306 304 303 303 302 302 302 302 302 302 302 301 301 300 298 299 299 299 299 299 297 293 290 290 288 285 285 285 285 283 281 281 281 280 278
292 296 299 300 301 302 304 305 305 306 304 304 303 304 302 302 302 302 302 301 302 300 300 297 298 297 297 297 295 292 288 287 285 284 283 281 279 280 280 280 281 280 279 279
288 296 297 298 299 303 303 302 303 304 304 303 304 304 303 301 301 301 300 299 299 298 297 296 295 294 293 293 292 287 284 283 281 280 281 279 278 278 282 282 282 282 281 279
294 299 300 300 301 302 302 303 304 303 303 302 303 303 301 299 298 295 298 298 297 293 292 290 288 287 289 289 288 286 283 282 281 281 280 279 279 278 277 279 280 280 280 279
297 299 296 298 296 300 301 301 301 302 302 301 300 302 299 297 297 297 295 292 288 285 284 284 284 283 286 286 285 283 282 282 281 281 281 280 279 278 278 277 276 277 279 279
293 298 298 299 299 298 299 298 297 297 297 295 295 296 296 292 288 286 285 284 283 282 282 281 280 281 284 283 282 281 280 279 280 279 279 279 279 279 279 278 278 277 277 278
293 294 296 295 296 296 296 296 294 291 289 286 285 284 284 283 282 281 282 283 281 278 279 278 278 280 281 281 281 280 279 279 280 279 279 278 278 278 278 277 277 276 275 274
290 288 289 290 291 289 288 288 288 285 283 282 281 280 280 278 278 277 277 278 278 278 279 279 278 280 280 280 280 279 279 279 278 278 277 277 277 276 276 275 275 274 273 272
288 288 288 288 287 286 284 283 282 281 279 279 279 278 276 275 275 275 276 277 276 275 276 277 278 278 278 278 278 278 277 277 276 276 276 274 274 274 274 273 273 272 271 271
284 283 284 284 283 282 280 279 279 278 278 277 276 276 276 276 276 276 275 274 272 272 273 275 277 276 276 276 276 276 275 275 274 274 273 273 272 273 272 271 270 270 270 270
280 280 279 279 279 279 278 279 279 278 278 277 275 274 273 273 273 272 272 271 272 272 274 274 274 274 274 275 275 274 274 273 273 272 271 271 270 269 270 270 270 269 268 268
277 277 277 277 276 277 277 277 276 275 275 275 274 273 273 273 273 273 271 270 273 274 273 273 273 273 274 274 274 272 271 271 270 270 269 269 269 268 267 267 267 266 265 264
277 276 276 276 276 275 276 277 276 276 275 274 274 273 272 272 272 272 273 271 272 272 271 271 271 272 273 273 272 271 270 270 269 269 268 267 266 265 264 264 263 263 262 261
277 277 276 276 275 275 276 276 276 275 274 274 274 273 273 273 273 271 268 271 271 270 270 269 270 271 271 270 269 268 267 267 266 265 264 263 262 262 262 262 261 259 258 257
277 277 277 277 277 275 273 275 275 275 274 274 273 274 273 271 271 272 271 270 269 269 269 269 269 268 267 266 265 264 263 263 262 260 260 257 253 253 253 253 254 255 257 257
273 273 274 274 274 274 274 274 274 273 273 273 273 274 273 273 271 270 270 269 269 268 267 266 265 264 264 263 262 262 260 259 257 256 255 253 251 249 249 251 252 255 255 255
272 271 271 271 272 272 272 272 270 271 270 268 269 269 271 271 271 269 269 268 268 267 266 265 263 262 262 261 258 256 255 256 256 256 250 250 249 250 249 250 250 250 250 249
270 271 270 269 270 270 270 269 267 266 266 265 264 265 267 267 267 266 264 263 262 261 260 258 257 257 257 253 253 253 252 252 252 251 248 247 248 247 248 247 246 245 245 247

GFSNGP_sfc_thetae_069.txt.gz
Theta_e
292 294 293 293 292 293 291 291 287 290 289 293 296 298 300 300 300 299 300 302 304 305 307 311 315 316 316 316 317 317 316 317 317 318 319 320 318 315 310 309 308 307 305 303
288 293 292 290 293 293 292 292 292 292 291 299 300 299 299 301 302 300 300 301 306 307 312 312 313 313 314 316 317 318 318 317 318 314 314 314 311 308 307 306 304 302 302 300
283 290 290 286 290 292 293 294 293 289 294 299 298 299 299 301 301 301 300 302 304 308 313 313 312 313 315 316 316 317 316 312 311 311 309 307 306 305 303 302 301 300 300 298
284 286 280 291 296 296 293 295 296 295 297 299 299 301 302 300 301 300 300 301 303 309 313 311 308 313 312 313 313 311 309 309 307 307 306 304 304 302 300 300 298 297 297 297
281 282 288 289 294 293 292 292 297 295 297 298 298 295 296 300 300 302 302 303 303 310 312 307 309 310 311 310 310 309 307 306 305 305 303 301 300 299 298 299 298 297 297 295
284 280 278 286 294 297 298 288 297 300 299 295 296 290 293 299 301 300 301 304 308 308 308 307 306 309 308 308 308 307 306 305 304 303 302 300 299 297 297 297 295 293 289 290
284 283 284 293 296 300 287 288 299 301 298 298 295 296 299 299 303 303 305 308 308 308 307 306 306 306 305 306 306 307 306 305 303 302 301 300 298 296 296 294 289 286 283 284
285 282 277 298 298 293 296 299 300 301 300 300 301 301 301 302 302 306 307 308 308 306 304 304 305 305 302 302 302 303 302 301 300 299 299 298 294 293 291 288 284 283 281 281
285 286 295 297 298 300 302 302 302 302 302 301 302 301 300 301 302 305 305 305 307 304 302 303 304 304 301 297 299 299 299 298 298 298 296 294 291 288 286 285 285 282 281 279
289 292 295 297 299 304 305 303 304 305 303 301 300 301 301 301 302 303 303 302 301 302 301 298 299 300 299 299 298 297 296 295 293 290 288 289 288 287 284 283 282 281 279 277
289 293 296 299 300 301 302 303 304 304 304 303 301 301 302 302 302 302 302 301 302 300 299 297 298 297 298 298 296 293 291 289 287 286 283 282 282 283 282 282 284 281 280 278
284 294 293 297 301 300 300 301 302 303 303 304 302 302 302 302 301 301 300 300 298 297 296 296 296 295 296 296 293 289 285 285 284 283 282 281 280 279 283 283 283 283 282 279
292 294 295 299 299 299 300 301 302 302 301 301 302 303 305 301 300 296 298 297 295 293 292 291 289 288 289 289 289 287 283 283 282 281 280 279 279 278 276 279 281 281 281 280
294 295 295 296 296 298 298 298 300 299 297 294 296 299 299 297 294 291 288 287 286 285 284 284 283 283 285 286 285 283 283 282 281 281 280 279 279 279 278 277 276 276 279 279
291 294 294 296 294 293 296 296 294 290 288 286 286 288 287 284 282 282 283 283 282 281 281 281 281 281 283 283 282 281 281 280 280 280 280 280 280 279 279 278 277 277 277 278
290 292 291 292 291 289 288 287 286 283 283 282 281 280 279 279 279 279 279 280 280 278 279 279 280 281 282 282 282 281 281 280 280 279 279 279 278 278 278 277 277 277 276 275
286 287 287 287 287 285 283 283 282 281 280 279 279 279 278 278 278 277 277 278 278 278 279 278 278 280 280 280 279 279 278 278 278 278 277 276 276 276 276 275 275 274 273 273
286 285 285 285 284 282 281 280 280 279 278 278 277 277 276 275 275 275 275 275 275 275 275 276 277 277 277 278 278 277 276 276 275 274 274 273 274 274 273 273 273 272 271 271
281 280 280 280 280 279 279 278 278 278 277 276 275 274 274 274 274 273 274 272 272 271 272 275 276 276 275 276 276 275 274 274 273 273 272 272 272 272 271 271 270 270 270 270
278 278 278 277 278 278 276 277 277 276 276 275 274 273 272 272 272 272 271 270 271 272 273 274 274 274 273 274 274 273 272 272 271 270 270 270 270 269 269 269 269 268 268 267
275 276 276 276 275 276 275 275 274 273 273 273 272 271 271 272 272 271 269 268 270 272 272 273 273 273 273 273 272 271 270 270 269 268 268 267 267 267 266 266 265 264 263 263
276 275 275 275 274 274 275 275 275 274 273 273 273 272 271 270 269 269 270 269 270 271 272 271 271 270 270 270 270 269 268 267 267 266 265 264 263 261 260 259 259 261 259 257
276 275 275 274 273 273 274 274 273 273 272 272 271 270 271 271 271 268 266 270 270 270 270 269 268 268 267 267 266 265 264 263 263 261 261 260 259 258 258 257 256 255 253 255
274 275 275 275 274 273 272 273 273 273 272 272 272 272 271 268 268 270 269 268 267 267 266 265 265 265 264 263 263 262 261 260 258 257 257 255 253 253 253 250 250 248 250 252
272 272 273 273 272 272 272 272 271 270 270 270 271 271 271 271 268 268 268 267 267 265 263 263 262 261 260 259 258 257 256 256 254 254 251 248 246 246 246 247 247 248 248 247
271 270 270 270 270 271 270 269 267 268 268 266 266 267 267 267 266 265 264 263 263 261 260 259 258 258 256 255 254 253 253 254 251 249 246 246 246 246 245 246 245 245 244 243
269 269 269 268 268 268 267 266 264 263 263 262 262 264 264 263 261 261 259 258 257 255 254 252 252 253 252 250 250 249 248 248 247 247 244 244 244 243 243 243 242 242 242 243

GFSNGP_sfc_thetae_072.txt.gz
Theta_e
292 294 293 292 291 291 288 290 286 287 289 292 295 296 298 299 299 299 299 299 301 305 308 311 312 311 312 311 311 312 311 311 311 311 312 310 312 315 316 317 318 316 312 310
287 292 292 289 292 291 290 290 290 290 290 296 297 296 297 298 299 299 300 300 300 303 305 309 311 312 312 312 312 312 311 311 312 313 313 313 314 316 318 316 314 310 307 305
282 290 289 283 288 289 291 292 292 288 292 297 296 298 299 299 300 299 300 301 301 304 306 307 309 312 312 313 314 312 312 312 313 313 313 315 315 312 310 309 306 304 302 301
282 284 277 287 295 293 291 293 294 294 295 297 298 299 299 300 300 300 300 301 301 304 306 309 309 309 310 311 313 313 313 313 315 314 313 308 306 306 306 304 303 302 300 300
277 280 284 286 290 293 289 289 293 294 296 297 298 294 295 298 300 301 301 302 301 302 306 309 310 310 312 312 312 313 314 312 312 311 307 305 303 302 301 301 300 298 298 298
284 277 275 283 293 297 296 284 296 298 296 296 295 291 293 300 297 299 299 298 299 302 306 308 309 311 311 311 311 311 310 309 307 306 304 303 301 299 300 299 296 294 293 294
283 281 283 290 297 299 284 284 296 299 298 297 294 296 298 299 301 300 302 304 305 306 306 307 310 311 309 309 309 309 307 306 305 304 303 302 299 298 296 293 290 287 286 287
284 282 279 294 297 291 294 296 297 300 299 298 298 299 300 300 300 302 304 307 307 304 303 306 308 309 308 307 306 306 305 303 303 302 300 298 295 294 291 288 286 285 284 282
284 284 292 294 293 299 300 298 298 300 303 301 299 297 298 299 301 302 305 303 305 303 303 304 305 306 305 301 303 302 300 299 298 297 295 294 292 289 288 287 285 284 282 280
286 287 291 293 295 299 300 300 301 303 304 304 301 300 299 299 300 301 302 303 303 301 301 300 301 300 299 299 300 300 297 295 293 292 290 290 290 289 287 285 284 283 281 279
287 290 293 293 295 299 300 302 303 305 304 301 300 300 301 300 301 302 302 302 301 299 298 297 297 298 298 298 298 294 292 290 288 287 285 283 283 285 285 285 285 283 282 280
283 291 290 292 295 297 297 298 300 301 302 302 300 299 301 301 300 301 300 300 299 297 296 296 295 295 295 296 294 290 287 286 285 284 283 283 282 281 284 284 284 283 282 280
291 292 292 293 296 295 295 298 297 295 292 292 294 296 298 297 295 292 292 291 290 289 288 288 287 287 289 289 289 287 285 284 283 283 282 281 281 280 277 280 282 282 282 281
294 292 291 292 293 293 292 295 292 289 287 285 285 286 285 284 283 283 283 285 285 284 283 282 282 282 284 285 284 283 283 282 282 281 280 279 278 278 278 277 276 276 280 280
288 290 292 293 292 288 288 288 286 284 283 281 282 280 280 279 279 279 281 281 281 281 281 281 281 281 283 283 282 282 281 280 280 280 280 280 279 279 278 277 276 276 277 278
287 289 290 289 289 285 284 283 281 280 280 279 279 278 278 278 278 278 279 280 279 279 279 279 280 281 283 282 281 281 280 280 280 279 279 279 279 278 278 278 277 276 276 275
283 284 284 284 284 282 281 281 280 279 278 278 278 278 277 277 277 276 276 276 276 276 277 277 277 279 280 280 279 278 277 277 277 276 276 276 275 275 275 274 274 272 271 273
283 282 282 282 281 280 279 279 279 278 277 277 276 275 274 273 273 273 274 274 274 273 274 275 276 276 276 276 276 276 275 274 274 273 274 273 273 273 272 272 271 271 271 271
280 279 279 279 279 278 277 277 276 276 275 274 273 272 272 271 272 272 272 271 271 271 271 274 275 274 274 275 274 274 273 272 272 272 272 271 270 270 270 269 269 269 269 269
277 278 277 276 277 276 275 275 275 275 274 273 272 271 270 270 270 270 270 269 270 272 273 273 273 272 272 272 273 272 271 270 270 269 269 268 267 267 267 267 267 266 265 265
275 275 274 274 274 274 273 273 273 271 271 271 269 269 268 269 270 270 268 267 270 271 271 271 271 270 271 271 270 269 268 268 267 266 265 264 263 263 262 261 261 260 258 257
274 273 273 273 272 272 273 273 273 272 272 271 270 270 269 268 268 268 269 268 269 269 269 269 268 268 268 268 267 266 266 265 264 263 262 261 259 257 256 255 255 255 253 254
274 274 273 272 272 272 272 272 271 271 270 269 269 268 268 268 269 267 265 268 268 267 267 266 265 265 265 264 263 262 261 261 260 258 257 255 253 251 251 251 250 249 250 252
273 274 273 273 273 271 269 271 271 271 270 270 269 269 269 267 267 268 267 265 264 264 264 263 262 262 261 261 260 259 258 256 255 253 253 250 246 247 248 246 247 246 246 247
271 271 272 271 270 270 270 270 269 269 269 268 268 269 268 268 265 265 264 263 264 262 260 259 259 257 256 255 255 254 252 251 248 247 245 245 244 243 243 244 243 243 243 243
270 269 268 269 269 269 268 267 265 266 266 264 264 263 263 263 262 262 260 259 259 257 255 253 252 251 251 252 249 248 248 250 248 247 244 244 244 244 243 244 242 242 241 242
268 268 268 266 266 265 264 264 262 261 261 260 260 261 259 258 257 257 253 253 252 251 249 248 249 250 249 247 248 246 246 245 245 245 242 242 242 241 241 241 240 239 240 240

GFSNGP_sfc_thetae_075.txt.gz
Theta_e
290 291 292 291 291 292 291 292 287 290 291 295 299 301 303 306 304 304 304 305 305 309 313 316 316 316 315 316 316 317 315 315 314 315 316 316 317 317 317 318 318 319 319 316
288 292 291 289 292 292 293 293 292 292 292 299 302 302 299 301 303 303 304 305 307 307 310 312 315 315 315 315 315 316 316 315 316 316 316 315 315 316 316 317 318 319 320 317
283 290 290 284 289 292 292 294 294 290 295 299 300 300 301 302 304 303 304 305 306 307 308 311 314 316 315 316 316 315 315 315 315 316 315 315 315 316 317 318 319 317 317 314
283 285 278 289 296 296 293 295 296 296 296 298 299 302 304 305 305 306 306 306 307 308 309 311 313 317 319 317 315 315 315 315 315 316 316 316 316 317 318 318 316 311 307 307
283 282 286 289 291 291 292 291 298 297 299 301 301 301 301 302 303 306 307 307 307 308 309 310 313 314 316 316 316 315 315 315 315 316 316 314 314 312 308 306 305 303 302 300
283 280 278 287 294 299 297 287 298 300 300 300 301 295 298 304 303 303 304 305 305 305 305 308 313 315 315 315 316 316 316 316 317 317 309 307 305 303 302 302 299 297 295 296
283 281 286 293 296 301 286 289 299 299 301 301 299 301 303 304 304 305 306 309 311 310 309 311 314 316 315 315 314 316 313 310 309 309 308 306 303 300 298 295 292 289 288 289
284 281 280 295 297 291 296 301 299 300 301 302 304 303 304 304 304 305 307 309 310 308 307 310 314 315 313 311 309 309 309 307 305 305 303 302 299 295 292 290 287 285 284 283
288 288 295 298 297 299 302 300 301 301 302 303 303 304 303 304 304 305 306 308 307 306 304 306 309 311 306 305 307 305 303 301 299 298 297 296 293 290 288 288 286 284 283 282
289 292 294 295 297 299 299 299 300 301 302 303 304 305 305 304 305 305 306 306 307 305 303 302 305 306 305 304 302 300 298 296 295 292 291 291 290 289 287 286 285 284 282 280
289 292 294 296 297 297 297 299 299 299 302 304 304 303 302 302 303 304 304 304 305 303 301 300 300 300 302 301 300 295 293 291 289 288 286 284 284 286 285 285 286 284 282 281
287 290 290 292 296 296 294 295 295 292 292 293 292 295 297 293 295 296 299 300 299 297 296 294 294 295 296 298 296 292 289 288 287 286 285 284 283 282 284 283 283 283 282 280
290 293 293 294 296 293 291 291 292 289 287 286 287 288 287 286 286 286 288 288 288 289 287 287 286 285 287 290 291 290 287 286 285 284 284 283 282 280 278 281 283 283 282 282
292 291 292 293 292 291 289 289 289 287 285 284 284 284 284 284 284 283 283 283 284 284 284 285 284 283 285 285 284 283 283 282 282 281 280 280 280 280 279 278 277 278 281 281
286 288 288 292 291 288 287 286 284 281 281 281 282 281 282 280 279 280 281 282 282 281 281 282 281 282 284 284 284 282 282 281 281 281 281 280 280 279 279 279 279 278 279 279
285 287 288 287 287 284 284 282 282 280 280 280 279 279 279 278 277 277 277 278 277 276 278 278 278 280 282 282 281 280 280 280 280 280 279 280 280 280 280 279 279 278 277 276
281 282 281 282 283 281 280 280 280 279 278 278 278 278 277 276 275 275 275 275 275 275 276 276 276 278 278 278 278 277 277 277 277 277 278 278 278 277 277 277 276 275 275 275
281 281 281 280 279 279 278 278 278 277 276 275 275 274 273 273 272 273 273 274 273 272 273 274 275 275 275 276 276 276 276 276 275 275 275 275 275 275 275 274 274 273 273 272
279 278 278 278 278 277 277 276 275 275 274 273 272 271 271 271 272 272 272 271 271 270 271 273 274 274 274 275 275 275 275 274 273 273 273 272 272 272 272 271 271 271 271 270
276 277 276 275 276 275 274 274 274 273 273 272 271 270 270 270 271 270 270 268 269 271 272 272 272 272 272 272 272 273 272 271 271 270 270 269 269 269 269 268 268 268 268 268
274 274 273 273 273 273 273 272 271 270 270 270 269 268 268 269 270 270 268 267 269 270 270 270 270 270 270 270 270 270 269 268 268 267 267 266 266 266 266 266 265 265 265 266
273 273 272 272 272 271 272 272 272 271 270 270 270 270 269 268 267 267 267 267 268 268 268 268 267 267 267 268 267 267 266 266 265 265 265 264 264 263 263 263 262 263 263 263
273 273 272 272 271 271 271 271 270 270 269 268 268 267 267 267 267 265 264 266 267 266 266 265 265 265 265 265 265 264 264 263 263 262 262 262 262 261 261 261 261 261 261 261
273 273 272 272 272 271 269 270 270 270 269 269 268 269 268 266 265 267 266 265 263 264 264 263 263 262 263 263 262 262 261 261 261 261 260 259 260 260 259 259 259 259 259 258
271 271 271 270 270 269 269 269 269 268 267 266 266 266 266 267 265 264 264 263 263 262 262 259 259 259 261 261 260 260 260 260 259 260 259 258 258 258 258 258 257 257 256 256
269 268 268 268 268 269 268 268 267 267 266 264 263 263 263 263 263 262 261 260 260 259 259 259 259 260 260 259 259 259 259 259 259 258 258 258 257 257 256 255 255 255 254 254
268 268 268 266 266 265 265 265 264 263 263 263 261 262 261 261 260 260 258 259 258 258 258 258 259 258 259 259 259 258 258 258 255 257 257 257 256 255 254 254 254 253 253 253

GFSNGP_sfc_thetae_078.txt.gz
Theta_e
293 294 293 293 293 294 292 294 291 293 294 298 301 303 305 306 308 309 310 311 312 314 319 322 322 323 322 323 322 323 322 321 322 321 322 322 321 321 322 322 320 321 321 322
288 292 292 290 293 294 294 295 295 296 295 303 305 306 305 305 306 306 307 310 311 313 314 318 321 323 323 322 322 323 321 322 322 322 321 321 321 322 322 322 321 322 321 322
285 291 290 287 292 293 295 298 298 294 296 301 301 302 304 306 307 307 308 310 311 312 312 314 318 322 322 323 324 322 322 322 322 322 321 321 321 320 320 320 321 320 322 321
286 288 280 291 297 298 297 297 300 299 300 303 304 306 308 308 308 308 308 310 312 314 314 315 317 320 323 324 322 322 321 321 322 321 321 321 321 320 320 320 320 321 321 321
284 284 288 290 293 294 293 293 300 299 302 304 306 308 307 309 310 309 310 311 310 313 313 313 314 317 320 322 322 321 320 320 321 321 320 320 319 320 320 320 320 320 319 317
286 281 279 290 297 301 299 289 300 302 301 301 304 300 304 309 310 311 312 314 313 315 315 314 314 315 316 319 320 319 320 321 321 321 320 320 320 319 316 318 313 303 299 300
285 284 288 295 298 302 288 290 300 301 300 300 300 302 307 309 310 311 312 313 316 316 314 315 316 317 316 317 318 321 322 322 321 321 319 318 316 311 305 299 295 291 289 290
285 282 281 299 298 292 297 301 302 303 303 304 305 305 305 308 309 310 310 313 315 314 312 312 315 317 317 317 319 319 318 317 317 317 311 308 303 300 296 293 289 287 286 285
290 289 298 301 299 302 303 302 303 303 304 305 305 305 307 308 309 310 310 312 313 313 309 308 309 312 314 311 314 314 313 308 305 303 301 300 298 294 291 291 289 286 285 283
291 295 296 299 301 302 302 301 303 303 302 305 304 307 307 308 308 308 310 311 312 311 307 303 304 304 307 306 307 303 299 296 295 294 293 292 291 291 290 288 286 284 283 281
292 295 297 298 300 300 300 302 301 300 299 298 298 300 300 302 301 301 304 306 308 307 302 300 299 298 299 300 300 296 294 293 291 289 287 285 284 287 287 287 287 285 283 281
289 295 294 296 299 298 298 298 298 296 295 295 294 294 295 294 295 295 296 295 293 292 292 292 291 290 291 294 294 292 289 288 287 286 286 284 283 282 284 284 284 284 283 281
293 295 296 298 300 297 296 295 295 294 292 291 292 291 291 290 288 289 290 289 288 286 286 287 287 289 287 287 288 288 286 286 286 285 283 282 282 281 279 282 283 282 282 282
289 290 292 292 290 293 293 292 292 290 290 288 288 289 288 286 286 284 283 284 284 284 283 284 283 282 285 286 286 285 284 283 283 283 282 281 281 280 280 279 277 278 281 282
286 288 288 291 290 287 287 286 286 283 283 283 284 283 283 281 279 279 280 281 281 280 279 280 280 280 283 283 283 283 283 282 282 281 281 281 280 280 279 279 279 278 279 280
285 288 288 286 285 284 284 282 282 281 281 281 280 280 279 278 277 276 276 277 276 275 276 277 277 279 280 281 280 280 280 280 280 280 280 281 280 280 280 280 280 279 279 278
281 282 282 283 283 283 282 282 281 280 279 278 278 278 277 276 275 274 274 274 274 274 275 276 276 278 278 279 280 279 279 279 279 280 280 279 279 279 279 278 277 276 275 277
281 282 282 281 281 280 279 279 278 277 275 275 275 274 273 273 272 273 273 274 273 272 273 274 276 276 277 278 279 279 279 277 277 276 277 277 276 277 277 277 276 274 274 274
280 279 279 279 279 279 278 276 275 275 274 274 273 272 273 272 273 272 273 273 272 272 272 274 275 275 275 276 278 277 276 275 275 275 275 275 275 275 275 274 274 274 273 273
277 278 277 277 277 277 275 275 275 274 274 273 273 272 272 272 272 271 271 270 270 271 272 273 274 273 273 274 274 274 274 273 273 272 272 272 272 272 271 271 272 272 272 271
275 275 274 274 274 274 273 273 272 271 272 272 270 269 268 269 271 272 271 269 269 271 271 270 271 272 272 272 272 272 272 272 271 270 270 270 270 270 270 270 269 269 269 269
274 273 273 273 272 272 272 273 272 271 271 271 271 271 270 269 269 268 268 269 270 269 270 270 269 268 270 270 270 270 270 269 269 269 269 268 268 268 268 268 267 268 268 267
274 274 273 272 272 271 272 271 271 271 269 269 268 268 268 268 270 269 266 268 269 268 269 267 266 266 267 269 269 268 267 267 266 266 266 266 266 266 266 265 265 266 265 265
274 273 273 273 273 272 270 270 271 270 269 269 269 269 270 269 268 270 269 266 265 266 265 265 265 265 266 267 267 266 266 266 266 266 265 264 265 264 264 264 263 264 263 263
273 273 273 272 272 271 271 271 270 270 269 269 268 269 268 269 267 267 267 266 265 266 265 263 263 264 266 265 265 265 264 264 265 265 264 264 264 263 264 263 262 262 262 262
272 271 270 270 271 271 271 272 270 270 269 267 267 267 267 267 267 266 265 264 265 264 265 265 264 265 265 264 264 264 264 264 264 263 263 263 263 262 261 261 261 261 260 260
271 272 271 270 270 270 270 270 269 268 268 267 266 266 266 266 265 265 264 265 264 264 264 264 264 263 264 264 264 264 264 263 259 262 262 262 262 261 260 260 260 260 259 259

GFSNGP_sfc_thetae_081.txt.gz
Theta_e
294 296 295 295 295 296 295 296 292 295 296 300 303 304 305 307 308 308 308 311 313 314 317 322 323 324 325 326 327 326 324 323 324 327 327 325 326 326 327 327 326 326 325 325
289 293 294 292 294 295 295 296 296 296 296 303 306 307 306 306 306 306 308 310 311 313 314 316 322 324 324 325 326 327 326 326 325 326 325 325 326 326 325 325 325 325 324 324
285 291 292 288 293 294 295 297 296 293 298 302 301 303 304 305 306 306 309 310 311 313 315 316 317 323 325 325 326 326 326 325 325 326 325 325 325 324 324 324 325 323 323 323
287 289 281 292 298 298 297 298 300 301 301 302 303 306 307 309 309 309 310 311 312 313 314 316 318 319 323 325 326 325 324 324 325 326 326 325 325 323 324 325 324 324 324 324
284 284 288 291 295 294 294 295 302 300 302 303 304 306 307 310 311 311 312 313 314 316 317 317 316 316 318 321 323 324 324 324 325 326 325 325 325 324 325 324 323 323 323 323
287 282 279 290 298 301 300 290 302 301 301 301 302 298 303 308 310 311 313 314 314 317 319 319 319 319 316 316 319 322 323 324 325 326 325 324 325 325 326 324 322 320 316 309
285 284 288 297 299 301 288 291 300 301 302 302 301 303 306 308 309 312 313 313 315 317 317 317 318 318 317 317 316 319 323 325 324 324 323 324 324 325 323 315 304 297 292 291
286 283 281 298 298 293 299 301 303 303 303 303 305 306 307 307 309 311 312 312 314 315 315 313 313 315 316 317 319 320 321 322 322 323 322 320 322 314 307 300 292 288 286 285
289 290 299 303 299 303 304 302 303 303 303 303 303 305 307 308 310 311 311 312 313 314 313 308 306 305 307 308 313 315 315 310 306 303 302 302 302 298 295 294 290 287 285 283
292 297 298 299 301 303 303 303 303 303 303 303 301 302 303 306 306 305 307 307 307 304 300 297 297 297 297 300 302 300 298 296 295 294 292 292 292 293 292 290 288 286 283 281
293 295 298 300 301 301 301 302 302 302 302 300 299 299 299 301 299 300 301 300 299 295 292 291 291 291 292 295 297 294 292 290 288 287 286 284 284 286 286 286 287 284 282 281
291 296 297 298 299 300 299 298 299 299 298 299 298 296 297 297 295 294 294 292 293 289 287 286 286 287 288 291 291 289 287 286 285 285 284 283 282 281 284 284 284 284 283 281
291 294 296 298 296 295 294 296 296 296 295 294 295 295 294 293 290 289 288 286 286 284 284 284 283 283 285 288 289 287 285 285 284 283 283 282 281 280 278 281 283 283 283 283
293 293 293 294 290 291 291 291 292 289 288 287 287 288 290 288 285 284 282 282 282 281 280 280 280 280 283 285 285 285 285 284 283 282 281 281 280 280 279 278 277 278 282 282
289 290 290 291 291 291 291 290 288 285 284 283 283 282 281 281 279 278 279 279 279 278 278 278 278 279 281 282 281 282 282 282 282 281 281 281 280 280 279 279 278 278 279 280
288 290 289 288 288 288 288 287 286 284 284 283 280 279 279 277 276 276 276 276 275 275 276 276 277 279 281 281 281 280 280 281 281 281 282 281 281 281 280 279 278 278 277 278
283 284 284 284 284 284 283 283 282 281 281 280 279 280 278 277 275 275 274 274 274 274 275 276 276 278 280 281 280 280 280 280 280 280 280 280 280 278 278 277 276 275 276 277
283 283 282 282 281 282 281 281 279 279 277 277 277 276 274 274 274 274 275 276 276 274 275 276 277 277 279 279 279 279 278 278 279 278 278 278 278 278 277 276 275 274 274 275
281 280 280 280 281 280 279 278 277 277 276 275 274 272 273 272 272 272 274 274 273 272 274 276 276 276 277 278 279 278 277 276 276 276 275 275 275 275 275 274 274 274 273 273
279 279 278 278 278 278 277 277 277 276 276 275 274 273 272 272 273 272 271 270 271 272 273 274 275 275 275 276 277 277 276 275 274 274 274 274 273 273 273 272 272 272 272 271
276 276 275 275 274 275 274 275 274 273 273 273 271 270 269 269 270 273 272 269 270 272 272 271 272 273 273 274 275 274 274 273 273 272 272 271 271 271 271 271 271 271 271 271
275 274 274 273 273 272 273 273 273 272 272 272 272 273 272 271 270 269 269 269 270 270 270 270 270 270 271 272 272 272 271 271 271 271 271 271 270 270 269 269 269 269 269 269
275 275 274 273 272 272 272 272 271 271 270 270 270 269 269 269 270 268 266 268 269 269 269 268 268 269 269 271 271 270 270 269 269 269 269 269 269 268 267 267 268 267 266 267
275 275 274 274 274 272 270 271 271 271 270 270 269 270 271 270 269 270 269 268 267 266 266 266 267 267 268 269 269 269 269 269 269 268 268 267 268 267 267 266 266 266 266 265
275 275 275 274 273 272 272 272 272 271 271 270 270 270 269 269 268 268 269 268 267 268 268 266 266 267 268 268 268 267 266 266 266 267 267 266 266 265 265 265 264 263 264 264
275 274 273 273 274 274 274 274 272 272 271 269 269 269 269 269 269 269 268 267 267 267 267 267 266 268 267 267 266 266 267 266 266 265 265 265 265 265 264 263 263 264 263 263
275 274 274 273 273 273 273 273 272 271 270 270 268 269 269 269 268 268 267 268 268 268 267 267 267 265 266 267 266 267 267 266 261 264 265 264 264 264 263 262 263 262 262 262

GFSNGP_sfc_thetae_084.txt.gz
Theta_e
291 293 293 294 293 294 293 294 290 293 294 299 302 304 305 307 307 307 307 309 310 311 313 320 321 323 324 325 325 324 321 320 322 323 323 324 324 323 322 323 323 323 321 320
287 293 292 290 293 293 295 295 296 296 295 303 306 305 305 305 306 306 307 309 311 312 312 313 315 322 323 324 325 325 323 321 321 323 323 323 322 322 322 322 322 322 321 320
283 290 291 287 292 293 294 296 295 291 297 302 302 302 303 304 307 307 308 309 311 312 313 313 314 316 322 324 325 325 324 324 323 322 322 323 322 321 321 321 322 320 320 320
284 287 280 291 298 298 295 297 298 298 300 302 302 304 307 308 307 308 309 310 311 313 314 316 317 317 317 318 324 324 324 324 324 324 322 322 322 321 320 320 320 320 320 320
283 283 287 290 294 293 292 292 300 300 300 301 302 304 305 307 308 308 310 311 311 314 315 316 316 317 317 317 315 322 323 323 324 324 323 322 321 320 321 320 320 319 319 318
286 280 278 289 295 300 299 288 300 300 299 300 301 296 300 306 307 307 310 312 311 314 316 313 313 315 315 317 317 317 319 323 324 324 323 322 322 321 321 321 320 320 317 308
284 283 287 294 298 300 287 290 301 301 301 301 299 301 305 307 307 309 311 311 313 315 311 308 307 308 312 313 310 315 319 319 320 324 323 323 322 322 321 320 310 298 291 291
285 282 280 298 297 292 298 302 301 301 301 300 301 303 304 306 307 308 308 309 310 310 306 301 300 299 301 300 304 308 311 308 306 307 311 316 317 306 304 299 293 289 287 285
288 287 297 302 301 302 303 301 301 300 301 301 300 301 302 303 304 304 304 302 302 301 299 297 295 294 293 295 300 299 297 296 295 296 296 297 302 300 296 294 290 287 285 283
291 295 297 299 300 301 302 300 301 301 300 300 298 299 299 301 299 299 299 296 297 294 292 289 290 290 289 291 296 293 291 289 288 287 287 287 289 289 289 289 287 286 284 282
293 295 297 296 298 299 299 299 298 300 299 297 297 296 297 296 294 293 293 291 291 289 287 286 287 286 288 290 292 290 288 287 286 285 284 282 282 283 284 285 287 285 283 282
289 293 293 292 296 298 297 296 296 296 295 296 294 294 294 293 290 289 287 286 285 284 283 283 283 283 285 288 289 288 286 285 284 284 283 282 281 280 284 283 283 283 283 282
289 293 296 295 293 294 293 293 293 292 290 288 289 289 289 288 285 285 283 282 281 281 281 281 281 281 283 285 286 285 284 284 283 283 282 282 281 280 278 281 283 283 283 283
291 292 291 291 289 292 292 292 293 290 288 286 285 285 284 282 280 279 279 279 279 279 279 279 279 279 281 283 284 283 282 281 281 281 280 280 279 279 279 278 277 278 281 282
288 291 291 291 291 290 291 290 289 286 285 283 283 281 280 277 276 275 276 277 277 277 277 278 279 279 281 282 281 281 281 281 281 280 280 280 279 279 278 278 277 277 278 279
287 290 287 287 286 286 286 284 283 282 282 281 280 279 278 277 276 275 276 276 274 274 275 276 278 279 281 281 281 280 280 281 281 281 281 280 279 278 277 277 277 277 277 277
282 281 282 281 282 283 282 281 281 279 279 278 278 278 277 277 276 276 275 275 275 275 275 275 276 279 280 280 279 279 279 279 279 279 278 277 276 275 275 274 273 273 274 275
282 282 281 281 281 281 280 279 278 277 276 276 276 275 273 273 273 273 273 273 273 272 274 275 276 277 278 278 278 278 277 276 276 275 276 276 275 275 275 274 273 272 272 273
280 279 279 279 280 279 278 277 276 276 275 274 273 272 271 271 271 270 271 270 269 268 269 274 275 275 276 277 277 276 276 275 275 274 274 273 273 273 273 272 271 271 271 270
277 277 277 276 277 276 275 275 275 274 274 273 271 270 268 270 272 270 269 268 269 269 270 271 273 273 274 275 275 275 275 274 273 272 272 272 272 271 271 271 271 270 270 269
274 274 273 273 273 273 273 273 272 271 272 272 270 269 268 269 268 270 269 267 268 270 270 270 270 272 272 273 273 273 272 272 271 271 270 270 269 269 269 269 269 269 268 268
274 273 272 272 272 271 272 272 272 271 270 270 270 270 271 270 268 267 267 267 269 269 269 269 270 270 271 271 271 271 270 270 269 269 269 268 268 267 267 267 267 267 267 266
274 273 273 272 271 271 271 271 271 270 269 270 270 269 269 269 269 266 264 267 268 267 268 268 268 269 269 270 270 269 269 268 267 267 267 267 267 266 265 265 265 265 263 265
274 274 274 274 273 272 270 271 271 271 270 269 269 268 270 268 268 269 269 267 266 266 266 267 267 268 268 268 267 266 267 267 267 267 266 265 266 265 264 263 263 264 262 262
275 275 274 274 273 272 272 272 272 271 271 270 269 269 269 268 267 267 268 268 268 267 267 266 267 267 267 267 267 267 265 264 264 265 265 265 264 263 263 263 260 260 261 262
275 274 274 274 274 275 274 274 272 272 271 269 269 269 269 269 269 269 268 268 268 267 267 266 265 266 267 266 266 266 265 263 264 264 264 264 263 263 261 260 261 261 260 260
275 275 274 273 273 273 273 272 271 270 270 269 268 269 269 269 268 268 267 268 268 268 268 267 266 264 265 265 265 266 266 263 260 262 263 263 263 262 260 260 260 260 259 259

GFSNGP_sfc_thetae_087.txt.gz
Theta_e
289 291 291 289 290 292 291 292 288 292 292 297 300 302 304 305 305 306 306 308 308 308 307 308 312 316 320 320 319 318 317 319 317 318 318 318 318 319 320 320 319 316 314 313
285 290 291 290 292 292 291 293 294 294 293 302 303 304 303 305 304 304 306 307 309 310 312 311 312 312 316 320 320 320 317 317 319 320 319 319 319 319 319 319 320 319 317 316
282 288 287 285 291 292 293 295 294 290 295 301 301 302 302 301 304 304 305 306 308 309 312 312 312 314 313 315 319 321 319 318 318 319 320 320 320 320 319 318 319 320 319 319
280 283 277 291 297 297 294 296 298 298 298 300 302 302 302 303 302 304 306 307 307 310 310 310 309 310 313 315 316 317 320 320 319 318 319 320 320 319 319 319 319 318 318 319
279 280 285 288 292 292 291 293 299 297 299 300 301 301 300 304 304 303 305 307 309 309 307 305 304 305 312 309 309 311 314 315 317 320 319 318 318 319 319 318 318 318 319 319
280 279 275 287 295 299 299 288 299 299 298 299 300 292 296 304 305 306 306 307 305 303 301 299 299 302 303 302 304 305 309 309 308 306 317 320 319 318 319 319 318 318 318 318
280 279 284 293 297 300 286 287 298 298 298 297 295 298 300 303 302 301 300 300 303 299 295 295 296 298 298 298 297 301 303 301 300 299 302 305 312 318 317 317 316 310 298 291
281 278 277 297 297 291 295 299 298 297 297 297 298 299 299 299 298 296 295 295 295 294 293 292 292 292 292 292 295 298 296 294 293 292 292 296 297 300 301 303 298 290 288 286
284 284 294 298 297 299 300 297 297 296 297 297 296 296 297 295 294 293 291 291 291 291 290 289 289 289 288 290 293 293 292 290 288 287 286 287 288 289 292 294 293 291 290 286
288 293 293 294 297 298 297 296 297 296 296 296 294 294 294 292 290 289 287 287 288 287 286 285 286 286 286 289 291 290 288 287 286 284 283 283 284 285 283 285 288 287 284 282
291 292 293 294 295 297 296 296 295 296 294 291 292 292 291 288 287 286 284 285 285 283 283 282 283 283 284 286 289 288 286 286 284 283 283 282 282 282 282 283 284 283 281 282
284 289 291 290 292 294 292 292 291 289 288 288 287 287 289 285 285 283 282 282 281 281 280 280 281 281 283 285 286 286 284 283 283 282 282 282 281 281 284 283 284 284 284 283
286 291 292 291 291 292 290 291 289 287 285 284 284 283 282 280 280 281 280 279 279 278 279 280 280 280 282 284 284 283 282 282 281 281 281 280 280 279 277 280 283 283 284 284
289 292 288 289 287 290 289 290 289 286 285 282 281 280 278 276 276 276 277 277 277 277 278 279 279 279 281 282 283 282 281 280 280 280 279 279 279 278 278 277 276 277 281 282
287 287 286 287 287 286 285 285 283 282 281 280 279 277 276 275 274 274 276 277 277 276 276 277 278 278 280 281 280 281 281 280 280 280 279 279 278 278 278 277 277 276 276 276
284 283 283 282 283 283 282 281 280 279 279 279 277 276 275 275 274 274 274 275 273 272 274 274 276 278 279 279 279 279 279 279 278 277 277 276 276 275 274 274 274 273 273 273
278 277 279 279 280 279 278 278 277 276 276 275 275 277 276 274 273 272 272 272 272 272 273 273 274 277 277 277 276 276 276 276 276 276 275 275 274 273 273 273 272 272 271 272
279 279 278 279 278 277 276 276 275 274 273 273 272 271 269 269 268 269 269 270 270 269 270 272 274 275 276 276 275 275 275 274 274 274 274 273 272 272 272 271 270 270 270 270
277 276 276 276 277 276 275 274 273 273 273 271 270 269 269 268 268 268 268 267 267 266 268 271 274 273 273 275 275 274 273 273 273 273 272 272 271 271 270 270 269 269 268 267
274 275 274 274 274 274 272 272 272 271 271 270 268 267 266 268 268 267 267 266 267 268 270 270 272 271 272 273 274 273 272 271 271 270 270 269 268 268 268 267 267 266 265 266
271 270 270 270 269 269 270 270 269 269 270 269 267 266 265 266 266 267 266 264 266 268 269 270 270 271 271 271 271 270 270 269 269 268 268 267 266 266 265 265 264 264 264 264
268 268 266 266 267 268 268 269 269 269 269 268 268 268 267 266 266 265 266 265 267 267 268 268 269 269 269 269 269 268 268 267 266 266 265 264 263 263 262 261 259 261 262 256
270 270 269 268 267 268 268 268 267 267 266 266 267 267 266 267 266 264 262 266 267 267 267 267 268 267 266 266 266 266 266 264 264 263 262 260 260 259 261 261 257 256 256 256
269 269 268 270 270 270 268 267 269 268 267 267 267 266 268 266 266 268 267 266 265 265 265 266 266 266 265 265 263 262 262 263 261 259 260 258 260 258 256 254 255 256 256 258
271 271 270 270 270 269 269 270 270 270 269 268 268 268 268 268 265 266 266 266 267 265 264 264 265 264 262 261 261 260 259 257 258 257 257 255 254 253 253 253 251 255 256 252
273 272 272 273 273 273 273 273 270 270 269 266 266 264 264 266 267 266 264 264 264 264 262 260 260 261 262 261 261 260 258 257 256 257 255 254 258 253 251 254 254 252 251 250
273 273 272 271 271 271 270 270 268 267 267 263 263 265 265 263 263 264 262 260 259 260 260 259 256 256 256 255 256 256 258 256 255 254 252 251 253 252 250 249 249 249 251 250

GFSNGP_sfc_thetae_093.txt.gz
Theta_e
286 288 288 288 289 290 288 289 286 288 290 295 299 300 301 303 305 306 307 307 307 307 308 310 310 313 315 316 316 316 315 314 315 315 315 315 313 313 312 311 310 309 309 309
281 286 287 285 286 286 290 291 290 291 290 299 303 303 302 302 304 303 305 304 304 304 304 304 307 306 308 310 313 317 316 315 316 315 315 314 315 314 314 312 312 311 310 309
278 283 283 279 286 287 291 292 292 288 294 299 300 301 300 303 302 303 301 300 299 299 299 300 302 303 302 304 308 312 315 316 317 316 315 316 316 316 317 316 315 313 312 311
278 280 272 284 290 295 292 293 295 295 297 298 298 298 299 302 301 298 297 296 296 296 295 295 299 302 302 302 303 303 303 303 304 306 309 315 317 316 316 316 317 316 316 315
276 276 280 284 289 289 288 290 298 297 298 298 298 297 294 296 296 295 294 294 293 293 293 293 295 298 298 298 299 298 298 298 298 299 302 303 306 309 317 316 316 317 318 317
277 275 271 283 292 296 296 286 297 299 298 298 299 290 290 294 293 292 292 293 291 291 289 289 290 294 295 294 295 294 294 293 293 293 296 295 297 299 302 305 314 317 316 316
278 277 280 289 293 297 283 284 295 297 298 297 292 294 292 292 290 290 290 289 291 289 287 286 287 290 290 291 291 293 292 290 289 289 290 290 291 293 295 298 298 294 290 287
279 278 274 292 293 287 292 294 295 294 295 293 292 292 290 288 287 286 286 287 288 287 286 285 286 287 287 287 291 291 289 286 285 285 286 287 286 287 289 291 290 288 286 284
281 280 292 294 292 294 294 290 290 292 293 292 290 288 287 285 284 284 285 285 286 285 284 284 284 284 284 285 289 289 286 284 284 283 284 284 284 284 284 286 286 285 285 284
287 291 291 292 293 292 292 290 288 288 288 290 287 286 284 284 282 282 283 282 283 283 282 281 283 283 284 285 288 287 284 283 283 282 282 283 283 283 282 282 282 282 282 281
286 288 290 290 291 290 288 289 287 285 284 284 284 282 281 280 280 280 279 281 281 280 280 280 281 282 283 284 285 284 284 283 282 282 281 281 281 282 282 283 282 280 280 279
280 284 287 286 289 290 287 284 284 283 281 280 281 279 279 278 278 278 277 278 278 279 279 279 280 281 282 283 283 283 282 281 281 281 281 281 280 278 282 282 283 284 284 282
284 287 286 286 287 287 285 284 283 281 280 278 278 277 277 276 277 277 277 276 276 277 278 278 278 278 280 282 282 281 280 280 280 280 280 279 278 277 274 276 279 280 281 281
284 287 284 283 282 285 285 283 282 280 278 277 277 277 276 275 275 275 274 275 275 275 275 275 275 275 277 279 279 279 279 278 278 278 277 277 276 274 273 271 270 271 275 278
282 283 283 283 282 281 281 281 279 278 277 275 276 275 274 272 271 271 272 273 273 273 273 273 274 274 275 276 275 275 275 275 275 275 275 274 273 272 271 270 269 269 270 271
280 280 280 279 277 277 277 277 276 276 276 275 274 273 272 272 271 270 271 270 269 268 271 270 272 274 275 274 274 274 274 274 274 273 273 273 272 271 270 270 269 268 267 268
277 275 277 277 276 275 275 275 275 274 274 273 273 273 272 270 269 269 268 269 269 268 269 270 270 272 273 272 272 271 272 272 272 272 271 271 270 270 269 269 267 266 265 267
276 276 277 276 275 274 274 274 273 272 271 270 269 267 266 265 265 266 266 267 267 266 267 269 271 271 272 271 270 271 271 270 271 270 271 270 269 269 268 268 267 266 265 265
275 275 275 275 274 274 272 271 270 270 269 268 266 265 265 264 265 265 265 264 263 264 265 268 272 269 269 272 271 271 270 269 269 269 269 268 267 268 267 266 265 264 264 263
272 273 273 271 273 273 271 270 269 268 267 266 265 263 263 263 264 263 264 263 264 265 267 267 268 268 268 268 269 268 268 267 267 266 266 265 264 264 265 265 264 263 261 260
267 267 267 267 266 265 264 262 262 262 261 260 261 260 262 262 263 263 262 263 264 266 267 267 266 267 267 267 267 266 265 265 264 263 263 262 261 261 261 261 260 260 260 259
263 264 260 261 263 263 262 262 262 260 260 259 258 257 258 259 259 261 263 264 266 265 266 266 266 264 265 266 265 264 264 263 262 262 261 260 259 258 257 258 257 256 255 254
262 263 263 261 261 261 262 262 260 260 260 260 258 259 260 262 262 260 261 265 266 265 266 265 264 263 263 263 262 262 261 261 260 259 258 256 256 255 255 254 253 253 251 251
262 263 261 262 263 266 265 265 266 265 261 264 263 262 265 261 262 266 266 263 261 262 263 263 262 262 261 260 260 259 258 257 256 256 256 254 251 252 253 251 252 250 249 249
264 263 264 263 265 265 267 267 268 268 267 267 266 267 267 267 260 263 263 263 263 261 260 260 260 259 257 257 256 255 255 253 253 253 252 251 250 250 249 250 249 248 248 248
269 268 268 269 269 269 269 269 268 267 266 262 262 257 259 261 263 263 262 261 261 260 258 255 254 254 254 255 253 252 253 255 252 251 249 248 247 247 247 247 247 247 245 244
269 270 270 269 270 269 269 268 266 266 263 257 257 256 258 256 257 258 254 253 252 253 254 252 251 252 251 249 250 250 249 248 248 248 245 246 246 245 245 244 244 244 245 247

GFSNGP_sfc_thetae_096.txt.gz
Theta_e
285 286 287 286 286 288 287 288 284 285 287 292 297 299 301 303 305 303 300 300 301 302 304 306 308 311 316 316 316 315 315 315 315 315 315 312 310 309 309 308 307 307 308 308
281 285 286 283 285 284 285 286 287 289 289 298 300 303 302 303 303 299 297 297 297 297 299 301 302 303 305 307 309 316 315 314 315 315 316 315 314 311 310 309 308 307 306 307
278 282 282 277 281 288 289 291 290 286 292 297 299 300 301 302 300 297 296 295 294 294 294 297 299 300 300 302 304 305 305 306 308 312 315 315 315 314 312 311 310 309 308 308
278 280 270 280 287 292 289 293 294 293 294 297 295 295 295 297 296 294 293 293 292 291 292 292 296 298 298 299 299 299 298 298 298 301 303 305 309 313 315 316 314 313 312 312
275 276 279 282 288 288 287 288 297 296 297 296 296 296 292 293 293 292 292 292 290 290 290 290 290 296 296 295 295 294 293 293 293 295 296 296 297 298 301 302 311 315 316 315
277 274 269 280 290 294 294 283 294 298 297 297 296 289 288 290 290 290 291 290 288 288 288 287 288 292 293 292 292 290 289 289 290 290 291 290 292 292 295 298 299 300 293 288
277 277 280 287 291 294 281 283 293 296 298 296 289 289 288 288 287 288 288 288 289 287 285 285 287 290 288 289 289 289 287 286 286 287 288 287 289 290 291 292 291 288 286 285
279 277 274 291 291 284 289 289 291 292 292 290 289 287 287 285 285 285 285 285 286 285 284 284 285 286 286 285 289 288 286 285 284 285 286 286 286 286 287 288 287 286 285 283
282 281 291 292 291 291 290 287 287 289 289 288 286 285 284 283 283 283 283 283 284 284 283 283 284 284 283 284 288 287 285 283 283 283 284 284 283 283 283 284 283 283 282 281
284 289 289 290 290 290 289 287 286 287 286 286 283 283 281 281 280 280 280 280 282 282 281 280 282 283 283 284 287 286 284 282 282 282 281 282 283 283 281 281 280 280 279 279
285 286 288 287 288 288 287 287 283 282 282 282 282 280 280 278 278 278 278 279 279 279 279 279 280 281 282 283 285 283 283 282 282 282 280 279 279 280 281 282 282 281 281 281
279 283 285 284 287 287 284 282 282 281 279 278 279 278 278 277 277 276 276 277 277 277 277 277 278 278 280 282 283 282 281 281 281 281 280 279 277 276 280 281 282 282 282 280
281 286 285 285 285 285 282 281 280 278 277 276 277 277 277 275 276 276 275 274 274 275 275 276 276 276 277 279 280 280 280 280 279 279 278 277 276 274 271 274 277 279 280 280
283 285 283 281 279 281 282 281 280 277 277 276 276 275 275 274 273 272 272 273 274 273 273 274 274 274 275 277 277 276 275 276 276 275 275 274 272 271 270 269 268 269 274 276
280 282 282 280 279 278 278 279 277 276 275 274 274 273 272 271 270 270 271 272 272 272 271 271 272 272 274 275 274 274 274 274 273 273 273 272 271 270 270 269 268 268 269 270
279 279 279 277 276 275 275 275 275 274 275 274 272 272 271 271 270 269 270 270 268 267 269 269 270 272 274 274 273 273 273 273 272 272 271 270 270 269 268 267 265 265 265 265
276 275 276 276 275 274 273 274 273 273 272 271 271 271 271 270 269 268 268 268 268 268 269 269 269 270 272 271 271 271 271 271 271 271 270 270 269 268 267 265 264 263 262 264
276 276 276 275 274 273 272 272 271 271 269 269 268 266 265 265 265 265 265 266 266 266 267 268 270 269 270 270 270 270 270 270 270 269 269 268 268 267 265 264 263 263 262 263
274 274 274 274 273 272 271 269 269 269 267 266 264 262 261 261 262 261 262 262 263 264 265 266 271 268 268 270 269 269 269 268 268 268 268 267 266 266 264 262 261 261 261 260
272 272 271 270 271 271 269 268 267 265 264 262 259 258 258 257 257 257 258 261 262 262 263 265 266 266 267 267 267 267 266 265 266 265 264 263 262 261 262 261 260 258 257 258
267 267 266 266 264 264 262 260 261 260 257 258 259 257 256 258 259 259 260 261 263 264 265 266 265 265 266 266 266 264 263 263 262 262 261 260 260 260 259 258 258 257 257 257
262 262 259 260 262 261 261 259 260 257 258 256 254 253 254 256 256 258 258 262 264 262 264 264 264 262 263 264 264 263 263 262 261 261 260 259 258 257 256 256 255 254 253 252
260 261 261 259 260 259 259 259 256 257 256 254 254 255 258 260 259 258 258 263 265 264 264 263 262 261 261 261 261 260 260 259 258 258 257 256 255 254 254 253 252 253 251 252
261 262 260 261 262 264 262 260 262 260 257 260 258 256 262 257 258 265 264 261 260 261 260 261 261 260 259 258 257 257 256 255 254 254 255 253 250 251 251 250 250 249 249 250
263 261 261 261 263 262 263 264 265 264 265 265 264 265 265 265 258 260 258 259 262 260 258 258 258 256 255 254 254 253 253 251 251 252 251 250 249 248 248 249 248 248 246 247
265 265 265 266 267 268 268 268 266 266 264 260 259 253 255 256 259 259 258 257 258 257 255 251 251 252 252 253 252 252 252 253 250 250 248 248 247 248 247 247 245 245 245 244
268 268 268 269 269 269 268 268 266 264 263 257 256 254 256 254 253 256 251 249 249 251 250 249 249 250 250 248 248 248 248 247 247 247 244 244 244 244 243 243 243 243 243 243

GFSNGP_sfc_thetae_099.txt.gz
Theta_e
286 287 288 287 286 287 285 287 284 287 287 291 294 298 302 304 301 298 297 296 296 296 298 300 302 305 308 314 318 318 316 316 316 317 317 316 316 316 315 314 315 316 316 316
283 286 287 284 286 285 286 287 287 288 287 296 299 300 302 302 298 296 294 294 294 294 294 297 298 300 301 302 311 317 317 316 317 316 316 315 315 317 315 315 314 314 314 314
278 284 283 279 283 285 289 292 292 288 293 297 297 295 297 296 295 293 293 292 291 292 292 292 296 298 297 298 299 299 300 301 303 306 308 310 315 315 314 315 315 314 314 314
280 281 272 282 289 290 288 291 295 296 297 296 293 291 291 292 291 291 291 290 289 289 290 291 295 296 296 295 295 294 294 294 296 298 299 300 302 302 303 307 314 313 313 313
278 278 281 284 289 288 287 286 294 295 296 294 295 294 287 288 288 289 289 288 287 288 289 290 292 294 295 294 292 290 290 290 291 293 293 294 295 295 297 301 300 294 293 296
280 275 272 282 289 294 293 284 292 294 296 293 295 286 285 286 286 287 288 288 287 287 287 287 289 292 292 290 289 288 288 289 289 291 290 291 292 293 295 295 292 291 288 287
280 278 281 288 291 294 280 282 291 291 292 292 287 286 285 285 285 285 286 286 288 286 285 285 287 289 288 289 287 288 288 288 288 288 288 289 290 290 292 290 289 287 285 284
281 278 275 291 291 285 288 289 289 289 288 286 286 285 284 284 283 283 283 284 285 285 284 284 285 286 286 286 287 287 287 286 286 286 286 287 287 288 288 288 286 285 284 283
283 283 290 291 289 289 289 286 287 288 288 287 284 283 282 281 281 281 281 282 284 283 283 283 284 284 283 285 287 286 285 284 284 284 284 285 284 284 285 285 284 284 283 283
284 285 285 288 288 288 287 284 283 285 285 285 283 282 280 280 279 279 279 280 281 281 281 280 282 282 283 284 286 285 284 283 283 282 282 283 283 283 283 283 283 283 282 282
283 284 286 285 286 285 284 285 282 281 281 281 281 280 279 278 278 278 278 279 280 279 278 278 280 280 281 284 285 284 283 283 282 282 281 280 280 282 282 282 283 282 281 282
278 282 283 282 285 284 282 280 280 280 278 279 279 278 278 277 277 276 276 277 277 278 278 278 278 279 280 281 283 284 283 282 282 282 281 280 279 278 280 281 281 282 281 281
281 285 283 283 284 284 281 280 279 278 278 277 277 277 276 275 275 275 276 275 275 275 276 277 277 277 278 280 280 280 280 281 281 280 279 278 278 277 275 276 278 279 280 280
283 285 281 280 278 281 281 279 279 277 277 276 276 275 275 274 273 273 273 274 274 274 274 275 275 275 276 278 278 277 277 276 277 277 277 276 276 275 275 275 273 273 274 277
281 282 280 279 278 278 279 279 277 276 275 274 274 273 273 272 271 271 272 273 273 273 273 273 273 273 276 276 276 276 278 277 277 276 276 275 275 275 274 273 272 272 273 273
279 280 279 277 276 276 276 276 275 274 274 274 273 272 272 272 271 271 271 271 270 269 270 270 271 272 274 275 276 276 275 274 275 276 275 274 274 273 272 271 270 270 269 269
278 275 276 276 275 274 273 274 273 273 272 271 271 272 271 270 270 269 269 270 269 269 269 270 270 271 272 272 274 275 275 274 273 274 274 273 272 271 271 270 269 268 267 267
276 276 276 276 274 273 272 272 271 271 269 269 268 267 265 266 266 266 266 267 267 267 267 268 270 270 270 272 273 274 274 274 273 272 272 272 271 270 269 269 268 267 267 266
275 274 275 274 273 272 271 270 269 269 267 266 264 263 264 264 264 264 265 265 265 266 266 267 270 269 269 271 272 273 272 272 271 271 270 269 269 269 268 267 266 266 266 265
272 273 272 271 272 271 269 269 268 266 266 264 263 262 262 262 262 263 264 264 264 265 267 267 268 268 269 268 269 270 270 270 269 269 268 268 268 267 266 265 265 265 265 264
268 268 268 267 265 264 263 264 263 262 261 261 262 261 261 261 262 262 265 265 265 266 267 267 267 268 269 268 269 269 268 268 267 267 267 266 266 265 265 265 264 264 263 263
266 265 263 264 264 263 263 264 264 262 262 261 259 259 262 263 263 264 263 265 267 265 267 267 267 264 265 266 267 267 267 266 266 266 265 265 265 264 264 263 263 262 262 262
266 266 265 264 265 265 264 264 262 263 262 261 262 264 265 265 266 265 264 266 267 266 267 266 264 263 263 265 265 265 264 264 264 263 263 263 263 263 263 262 262 262 262 261
266 266 265 265 265 267 266 266 266 265 263 264 264 262 266 266 266 267 267 264 263 264 264 264 263 262 262 264 264 263 263 263 263 263 262 260 262 262 262 261 261 262 261 260
267 266 266 266 267 268 267 267 267 267 267 267 266 267 267 268 267 266 266 265 264 264 264 260 260 260 263 263 263 262 262 263 262 262 262 262 261 261 261 261 260 260 260 260
268 269 269 268 270 270 270 269 269 269 267 266 266 265 266 266 266 266 265 263 264 262 264 264 263 263 263 263 262 262 262 262 262 262 261 261 261 261 260 260 260 260 260 260
271 269 270 270 271 271 270 270 270 269 267 266 266 265 265 265 264 264 260 264 263 263 263 263 263 262 262 262 262 262 262 262 258 261 261 261 260 261 260 259 259 259 258 257

GFSNGP_sfc_thetae_102.txt.gz
Theta_e
288 290 290 289 288 289 287 288 286 289 290 294 298 301 303 303 299 298 298 294 292 293 295 298 300 301 304 314 317 318 318 318 318 319 320 319 319 319 321 321 320 320 320 321
284 288 288 285 287 287 287 290 291 292 292 300 297 298 296 295 294 293 293 292 291 291 292 295 297 297 298 300 302 305 306 308 317 318 317 317 319 318 318 319 319 319 319 319
280 285 284 281 286 287 289 292 293 288 295 297 288 286 286 288 290 289 290 289 288 288 290 293 295 296 295 295 297 297 298 299 300 304 306 308 314 316 318 319 319 318 318 319
282 283 274 285 293 292 289 293 295 295 293 290 288 286 286 287 286 286 287 287 286 286 288 291 294 294 294 294 294 293 292 294 295 297 298 299 300 301 303 306 303 307 305 313
281 280 283 288 290 290 289 289 292 292 294 294 292 292 286 286 286 285 286 287 287 287 286 289 291 293 293 292 291 290 290 291 292 293 294 294 294 296 298 297 293 291 291 293
284 278 275 286 292 296 295 286 292 291 290 293 292 290 285 286 285 285 286 287 286 287 287 286 289 292 291 289 290 289 289 289 291 291 292 292 293 294 293 291 289 288 286 287
283 281 284 291 294 296 284 283 290 289 287 286 283 284 285 285 284 284 285 285 287 286 286 286 288 289 288 289 288 290 289 289 289 291 290 291 292 292 291 289 287 286 284 285
284 280 277 290 293 287 287 288 288 288 288 287 286 285 284 283 283 283 283 285 286 285 284 285 286 287 286 286 288 288 288 288 288 288 289 290 290 290 291 289 287 286 285 284
283 281 286 287 285 286 287 285 286 287 287 287 285 284 283 281 282 282 282 283 285 284 284 284 285 285 284 286 288 287 286 287 287 287 287 287 288 289 288 290 289 287 287 286
285 284 284 286 286 286 286 285 285 285 286 287 285 283 282 281 281 280 281 282 283 285 284 283 283 283 284 286 287 287 286 285 284 283 284 286 286 285 285 286 286 285 285 284
285 286 285 285 286 286 285 286 285 285 284 284 285 283 282 280 280 279 280 281 282 283 283 283 283 283 284 285 287 286 285 285 284 283 283 281 281 282 282 283 284 283 283 284
281 283 284 283 285 285 283 282 282 283 282 283 283 282 281 280 280 280 279 280 280 281 281 281 282 282 283 284 285 285 284 284 284 284 284 284 282 279 280 281 281 282 282 282
283 285 284 284 285 284 282 281 282 282 282 281 281 281 280 279 278 278 279 279 279 279 280 280 280 280 280 282 283 282 282 283 283 283 283 282 282 281 278 278 278 279 280 280
285 285 283 283 281 283 282 282 281 281 280 280 280 280 279 278 278 277 277 277 278 278 278 279 279 277 279 281 281 281 281 280 281 281 281 281 280 280 280 279 277 276 276 277
283 283 282 281 281 281 282 281 280 279 278 278 278 278 278 276 275 275 276 277 277 277 276 276 276 276 278 280 280 279 281 280 280 280 280 280 280 279 279 278 278 277 278 277
282 281 280 278 279 279 279 279 278 277 277 277 276 275 276 276 275 275 275 274 273 273 273 273 274 274 277 278 280 280 279 278 279 279 279 279 279 278 278 277 276 275 274 274
280 279 279 278 277 276 276 276 276 275 275 275 274 275 275 274 273 273 273 273 272 271 272 272 273 273 275 276 278 279 279 279 278 279 278 278 278 277 276 276 275 273 271 271
281 280 279 278 277 276 275 275 275 274 273 272 271 270 268 269 269 269 269 270 270 270 270 271 272 273 273 275 277 278 278 278 278 277 277 277 276 276 275 275 274 273 272 271
279 278 277 277 276 276 274 273 273 272 270 269 268 267 267 267 268 268 269 269 269 270 269 270 272 273 273 273 276 277 277 277 276 276 275 274 274 274 274 273 272 272 272 271
276 276 276 275 276 275 273 272 272 270 269 268 267 267 267 266 266 267 269 267 268 269 270 270 272 273 273 272 273 276 275 275 274 274 274 274 273 272 270 269 271 271 271 270
273 273 272 270 269 268 268 268 268 267 266 266 267 265 265 266 266 267 270 271 269 269 270 270 270 271 272 272 274 274 274 273 273 273 272 272 272 271 271 270 270 270 270 269
271 269 268 268 268 268 268 269 268 267 266 265 263 264 266 267 267 267 267 269 271 268 270 271 270 267 269 270 272 272 272 271 272 272 271 271 271 270 270 269 269 268 268 268
271 271 270 269 270 270 269 269 268 268 267 267 267 268 269 270 271 270 270 269 271 268 270 269 266 266 267 270 270 270 269 269 269 269 269 269 269 269 269 268 268 268 267 267
272 272 271 271 270 271 271 270 271 270 268 269 268 267 269 271 271 271 271 268 266 267 267 267 266 265 266 269 268 268 268 268 268 268 267 265 268 267 267 267 267 267 266 265
272 271 271 270 272 274 272 272 271 271 270 271 270 270 270 271 270 270 270 270 266 268 269 264 264 265 268 268 267 267 267 267 267 267 267 267 267 266 267 267 266 266 266 266
273 275 275 273 274 275 274 274 272 273 272 271 272 272 272 272 271 271 270 267 268 267 269 269 267 267 268 267 267 266 267 267 267 267 265 267 266 266 266 265 265 265 265 265
275 273 275 274 275 275 274 273 273 273 273 272 271 272 271 271 270 269 266 270 269 268 269 269 268 267 266 266 267 267 267 267 264 266 266 266 266 266 265 265 265 265 264 263

GFSNGP_sfc_thetae_105.txt.gz
Theta_e
291 293 293 292 291 292 290 290 286 290 292 296 297 295 293 293 293 293 294 293 294 294 291 290 295 297 299 304 316 318 318 319 319 322 323 325 323 321 321 321 320 320 320 321
286 290 291 289 289 288 288 289 291 292 292 298 296 294 288 288 288 288 288 290 289 291 289 288 293 293 295 296 298 303 303 303 315 319 320 320 319 319 320 320 320 320 319 320
281 287 286 283 287 289 290 293 293 289 293 298 291 287 285 286 286 286 286 287 287 286 287 288 291 293 292 293 295 295 295 297 300 304 305 306 315 317 317 318 320 319 319 319
282 284 277 288 294 293 293 292 292 291 292 290 286 285 286 287 286 285 286 286 286 285 285 288 290 291 292 292 292 292 292 293 295 297 298 299 301 302 302 301 299 300 299 299
283 282 285 288 291 291 290 287 292 291 291 293 289 290 287 286 286 285 286 287 287 287 285 287 288 291 291 291 290 289 288 289 292 293 293 294 293 294 295 292 290 290 290 290
286 279 278 286 293 296 296 284 291 292 289 290 290 289 286 286 286 286 287 288 287 287 287 285 285 289 288 287 288 287 286 288 291 292 292 292 292 290 289 288 287 287 286 286
285 284 285 286 291 295 284 281 289 290 290 289 284 284 285 286 285 285 286 288 289 287 286 286 288 287 287 287 285 287 288 288 290 291 291 291 291 290 288 286 285 285 284 284
286 283 279 286 292 285 285 287 288 288 289 288 287 286 285 284 284 285 285 287 288 287 285 286 287 287 285 285 288 287 287 288 288 289 290 291 291 291 291 290 288 287 286 285
283 281 285 286 285 287 289 287 287 288 289 289 287 285 284 284 284 284 285 286 288 288 287 286 286 286 284 286 288 287 286 286 286 286 288 287 287 288 289 289 288 287 287 286
284 284 285 287 288 288 288 287 287 288 288 289 287 287 286 285 285 284 284 284 286 287 286 285 285 285 286 287 289 288 286 285 285 282 282 283 284 283 282 285 286 286 285 284
284 285 286 286 286 287 286 287 288 288 287 287 287 286 286 285 284 284 283 284 284 284 284 284 284 284 284 286 287 287 287 286 285 284 282 280 279 280 281 281 282 283 281 282
282 285 285 284 286 287 286 285 286 286 286 286 285 285 285 284 283 283 282 283 283 283 283 283 283 282 283 284 285 285 285 284 284 285 285 283 281 279 280 281 281 281 282 281
284 286 286 286 286 286 284 284 285 284 284 284 284 284 283 282 282 281 282 281 281 281 281 282 280 279 281 282 283 282 282 283 284 284 284 283 283 281 278 278 279 279 279 280
287 287 284 286 283 285 285 285 284 284 284 283 283 283 282 281 280 279 279 280 280 280 279 279 279 278 279 282 281 282 282 281 282 282 282 282 282 281 282 280 278 277 277 278
286 286 285 284 284 283 285 284 283 281 281 281 281 280 280 279 278 277 278 279 279 278 277 277 276 276 278 280 282 280 281 282 282 281 281 281 281 281 281 280 279 279 279 279
285 284 283 282 281 281 282 281 280 279 279 279 279 278 279 278 278 277 276 276 274 273 274 274 274 275 277 278 281 281 280 280 281 281 281 281 281 280 280 279 277 276 275 276
283 282 282 280 280 279 279 279 279 278 277 276 276 276 277 277 276 274 274 274 273 272 273 273 273 275 275 277 280 280 281 280 280 280 279 279 279 278 278 277 276 274 273 274
285 283 283 282 281 279 278 278 277 276 274 274 273 271 271 271 271 271 271 272 273 272 272 272 273 275 275 275 277 280 280 280 279 279 278 278 278 277 277 277 276 275 274 273
282 281 280 280 280 279 277 276 275 274 272 271 270 269 269 269 270 270 271 271 271 272 271 272 273 275 275 274 276 279 279 278 278 277 277 277 276 276 275 275 274 274 274 273
280 280 279 278 278 277 275 275 274 272 271 271 270 269 269 268 268 269 272 269 269 270 272 272 273 275 274 275 276 278 277 277 276 275 275 275 275 274 273 272 274 274 273 272
277 276 274 273 271 271 271 271 270 269 268 268 268 267 267 268 268 268 272 274 272 270 272 273 272 271 273 273 276 276 276 276 275 275 274 274 274 274 273 273 273 272 272 271
274 272 271 271 271 270 271 271 270 269 269 267 266 267 268 271 270 270 269 270 274 268 273 272 270 268 270 271 274 274 273 273 273 273 273 273 273 272 272 271 271 271 271 270
273 273 272 271 272 272 272 271 270 270 269 269 269 270 271 272 273 272 272 271 272 270 272 270 267 267 268 272 272 272 272 271 271 271 271 271 271 271 271 270 270 270 269 269
275 274 273 274 273 273 273 272 273 272 270 271 269 268 271 273 274 274 273 269 268 268 269 268 267 266 268 271 271 271 271 271 270 270 271 268 270 270 270 269 269 269 268 267
275 274 274 273 274 275 274 274 273 273 273 274 273 273 272 273 272 272 272 272 268 269 271 266 266 267 270 270 269 269 270 269 268 269 269 269 269 269 269 268 267 268 267 267
276 277 277 276 276 277 277 277 275 276 276 274 275 275 274 274 273 272 272 269 270 269 270 270 270 269 270 270 269 268 268 269 269 269 267 268 268 268 267 267 266 267 267 267
277 275 277 277 277 277 276 275 274 275 276 275 273 275 273 273 272 270 269 271 271 270 270 271 270 269 269 268 269 269 269 269 267 268 267 268 268 268 267 266 266 266 266 265

GFSNGP_sfc_thetae_108.txt.gz
Theta_e
289 293 293 291 291 292 290 290 286 289 288 289 290 288 288 288 289 288 288 288 289 289 290 292 291 292 293 294 297 301 309 316 319 321 322 323 322 320 320 320 320 319 319 319
284 291 291 287 289 289 291 292 292 292 288 291 290 289 287 286 286 285 286 287 287 287 288 289 291 290 291 292 293 295 296 297 302 312 317 319 319 319 319 318 318 318 318 319
281 287 287 282 288 290 290 290 290 286 289 290 285 284 283 284 285 285 286 286 286 286 286 287 290 291 290 291 292 292 292 294 295 298 301 305 313 314 313 312 317 314 314 302
281 284 277 287 295 293 289 289 291 290 290 287 284 285 285 286 284 284 285 286 285 285 285 286 288 290 291 291 290 289 290 291 292 294 294 295 298 297 296 296 296 296 296 296
282 281 285 288 290 288 288 284 289 289 290 290 288 289 284 286 286 285 286 287 287 287 286 287 287 289 289 288 288 287 287 288 290 291 291 290 290 290 290 289 288 287 288 288
286 280 278 283 287 293 293 280 288 289 288 289 290 285 282 285 285 285 286 290 289 288 287 286 287 288 287 286 286 285 285 286 288 290 289 288 286 286 288 288 287 286 285 285
285 282 282 284 289 293 282 279 288 288 288 286 282 283 285 285 285 285 286 288 290 288 286 286 287 287 286 286 284 285 287 286 286 287 288 289 287 287 288 286 286 285 284 284
284 281 277 286 288 282 284 288 288 288 288 287 286 285 285 285 285 286 286 287 288 288 286 286 286 286 285 285 286 286 286 285 284 285 286 285 286 288 288 287 285 285 285 284
281 280 285 287 285 288 289 286 287 287 288 289 287 286 286 285 285 285 285 285 287 286 285 285 285 285 283 285 288 286 285 283 283 282 282 284 283 283 284 286 286 284 283 283
284 284 284 286 287 287 288 287 288 288 288 288 286 286 285 285 284 284 284 284 285 285 283 283 284 284 284 285 287 287 286 285 283 281 279 280 281 281 280 281 282 281 282 280
283 285 285 285 286 287 286 288 287 288 287 286 286 285 285 283 283 283 283 283 284 283 282 281 281 282 283 284 285 286 285 285 285 282 280 279 279 279 279 280 281 279 279 279
281 286 285 284 286 287 286 285 286 285 285 285 285 284 284 282 282 282 281 282 281 281 280 280 279 279 281 283 284 283 283 283 283 284 283 280 278 277 280 280 281 281 281 280
284 287 286 286 286 287 285 284 285 284 284 283 283 283 283 281 280 281 281 280 279 278 279 278 278 278 280 282 282 282 281 282 282 282 282 282 281 278 275 277 279 280 281 281
288 287 284 286 284 286 286 286 286 284 283 282 282 282 281 280 279 278 277 279 279 278 277 277 276 276 278 280 281 280 282 281 281 282 281 281 281 281 280 277 275 275 279 279
286 286 285 286 285 284 285 285 283 281 281 280 280 279 279 278 276 276 276 276 277 276 275 274 274 274 276 278 281 280 280 281 282 281 281 281 280 280 279 278 277 276 277 278
285 285 284 283 282 282 282 282 280 278 278 278 277 277 278 278 276 275 275 274 272 272 272 272 273 275 276 276 278 281 280 279 280 281 280 280 280 279 278 276 274 273 273 273
284 282 283 281 280 279 279 279 278 277 276 275 274 274 274 276 274 273 273 274 273 271 272 271 271 274 274 274 275 280 280 280 279 279 279 279 278 278 277 275 273 272 271 272
285 284 284 283 280 279 278 278 277 275 273 273 272 271 269 270 270 270 270 272 272 271 271 270 271 273 272 273 274 279 279 279 278 277 277 277 277 277 276 275 274 272 272 271
283 281 281 280 280 279 277 275 274 273 272 271 270 269 268 267 268 269 271 268 267 269 270 271 273 273 273 273 274 277 277 277 276 276 277 275 274 274 275 274 273 273 272 271
280 280 279 278 278 277 275 274 273 270 270 270 268 267 268 265 266 266 269 268 268 268 270 272 271 270 272 272 273 276 276 275 275 275 273 274 274 273 271 269 271 272 270 269
276 275 273 272 270 270 270 270 268 267 266 265 266 265 265 267 267 266 270 272 269 269 271 271 269 268 271 269 273 274 274 273 273 273 273 273 273 272 271 271 271 270 270 269
274 271 270 270 270 270 270 271 270 267 267 265 264 264 265 270 270 269 266 268 272 267 270 270 268 265 267 267 273 272 271 271 271 271 271 271 271 270 270 269 268 269 268 267
273 272 272 271 271 272 272 271 268 269 267 267 267 268 269 272 272 271 270 270 270 268 270 268 264 264 265 271 271 270 270 270 269 269 269 269 269 269 269 266 268 268 267 267
275 274 273 275 273 272 271 271 271 271 269 270 268 266 270 271 273 273 271 267 266 265 268 266 265 264 265 270 269 269 269 269 268 269 269 266 268 268 267 266 266 267 266 264
276 275 274 273 273 275 275 275 274 274 273 274 273 273 272 273 272 271 271 271 269 268 270 265 264 264 269 270 269 268 268 268 266 267 267 267 267 266 267 266 263 264 262 264
275 276 276 276 276 277 277 277 275 276 276 276 275 275 274 274 273 272 272 269 270 268 271 270 270 268 269 268 267 268 267 268 268 267 265 267 267 266 265 264 263 264 264 264
278 276 277 276 277 277 276 275 273 274 275 274 274 275 274 273 272 270 269 271 271 271 271 271 271 269 268 267 267 268 268 268 267 267 265 265 266 266 266 264 264 264 262 261

GFSNGP_sfc_thetae_114.txt.gz
Theta_e
288 288 288 285 288 288 287 286 281 281 280 281 282 282 283 284 285 284 285 285 285 285 286 287 288 289 290 290 292 293 292 293 294 297 298 302 318 318 320 320 319 320 319 318
283 287 286 283 285 286 287 286 284 282 280 284 283 283 282 283 284 284 285 284 284 285 285 286 287 287 289 289 289 291 290 291 293 294 295 295 298 312 318 319 318 318 318 317
279 285 285 278 282 283 284 285 286 281 283 283 280 280 280 281 283 283 285 284 284 284 284 285 287 287 287 287 289 288 289 289 290 291 292 292 293 293 295 298 306 304 303 302
280 283 273 281 287 286 283 285 285 285 283 282 280 281 282 282 282 282 285 283 283 283 284 285 287 288 288 287 286 286 285 287 288 289 290 291 291 289 288 289 290 291 290 291
280 279 281 281 282 281 282 280 286 283 285 283 283 285 280 283 284 284 285 284 282 283 284 284 285 287 286 285 285 284 283 284 285 287 287 288 287 287 287 287 286 285 286 286
282 276 272 278 283 286 287 276 286 285 283 282 285 276 277 283 284 283 284 283 282 282 282 282 283 285 286 285 283 282 282 282 283 285 285 285 286 286 286 286 285 285 284 285
280 277 278 281 285 289 277 277 286 285 283 281 278 280 282 284 281 282 283 283 283 281 279 280 282 283 282 284 284 284 283 282 282 282 283 283 285 285 285 285 285 285 284 284
279 275 272 284 284 280 283 286 286 286 285 283 283 284 282 280 280 280 280 280 281 279 279 280 281 281 281 281 285 285 283 281 280 281 282 282 282 283 283 284 282 282 283 283
279 277 284 285 285 286 286 284 283 283 286 285 283 281 280 279 279 279 278 278 279 278 278 278 279 279 279 281 284 285 281 279 279 280 280 280 280 280 280 281 281 280 281 281
279 283 283 284 285 286 285 285 283 282 283 283 280 280 279 279 278 278 277 277 277 277 276 275 276 277 278 281 283 283 282 279 278 278 278 279 280 280 280 279 279 279 280 280
281 283 283 284 285 285 283 283 282 282 282 281 280 278 278 277 277 277 276 276 276 275 275 274 275 275 276 278 281 280 281 281 280 278 277 277 278 279 280 281 281 279 280 281
278 284 283 283 285 285 281 280 281 280 279 280 279 277 277 275 275 276 275 275 274 274 274 273 274 274 275 276 279 280 279 279 280 280 277 276 276 276 281 281 282 283 283 281
283 286 285 285 284 283 280 280 280 279 279 277 278 277 276 274 274 275 274 274 273 272 272 273 273 273 274 275 277 279 278 279 278 279 279 277 275 275 272 276 281 281 282 282
286 285 283 284 280 284 281 280 280 278 277 277 276 276 275 274 274 272 271 272 272 271 271 271 272 271 273 275 276 276 275 277 276 276 274 275 273 272 272 272 271 272 277 279
284 286 284 282 281 281 280 279 276 275 275 274 275 275 274 272 271 272 272 272 271 270 270 270 270 269 271 273 273 276 275 275 274 274 275 275 272 271 270 270 270 270 272 274
284 284 280 278 277 277 277 276 274 273 273 273 272 273 273 272 271 271 272 270 269 267 268 265 268 269 271 271 271 275 274 272 272 272 272 274 270 269 270 269 269 270 270 270
280 278 277 276 276 275 274 274 273 272 272 271 271 271 272 271 270 269 268 270 267 264 268 266 264 266 267 267 267 269 273 270 267 269 270 272 271 265 266 268 269 269 268 269
281 281 279 277 275 274 273 273 273 272 270 270 268 264 261 261 263 263 263 262 263 263 263 261 263 263 264 265 267 268 268 267 268 270 267 267 270 270 266 264 268 268 267 267
278 278 277 276 275 274 273 272 271 270 267 265 262 259 258 256 259 258 258 257 256 257 261 259 267 262 263 265 267 268 268 268 268 268 268 264 264 268 267 266 265 262 263 264
275 276 275 274 275 274 271 270 269 266 263 261 255 255 256 255 253 253 255 258 257 259 258 258 261 263 264 266 265 267 265 265 268 268 268 266 262 260 263 266 264 260 259 260
271 270 269 268 266 265 263 262 261 258 256 254 256 255 255 255 253 254 258 260 259 259 262 263 262 263 266 264 266 263 261 261 262 263 264 264 264 263 257 256 261 262 261 263
266 265 263 263 264 260 258 259 259 256 256 255 252 251 254 258 255 257 256 261 263 260 264 263 263 259 262 261 264 261 263 261 259 258 258 258 260 261 261 260 260 259 258 257
265 265 265 263 264 263 259 259 257 258 257 256 256 256 258 260 262 261 260 264 264 261 264 261 258 257 257 257 255 255 256 255 255 256 255 255 255 253 254 256 255 256 256 257
265 266 265 265 264 266 264 262 263 264 259 260 260 258 262 260 260 266 265 262 260 256 257 259 257 258 256 255 253 252 254 253 252 251 256 255 253 254 253 252 253 252 251 251
267 266 266 265 267 267 267 266 266 266 268 269 269 270 267 268 263 263 260 261 261 261 259 258 259 259 253 253 252 252 252 253 255 251 251 251 253 253 253 253 250 250 250 253
270 270 270 269 269 270 271 271 269 269 270 269 269 267 267 266 267 263 260 260 261 262 259 257 255 257 256 254 253 252 254 256 256 258 253 251 251 255 255 254 251 251 251 251
270 270 271 271 272 272 270 269 267 264 263 259 261 265 268 266 261 261 258 256 256 256 255 255 254 255 256 255 257 255 254 254 254 254 252 250 250 253 254 253 252 251 250 248

GFSNGP_sfc_thetae_117.txt.gz
Theta_e
284 285 285 285 289 287 285 284 279 279 277 279 280 281 282 284 285 284 284 284 284 284 285 286 287 287 288 288 289 289 290 291 291 293 295 295 297 300 314 320 320 320 320 320
282 284 283 280 283 284 283 282 281 280 277 282 282 282 282 282 283 283 282 282 283 283 284 285 286 286 286 287 287 288 287 287 290 291 292 292 293 293 293 296 311 318 318 318
280 285 284 276 280 281 282 284 285 278 279 282 279 279 280 281 282 282 281 281 281 282 283 284 285 287 285 285 286 286 285 286 287 289 290 290 291 291 290 289 290 292 296 299
280 283 272 280 285 285 282 283 284 282 281 280 279 281 282 282 281 283 281 280 279 280 282 282 284 286 287 285 284 284 283 284 285 286 287 288 289 288 289 289 287 287 288 290
279 277 279 280 281 281 281 279 284 283 283 282 282 283 280 283 283 282 281 280 279 280 280 281 282 284 285 284 283 282 281 281 283 284 284 285 285 286 287 287 286 285 286 286
282 276 272 278 282 286 286 275 285 283 281 280 284 275 277 281 281 280 282 280 279 279 279 279 281 283 283 283 281 280 281 281 282 282 283 283 284 284 285 285 285 286 285 285
279 276 277 280 283 288 277 276 286 283 281 279 277 278 280 279 277 278 279 279 279 278 277 278 280 281 280 281 283 281 281 280 280 281 281 282 283 283 283 283 284 284 284 284
278 274 272 283 283 279 282 284 285 285 283 282 281 279 278 277 276 277 276 277 277 276 276 276 277 278 277 278 283 284 280 278 278 278 280 281 281 282 282 282 282 282 282 282
278 276 282 284 283 285 285 281 280 283 284 281 279 278 278 277 277 276 276 275 276 275 275 275 276 276 275 278 281 282 282 279 278 278 279 279 279 279 280 281 281 281 281 281
279 282 282 283 284 283 282 280 281 282 281 280 278 278 276 276 275 275 274 274 275 274 273 273 275 276 276 277 280 280 280 281 279 277 277 279 280 280 280 280 279 280 280 280
279 282 283 284 283 282 281 281 280 281 279 278 277 276 275 274 274 274 273 273 273 273 273 272 274 274 274 276 279 279 279 279 280 278 276 276 277 279 279 281 282 279 279 280
276 282 282 282 283 282 279 279 279 278 277 277 277 275 274 273 274 273 272 272 272 272 272 272 272 273 274 275 277 278 278 278 278 278 276 276 275 274 279 280 281 282 283 280
284 286 285 285 282 281 278 278 278 278 277 275 275 274 274 272 273 273 272 271 270 271 271 271 271 271 272 274 277 277 276 277 277 276 276 275 274 273 271 274 278 279 280 280
286 285 282 283 278 280 279 278 278 276 276 276 275 275 274 272 272 271 270 271 271 270 270 270 270 269 271 273 275 274 273 273 272 273 271 270 269 267 267 267 267 270 275 276
285 285 281 281 279 278 278 277 275 274 274 274 275 273 273 271 270 271 271 271 270 269 268 268 268 267 269 271 272 273 273 272 270 269 271 268 267 267 266 266 266 268 270 271
282 281 280 278 276 276 276 275 274 273 273 273 273 272 272 271 270 269 270 269 267 265 266 263 266 266 269 269 269 271 272 270 268 269 270 268 266 265 266 267 267 267 268 268
278 276 277 276 275 275 275 274 273 272 272 271 271 271 271 270 269 268 267 267 265 263 265 264 262 263 265 266 264 266 266 266 266 267 266 269 265 263 263 265 266 266 266 267
280 279 279 278 275 274 273 273 273 272 270 269 267 263 261 261 262 261 260 261 261 262 261 259 259 261 262 262 263 265 267 266 267 266 264 263 266 267 265 262 263 263 263 265
279 278 277 276 275 274 273 271 270 270 266 263 261 257 256 255 257 256 255 255 255 256 258 258 265 261 261 263 265 264 264 264 266 267 266 262 262 264 263 260 260 258 261 261
276 276 276 274 274 273 271 269 268 266 262 260 255 255 256 254 252 252 253 257 256 258 255 258 260 262 263 264 264 265 262 261 265 266 265 265 261 258 260 262 262 258 255 256
273 272 270 269 266 264 263 262 262 260 255 253 256 255 255 253 251 251 255 259 259 258 260 262 262 262 264 262 264 260 258 257 257 258 258 261 260 259 257 258 260 259 258 259
266 266 263 263 263 259 256 257 258 255 254 253 250 250 251 256 254 255 255 260 262 260 262 262 262 258 261 258 263 257 261 258 256 255 254 254 257 258 259 258 255 255 254 254
265 265 264 262 263 262 259 258 255 256 255 254 254 255 257 260 260 259 260 264 263 261 263 261 258 257 256 253 253 252 252 252 252 253 254 252 252 252 253 255 255 253 253 256
264 265 263 264 264 266 263 260 260 262 257 258 259 257 262 260 259 265 265 261 259 257 256 258 256 258 255 252 251 251 251 250 250 249 252 251 250 252 252 252 254 252 251 252
266 266 265 264 265 265 265 264 264 264 266 268 268 269 266 267 264 263 260 261 261 261 260 258 257 257 253 251 251 250 250 250 251 250 250 249 250 252 251 249 249 249 248 249
268 268 268 267 268 268 268 269 267 268 268 265 265 263 265 267 266 263 261 260 261 262 261 257 253 252 253 254 252 251 251 255 253 253 251 250 248 250 251 254 250 249 249 248
269 269 270 269 270 270 269 269 267 266 263 259 261 260 262 260 261 260 258 256 257 257 255 256 253 254 255 255 256 257 253 254 253 255 252 250 248 249 251 252 252 251 250 248

GFSNGP_sfc_thetae_120.txt.gz
Theta_e
283 283 283 282 284 286 283 282 277 276 275 277 279 280 281 283 282 281 281 281 282 282 283 284 285 286 286 286 287 288 288 288 288 290 292 292 294 295 295 295 297 300 320 321
281 286 282 278 280 282 283 281 279 278 275 281 282 282 280 281 281 279 279 279 280 281 282 282 284 285 284 284 285 286 285 286 288 289 289 290 290 292 292 293 293 293 294 300
277 283 282 276 279 279 281 281 282 276 278 280 278 278 279 279 281 278 278 278 278 279 280 281 282 284 284 283 284 283 283 284 285 286 287 288 288 289 289 289 290 290 290 290
280 282 271 279 285 284 280 281 282 280 279 279 279 279 280 280 280 278 278 277 278 278 278 280 282 283 285 283 282 282 281 282 283 284 284 286 286 286 287 288 287 287 288 288
278 276 279 280 281 281 281 278 282 282 281 280 282 282 277 279 279 279 278 278 278 278 278 279 279 282 283 284 280 279 279 279 281 282 282 283 283 284 285 285 285 285 285 286
280 276 272 277 281 285 285 275 282 281 279 279 283 274 274 277 277 276 277 277 277 277 277 276 277 280 281 281 282 277 277 278 279 280 281 281 282 282 284 285 284 284 283 284
279 276 277 280 284 287 277 275 283 281 278 279 276 276 276 276 274 275 276 276 277 276 275 275 276 278 278 279 279 281 280 278 278 280 280 280 282 283 283 283 283 283 283 283
278 275 272 283 284 279 282 284 284 281 281 277 277 277 277 274 274 275 274 275 275 275 274 275 275 276 276 277 280 281 280 279 278 278 280 280 280 281 281 281 282 281 282 282
277 276 282 283 282 283 282 280 281 281 280 279 277 276 276 275 274 274 273 273 274 273 274 274 275 275 275 276 280 280 280 279 278 278 278 280 279 280 280 280 279 279 280 280
279 280 281 281 282 281 281 280 281 280 279 278 276 276 275 274 273 272 272 272 273 273 272 272 274 275 275 276 279 279 279 279 279 277 277 277 278 279 278 279 279 278 278 278
279 282 282 281 280 281 280 281 280 279 278 277 276 275 274 273 273 272 271 271 272 272 271 271 272 273 273 275 278 278 278 278 278 278 276 276 276 277 277 278 279 278 277 278
272 282 280 280 280 281 279 279 279 277 276 276 275 273 273 272 272 271 270 271 270 271 271 270 271 271 272 274 277 276 276 276 276 276 275 275 274 274 278 279 279 279 280 278
282 285 283 282 280 280 278 278 278 277 276 274 274 273 273 271 271 272 270 270 269 270 270 270 270 270 271 273 276 275 274 275 275 275 274 272 271 270 267 272 276 277 277 278
285 284 280 280 277 279 278 277 277 276 275 275 274 274 273 272 271 270 269 270 270 269 268 268 268 268 269 271 273 273 270 270 269 270 268 266 264 264 265 266 265 266 272 274
285 284 282 279 278 277 277 276 275 274 274 273 274 273 272 270 270 269 269 270 270 268 267 266 266 265 267 270 270 270 271 270 268 266 266 265 265 265 265 266 266 267 268 269
281 280 278 277 276 276 276 275 273 273 273 273 272 271 271 270 269 268 269 268 266 264 265 261 264 264 267 267 268 269 267 268 266 266 266 265 264 264 264 264 264 264 264 265
278 276 277 276 276 275 275 275 274 273 272 271 271 271 270 269 268 267 265 266 264 262 264 262 259 263 264 263 263 264 264 265 264 265 264 265 263 262 262 261 261 262 260 259
280 280 279 278 276 275 274 274 273 272 269 269 267 263 260 261 262 260 258 260 261 260 259 257 257 260 261 261 262 263 263 264 265 263 263 263 265 267 263 259 260 260 258 262
279 278 277 277 276 275 273 272 270 269 265 263 261 257 256 254 257 255 253 254 254 255 258 256 265 260 260 263 264 263 262 261 263 264 264 262 261 263 261 258 257 256 258 259
277 277 276 275 275 273 271 270 268 266 262 260 256 254 256 254 251 251 251 256 256 258 254 257 259 261 262 263 262 263 260 258 262 261 261 262 258 257 257 260 260 256 253 254
273 273 271 270 267 265 264 263 262 260 254 252 255 254 255 252 250 250 255 259 259 256 259 261 261 261 263 262 263 259 256 256 256 257 255 255 257 259 255 253 254 254 255 258
268 267 265 264 264 259 256 256 259 256 254 251 249 249 252 256 252 253 255 260 261 259 261 262 262 258 261 258 262 256 260 258 256 255 255 253 251 251 254 255 254 253 253 255
266 265 264 263 263 262 257 256 254 255 254 252 253 253 256 259 259 259 260 263 263 261 262 261 258 256 255 253 252 251 251 251 251 251 250 249 251 252 253 257 253 250 250 252
264 264 262 262 264 264 263 259 260 260 255 257 257 257 261 259 260 265 265 262 258 257 256 257 255 257 255 252 251 250 250 250 249 248 252 250 247 248 253 254 255 250 249 249
265 264 263 263 265 265 265 264 263 263 265 267 267 268 265 266 264 264 261 260 260 260 259 258 257 256 252 250 250 250 250 249 251 248 250 248 249 248 249 251 255 251 248 247
267 267 266 266 266 266 267 268 265 266 267 264 264 261 261 262 266 265 265 261 259 260 259 259 254 252 251 252 252 253 253 255 253 252 254 256 255 252 250 252 254 251 250 249
268 267 268 268 269 269 268 267 265 265 264 260 261 260 260 257 260 264 261 256 256 256 257 256 252 253 256 257 256 256 256 254 253 256 255 254 254 254 251 253 254 256 255 255

GFSNGP_sfc_thetae_123.txt.gz
Theta_e
284 284 282 280 282 284 281 282 278 276 275 277 279 279 281 282 281 280 280 280 280 280 281 282 284 286 285 286 287 288 287 288 288 289 291 291 291 292 292 293 294 296 295 296
281 285 283 278 280 282 282 280 279 278 275 281 281 281 280 279 279 278 278 279 279 279 280 281 282 284 283 284 285 286 286 286 287 288 288 289 290 290 290 290 290 291 291 292
279 284 283 276 278 280 280 281 282 276 278 280 278 278 278 278 278 277 278 278 278 278 279 280 281 284 284 283 284 283 283 283 284 286 286 286 287 288 289 289 288 287 287 288
281 283 273 280 285 283 280 281 281 280 280 280 278 278 279 279 277 277 277 278 278 277 278 279 281 283 284 284 283 282 281 281 283 284 284 286 286 286 286 287 287 286 286 286
279 277 279 281 281 281 281 278 282 282 281 281 281 282 277 278 278 277 277 278 278 278 278 278 279 281 283 283 283 281 280 280 281 282 282 283 283 284 285 286 286 285 285 284
281 277 274 278 282 286 286 276 282 281 281 281 284 279 275 277 277 276 278 278 278 278 278 277 279 281 281 280 281 280 280 280 280 282 281 282 283 283 285 285 285 287 285 285
280 277 277 281 283 287 277 278 282 281 280 281 277 278 277 277 275 276 277 277 278 278 277 277 279 280 278 279 279 282 283 281 281 281 282 282 283 283 283 284 284 284 284 284
279 276 274 283 285 280 282 284 283 282 280 279 279 278 277 275 275 275 275 276 277 276 276 277 278 278 277 277 281 282 281 282 281 281 281 282 282 282 283 282 281 281 281 282
279 277 282 283 282 284 286 284 283 282 281 280 279 277 277 276 275 274 275 275 276 276 276 276 277 277 276 278 280 281 280 280 281 281 281 281 280 280 280 281 280 280 280 280
280 281 281 282 282 283 284 284 283 282 281 280 278 277 276 275 275 274 274 274 275 275 275 275 276 276 276 278 280 280 279 279 280 280 280 280 280 280 279 280 279 278 278 278
280 282 281 281 282 282 282 282 280 280 280 278 278 276 276 274 274 273 273 273 274 274 273 273 275 275 276 277 279 279 279 279 278 279 279 279 279 278 278 278 278 278 277 278
279 284 283 281 282 282 281 279 279 278 277 277 277 275 275 274 273 272 272 273 273 272 272 272 274 274 274 276 278 277 277 277 277 278 278 277 277 278 277 277 278 278 278 278
284 286 284 283 282 282 280 279 279 278 277 275 275 275 274 273 273 272 272 272 271 271 271 272 272 272 273 275 276 276 275 276 276 276 276 275 275 275 274 276 276 275 276 276
285 283 280 281 279 280 280 280 279 277 277 276 275 275 274 273 273 272 271 272 271 270 270 270 271 270 271 273 274 273 274 273 275 275 274 274 274 274 274 273 272 272 274 273
285 285 284 281 280 279 279 278 276 275 275 275 275 274 274 272 271 271 271 271 271 270 268 268 269 268 270 271 272 273 274 274 274 274 275 273 274 274 273 273 272 271 272 271
282 281 280 279 278 277 277 277 276 275 275 274 274 273 273 272 271 270 270 270 269 267 266 264 267 267 269 270 271 272 273 271 271 273 273 273 273 273 272 272 271 270 269 269
280 278 278 278 277 277 277 277 277 276 275 274 273 273 272 271 270 268 268 268 267 266 266 265 264 266 267 268 269 271 272 272 269 273 272 272 272 272 272 271 270 270 269 267
284 283 282 281 279 278 277 276 276 275 273 273 272 269 267 268 268 266 265 265 266 265 265 263 263 265 266 267 269 270 270 271 271 271 271 271 270 271 270 270 269 269 269 268
283 281 281 280 280 278 277 275 274 273 270 267 265 265 265 264 265 265 262 262 263 266 266 264 267 266 267 268 269 270 269 269 269 269 270 269 269 269 269 270 269 268 268 268
280 280 279 278 278 277 274 273 271 269 267 264 261 262 264 262 260 260 261 266 267 269 265 265 266 268 268 267 266 269 268 268 268 268 268 268 268 268 268 267 267 268 267 267
277 277 275 274 271 270 269 269 267 265 261 261 264 264 264 264 260 260 264 269 268 264 266 266 268 268 269 267 268 268 268 267 267 267 266 266 266 267 267 267 267 267 267 267
274 272 270 268 268 265 265 266 266 262 261 260 258 260 261 265 262 262 263 268 271 264 268 270 269 264 266 263 268 268 267 267 267 266 266 266 266 266 266 266 266 266 266 266
271 271 269 267 267 267 263 264 263 263 262 262 262 263 265 270 270 269 270 269 269 268 269 270 266 263 262 267 268 267 267 266 266 266 265 265 265 265 265 265 265 265 265 265
269 269 268 267 266 266 266 265 264 265 263 264 264 263 267 268 270 270 271 268 264 266 269 269 267 263 260 267 267 267 266 267 266 266 266 261 264 264 265 265 265 266 265 264
269 268 267 266 268 269 269 267 267 267 267 269 270 270 267 269 269 273 271 271 266 266 270 266 263 262 266 267 267 266 266 266 266 266 265 265 265 264 265 265 264 265 264 264
270 270 270 270 272 271 271 270 270 271 271 271 272 272 272 271 271 270 271 269 269 268 269 270 268 267 267 267 267 266 266 266 266 266 264 265 266 265 265 265 264 265 265 264
271 270 270 270 271 272 272 272 272 272 271 273 273 273 271 270 270 268 267 270 269 269 268 268 267 266 267 267 267 267 267 267 265 265 265 266 265 265 265 265 264 265 264 264

GFSNGP_sfc_thetae_126.txt.gz
Theta_e
286 286 285 283 283 285 283 284 282 279 277 279 280 281 281 282 281 281 281 281 282 281 282 283 283 285 286 286 288 289 289 290 292 293 291 291 292 293 293 292 291 291 291 291
284 287 285 281 283 284 283 282 281 280 277 282 282 282 281 280 280 279 280 280 280 281 281 282 283 284 286 286 286 288 287 288 290 292 294 292 291 291 292 292 291 291 289 289
283 285 285 279 280 282 283 284 284 280 280 282 280 279 279 279 279 279 279 280 279 279 280 281 282 284 284 287 287 287 286 286 287 290 290 292 293 292 291 289 290 289 289 289
285 285 277 281 286 285 282 283 284 282 282 283 281 280 280 280 279 279 279 279 280 279 279 281 283 284 285 286 286 285 284 284 285 287 287 289 289 289 290 290 289 288 288 287
283 282 281 282 284 283 283 280 284 284 283 283 282 284 280 280 280 279 280 281 281 282 281 281 282 284 283 283 283 283 282 282 283 284 285 285 285 286 288 288 287 288 287 286
285 279 277 282 284 287 288 280 284 285 285 285 284 282 280 279 280 279 281 282 282 282 283 282 282 284 283 282 282 282 283 283 283 284 284 283 284 285 286 287 287 287 286 286
284 281 281 284 286 289 279 279 285 285 285 286 283 281 279 279 279 279 281 281 283 282 281 282 283 283 282 283 282 283 284 284 284 284 284 284 284 285 285 285 285 285 285 285
284 281 278 285 286 283 285 287 287 286 286 283 282 281 280 278 279 279 280 281 282 281 281 282 282 282 281 281 284 285 284 284 284 284 283 283 283 284 285 285 285 284 284 285
282 281 285 286 287 290 290 287 286 286 286 285 282 281 280 280 279 279 280 281 281 281 281 281 281 281 280 282 284 284 284 283 284 284 285 285 283 282 282 283 283 283 283 282
283 282 284 285 287 288 289 288 287 286 285 285 282 282 280 280 279 279 279 279 280 280 279 279 280 280 280 282 283 283 282 282 283 283 283 284 283 281 279 279 279 279 279 279
281 283 285 285 286 287 286 286 285 285 284 283 282 281 280 279 278 278 278 278 278 278 277 278 279 279 280 281 282 281 281 281 281 282 282 282 282 281 279 278 278 277 277 278
286 286 287 285 287 287 284 283 283 282 281 282 282 280 280 278 278 278 277 277 277 276 276 277 278 278 278 280 280 280 279 280 280 281 281 281 281 281 278 277 277 276 276 277
288 290 289 287 287 287 284 284 283 282 282 280 280 280 279 278 277 275 277 276 276 275 275 276 276 276 277 278 279 278 278 278 279 279 279 279 279 279 278 280 278 277 275 275
291 288 284 285 283 285 284 283 283 282 281 280 280 280 279 277 277 276 275 276 275 275 274 275 274 273 274 276 277 276 277 276 278 279 279 278 278 278 278 277 276 277 277 275
289 290 289 287 285 284 283 282 280 279 279 279 279 278 278 276 275 275 275 275 274 274 273 273 272 272 274 274 275 275 277 276 277 278 278 277 278 278 277 276 276 275 276 274
289 288 286 284 283 282 282 281 280 279 279 278 277 277 277 277 275 275 274 274 272 270 270 268 270 271 272 273 274 275 276 274 274 277 277 277 277 276 276 275 275 274 274 272
286 284 285 283 283 282 282 282 282 280 279 278 277 276 276 275 274 273 272 272 270 269 270 270 269 270 270 272 273 275 276 275 273 276 276 275 275 275 275 274 274 273 273 271
291 289 288 286 284 283 282 281 281 280 278 278 276 275 273 272 273 271 270 270 269 269 270 268 268 270 270 271 272 274 274 274 274 274 274 274 273 274 274 274 273 272 272 272
290 288 287 286 285 284 283 281 280 279 277 274 272 272 272 271 272 271 270 268 268 270 271 269 269 270 271 270 271 274 273 273 273 273 273 272 273 273 273 272 272 272 271 271
288 287 286 285 285 283 281 280 277 275 274 272 269 269 270 269 268 268 268 270 273 273 271 271 270 272 271 271 270 273 273 272 272 272 272 271 271 271 271 270 270 271 270 270
285 284 283 281 279 279 277 275 274 270 270 269 271 270 271 272 268 267 269 273 274 271 271 270 272 273 273 271 272 273 272 272 271 271 270 270 270 270 270 270 270 270 270 269
282 279 277 275 275 274 274 274 273 269 268 268 267 269 269 270 269 269 270 273 276 270 273 274 274 271 271 268 273 272 272 271 271 271 270 270 270 269 269 269 269 269 269 269
280 278 276 274 274 275 273 272 271 270 269 268 268 269 272 276 276 275 275 276 275 274 273 274 272 269 269 271 273 272 272 271 271 270 270 270 269 269 269 269 268 268 268 268
278 277 276 276 273 272 271 271 271 271 270 271 271 271 273 275 276 277 277 275 273 272 274 275 273 270 268 273 273 272 272 272 271 271 271 269 270 269 269 269 268 269 268 268
277 276 274 272 274 275 276 273 272 272 271 273 274 274 272 275 276 278 278 277 274 273 275 274 271 269 271 274 273 272 272 272 271 271 270 270 270 269 269 269 268 268 268 268
277 278 277 277 279 279 277 275 276 276 275 276 277 278 279 278 278 276 276 275 274 274 275 276 275 274 274 273 273 272 272 271 271 271 270 270 270 269 269 269 268 268 268 268
278 278 277 277 277 278 277 277 277 277 277 279 278 279 278 278 277 275 274 276 275 275 275 275 275 274 273 273 272 272 271 271 270 270 270 270 269 269 269 269 269 269 268 268

GFSNGP_sfc_thetae_129.txt.gz
Theta_e
288 288 287 284 284 285 286 286 283 281 279 280 282 282 282 283 283 283 282 282 282 281 282 284 284 285 286 287 288 289 288 289 291 293 293 293 293 292 292 291 291 291 291 289
284 288 286 282 285 285 285 284 283 282 279 283 284 284 283 282 282 281 281 281 281 281 282 282 284 285 286 287 287 287 287 288 290 291 292 292 292 292 292 291 290 291 289 289
284 287 286 282 282 284 285 287 286 283 283 284 282 282 281 281 281 280 280 281 281 281 281 282 284 285 285 286 287 286 286 287 288 289 289 290 290 291 291 290 290 289 289 289
286 286 278 282 289 288 285 285 286 284 284 285 283 282 283 282 281 280 281 282 282 281 282 284 285 286 286 286 286 285 285 285 286 287 287 288 287 288 289 289 288 288 287 287
284 284 282 283 286 286 285 282 287 286 285 285 284 285 282 283 281 281 283 284 284 285 283 285 285 287 286 285 285 285 284 284 284 285 285 286 285 286 287 287 287 286 286 286
287 281 279 286 290 291 290 281 288 288 286 285 285 281 281 281 281 281 284 285 284 285 285 284 285 286 286 285 284 284 285 285 285 285 284 284 285 286 287 287 287 287 287 287
286 284 283 289 290 291 280 282 288 290 289 288 285 283 281 282 281 281 284 284 286 285 284 284 285 285 284 285 285 286 286 287 286 286 285 285 285 286 286 287 286 286 286 286
286 283 279 290 289 284 287 290 289 288 288 285 284 283 282 281 282 282 283 284 284 284 283 284 284 284 283 283 285 286 286 286 286 287 286 286 284 284 284 285 284 283 283 284
285 282 286 289 290 292 292 290 289 289 288 287 285 283 283 282 283 283 283 283 284 283 282 283 283 283 282 283 285 285 285 284 285 285 286 287 285 284 282 282 282 281 281 281
286 284 285 287 290 291 291 290 290 289 288 287 285 285 283 283 283 282 282 282 282 282 281 281 282 282 282 283 284 284 284 283 284 284 284 285 284 283 281 278 278 278 277 278
283 285 286 288 289 289 289 289 288 287 287 286 285 284 283 282 282 282 281 281 281 280 280 280 281 280 281 282 282 282 282 282 282 283 283 283 283 282 281 279 277 276 275 277
288 289 289 288 290 290 288 286 287 285 285 286 285 283 283 281 282 281 280 280 279 279 279 279 279 279 280 281 281 280 280 280 281 282 282 282 281 282 280 279 278 278 276 276
290 293 293 292 291 290 287 287 286 285 285 283 284 283 282 281 280 278 280 279 278 277 278 278 278 277 278 279 279 278 279 278 280 280 280 280 280 280 278 281 281 279 277 277
294 292 289 289 287 289 288 287 286 285 284 283 283 282 281 280 279 279 278 278 278 277 277 277 276 275 276 277 278 277 278 277 279 280 280 279 279 279 279 278 277 278 279 277
292 293 291 291 290 288 287 286 283 282 282 282 282 281 281 279 278 277 277 277 277 276 275 275 274 273 275 275 276 277 278 278 277 279 280 279 279 279 278 278 277 277 278 277
292 292 291 288 287 286 285 284 283 282 282 281 281 280 280 279 278 277 277 276 276 273 273 270 272 272 273 274 275 278 278 277 276 278 278 278 278 277 277 276 276 276 275 274
289 287 288 286 286 285 285 285 284 283 282 281 280 280 279 278 277 276 275 275 272 272 273 272 271 272 272 273 273 277 278 277 276 277 277 277 277 276 276 275 275 274 275 274
293 292 291 290 287 286 286 285 285 283 281 281 280 279 277 276 277 275 273 273 272 271 272 271 270 271 272 272 272 276 277 276 276 276 276 275 275 275 275 274 274 273 273 274
293 291 291 290 289 288 286 285 284 283 281 279 276 275 275 275 275 274 273 271 270 272 274 272 270 272 274 272 272 276 276 275 275 275 275 273 274 274 274 273 273 273 272 272
291 291 290 289 289 288 285 285 282 280 279 276 276 274 273 272 272 271 272 272 276 276 274 273 272 273 273 273 272 274 275 275 274 274 274 273 273 272 273 272 272 272 272 272
290 289 288 287 285 284 283 281 280 276 275 274 273 273 273 273 272 272 272 275 278 274 274 272 273 275 275 273 273 275 275 274 274 273 273 272 272 272 271 271 271 271 271 271
286 284 282 281 280 279 279 279 277 275 273 273 274 273 274 273 272 272 273 276 279 273 275 276 276 274 274 270 274 275 274 274 273 273 272 272 271 271 271 271 270 271 270 270
285 283 281 279 279 279 278 277 275 274 272 272 271 273 274 278 278 277 277 278 278 276 276 277 276 273 271 272 274 274 274 274 273 273 273 272 272 271 271 270 270 270 270 270
283 282 281 280 279 277 275 275 275 275 274 274 274 274 276 277 279 280 280 278 276 276 276 277 276 273 271 274 274 274 274 274 273 273 273 272 272 272 272 271 270 271 270 270
282 281 280 277 278 278 279 277 276 275 275 276 276 275 276 278 278 280 280 279 277 276 277 276 275 273 274 274 274 274 274 274 273 273 272 272 271 271 271 271 271 271 270 270
281 282 281 280 283 283 281 278 278 279 278 278 279 280 280 280 280 279 278 277 277 276 276 277 277 277 276 275 275 275 274 273 273 272 272 271 271 271 271 271 271 270 270 270
282 282 282 281 283 282 281 279 280 280 279 281 280 281 281 280 279 277 276 277 278 277 277 277 277 276 276 275 274 273 273 273 272 272 271 271 271 271 270 270 270 270 269 269

GFSNGP_sfc_thetae_132.txt.gz
Theta_e
289 288 288 285 284 285 285 287 284 282 280 280 282 282 282 283 283 283 282 282 281 281 282 284 284 285 285 286 286 286 286 287 288 289 290 291 291 291 291 290 290 290 290 287
283 288 287 282 284 283 285 286 284 282 278 284 284 284 282 282 282 281 281 282 281 281 282 283 284 284 285 285 285 286 285 285 287 288 288 289 289 289 289 288 288 287 287 287
282 286 287 281 282 285 286 287 286 282 282 284 283 282 281 281 281 281 281 282 281 281 282 284 285 285 284 284 286 285 284 285 285 286 286 286 287 287 287 287 287 286 285 286
284 285 277 283 290 289 286 286 286 284 284 285 283 282 282 282 281 281 282 282 283 282 282 285 286 286 286 285 285 284 284 284 284 285 285 286 286 286 286 286 286 285 285 284
282 283 281 283 287 286 285 283 288 285 285 284 284 283 281 282 282 281 283 284 284 284 284 285 285 286 286 285 285 284 283 284 284 284 283 284 283 284 286 285 285 285 285 283
286 281 278 286 290 293 292 281 289 288 286 284 285 280 279 282 282 282 284 285 284 284 284 284 285 285 285 284 284 283 284 284 285 284 283 282 283 282 284 284 283 284 283 283
285 282 283 290 291 293 280 283 290 290 288 287 284 284 282 282 281 282 284 284 285 284 282 282 284 284 283 283 282 284 285 285 285 285 284 283 282 282 282 282 281 280 280 281
286 282 278 291 290 284 288 291 291 291 291 289 284 283 282 281 281 283 283 283 284 282 281 282 283 283 281 281 284 285 284 284 283 285 285 284 281 280 279 279 278 277 277 278
284 282 288 290 291 293 293 290 290 289 288 286 284 282 281 281 283 283 283 282 283 282 281 281 281 281 280 281 284 284 283 282 283 282 284 283 282 279 277 277 276 275 275 274
285 285 286 289 292 293 292 291 290 289 287 286 284 283 283 283 283 282 282 281 282 281 280 279 280 280 280 281 282 282 281 281 282 281 282 282 281 281 277 276 275 274 273 272
284 286 287 288 291 291 290 290 289 289 288 286 285 284 283 282 282 281 281 281 281 280 279 279 279 279 280 280 281 280 280 281 280 281 280 280 280 279 279 276 276 274 273 273
286 288 289 288 290 291 287 287 287 286 285 286 285 283 283 281 281 281 280 280 279 278 278 278 278 277 278 279 279 279 278 278 279 280 280 279 279 279 280 279 279 278 278 275
291 293 293 291 291 291 288 287 287 286 286 284 284 283 282 280 280 280 279 279 277 277 278 278 276 275 276 277 278 277 277 276 278 279 279 278 278 277 276 279 281 281 278 277
295 293 289 290 288 290 289 288 288 286 286 284 283 282 281 279 279 279 278 277 278 276 276 276 275 273 275 276 276 277 278 275 276 278 278 277 277 277 277 275 274 275 278 277
293 294 292 292 290 289 288 286 284 283 283 282 282 281 280 279 278 277 278 277 277 276 274 274 273 272 273 275 275 277 278 276 276 277 277 276 277 276 276 275 274 274 274 274
293 293 292 290 288 287 286 285 283 282 282 281 281 281 280 280 278 277 276 276 276 273 273 269 272 271 272 273 273 277 277 275 274 276 276 276 275 274 274 274 273 273 273 271
290 288 289 287 287 286 285 285 284 283 282 281 281 281 280 278 278 276 275 274 272 272 273 272 270 270 271 271 271 275 276 276 272 276 275 275 274 273 273 273 272 272 271 271
294 293 292 290 288 287 286 286 285 283 281 281 280 278 276 275 276 274 272 272 270 269 272 270 268 269 270 270 270 273 276 275 275 274 274 273 272 273 272 272 271 271 271 271
294 292 292 291 290 288 287 286 285 283 281 278 277 275 274 274 274 273 272 269 267 270 272 269 272 270 273 270 271 273 275 274 274 274 273 272 272 272 271 271 271 270 270 270
293 293 292 290 290 289 286 286 283 280 278 276 275 274 273 271 272 270 270 270 274 275 273 273 272 273 273 273 271 272 274 274 273 273 272 271 271 270 271 269 270 270 269 269
290 289 287 285 283 283 283 281 280 277 276 275 274 272 271 272 270 269 270 272 277 273 273 271 273 274 275 272 271 273 274 273 273 272 271 271 271 271 270 270 270 269 269 269
286 283 281 280 280 279 280 280 278 276 274 272 271 271 272 272 270 271 271 273 278 271 274 275 276 271 272 268 272 273 273 273 273 272 272 272 271 270 270 270 269 269 269 268
284 283 281 279 279 280 279 278 275 274 272 272 272 273 274 276 275 274 275 277 277 271 276 277 274 268 267 272 272 273 273 273 272 272 272 272 272 271 271 270 270 270 269 269
284 282 281 281 280 278 277 276 275 274 273 273 273 273 275 277 279 279 280 276 274 275 276 276 275 271 267 273 272 272 273 274 273 272 272 271 271 271 270 270 270 270 269 268
283 282 281 279 278 278 279 276 276 275 274 275 275 275 275 278 279 279 279 279 277 276 277 275 274 274 273 273 273 273 273 273 273 273 271 271 271 270 270 270 270 270 270 268
282 282 282 280 282 282 281 278 277 277 276 277 278 278 278 279 279 279 279 277 276 275 277 277 276 277 276 275 275 275 273 273 272 272 270 270 270 269 269 269 269 269 269 268
283 283 282 281 283 283 282 279 280 279 279 280 280 280 281 281 279 278 276 278 278 278 277 277 277 275 275 273 273 272 272 271 270 269 268 267 267 267 266 265 264 265 265 266